<?xml version="1.0" encoding="UTF-8" standalone="no" ?>
<gpx xmlns="http://www.topografix.com/GPX/1/1" xmlns:xsi="http://www.w3.org/2001/XMLSchema-instance" xsi:schemaLocation="http://www.topografix.com/GPX/1/1 http://www.topografix.com/GPX/1/1/gpx.xsd" version="1.1" creator="VisuGPX - https://www.visugpx.com">
  <metadata>
    <name>29.10.2014. La plaine des Bréviaires</name>
    <desc><![CDATA[A éviter tous les chemins en pointillés s'il a plut !! (pas mal de gadoue !)
j'ai respecté mon tracé initial ! Un demi-tour : un chemin fermé par un grillage (petite pancarte (non officielle) mise juste avant indiquant la voie sans issue et une flèche pour la déviation) et un chemin pointillé loupé à cause d'un bon trot !
et de nouveaux chemins, alors que c'est la quatrième ou cinquième fois que j'y vais... ]]></desc>
  </metadata>
  <trk>
    <name><![CDATA[29/10/2014. La plaine des Bréviaires]]></name>
    <desc><![CDATA[Ne pas faire ce parcours tel quel s'il a plut...]]></desc>
    <trkseg>
      <trkpt lat="48.70692" lon="1.75515">
        <ele>173.39999389648</ele>
        <time>2014-10-29T11:20:47.000Z</time>
      </trkpt>
      <trkpt lat="48.70685" lon="1.75531">
        <ele>174</ele>
        <time>2014-10-29T11:20:57.000Z</time>
      </trkpt>
      <trkpt lat="48.70679" lon="1.75546">
        <ele>174.39999389648</ele>
        <time>2014-10-29T11:21:06.000Z</time>
      </trkpt>
      <trkpt lat="48.7067" lon="1.75563">
        <ele>175.80000305176</ele>
        <time>2014-10-29T11:21:17.000Z</time>
      </trkpt>
      <trkpt lat="48.70662" lon="1.75582">
        <ele>177.39999389648</ele>
        <time>2014-10-29T11:21:28.000Z</time>
      </trkpt>
      <trkpt lat="48.70657" lon="1.75595">
        <ele>177.80000305176</ele>
        <time>2014-10-29T11:21:36.000Z</time>
      </trkpt>
      <trkpt lat="48.7065" lon="1.75609">
        <ele>178.39999389648</ele>
        <time>2014-10-29T11:21:45.000Z</time>
      </trkpt>
      <trkpt lat="48.70646" lon="1.75619">
        <ele>179</ele>
        <time>2014-10-29T11:21:51.000Z</time>
      </trkpt>
      <trkpt lat="48.70642" lon="1.75634">
        <ele>179.80000305176</ele>
        <time>2014-10-29T11:21:59.000Z</time>
      </trkpt>
      <trkpt lat="48.7064" lon="1.75644">
        <ele>180.39999389648</ele>
        <time>2014-10-29T11:22:04.000Z</time>
      </trkpt>
      <trkpt lat="48.7064" lon="1.75658">
        <ele>180.60000610352</ele>
        <time>2014-10-29T11:22:10.000Z</time>
      </trkpt>
      <trkpt lat="48.70642" lon="1.75669">
        <ele>180.19999694824</ele>
        <time>2014-10-29T11:22:16.000Z</time>
      </trkpt>
      <trkpt lat="48.70641" lon="1.75675">
        <ele>180.19999694824</ele>
        <time>2014-10-29T11:22:21.000Z</time>
      </trkpt>
      <trkpt lat="48.70641" lon="1.75682">
        <ele>180.19999694824</ele>
        <time>2014-10-29T11:22:54.000Z</time>
      </trkpt>
      <trkpt lat="48.70642" lon="1.75688">
        <ele>180</ele>
        <time>2014-10-29T11:22:56.000Z</time>
      </trkpt>
      <trkpt lat="48.70639" lon="1.75704">
        <ele>179.39999389648</ele>
        <time>2014-10-29T11:23:04.000Z</time>
      </trkpt>
      <trkpt lat="48.70636" lon="1.7571">
        <ele>179</ele>
        <time>2014-10-29T11:23:07.000Z</time>
      </trkpt>
      <trkpt lat="48.70631" lon="1.75718">
        <ele>178.80000305176</ele>
        <time>2014-10-29T11:23:13.000Z</time>
      </trkpt>
      <trkpt lat="48.70625" lon="1.75727">
        <ele>178.39999389648</ele>
        <time>2014-10-29T11:23:18.000Z</time>
      </trkpt>
      <trkpt lat="48.70621" lon="1.75736">
        <ele>178</ele>
        <time>2014-10-29T11:23:24.000Z</time>
      </trkpt>
      <trkpt lat="48.70614" lon="1.75749">
        <ele>178</ele>
        <time>2014-10-29T11:23:33.000Z</time>
      </trkpt>
      <trkpt lat="48.70611" lon="1.75754">
        <ele>178</ele>
        <time>2014-10-29T11:23:37.000Z</time>
      </trkpt>
      <trkpt lat="48.70608" lon="1.75761">
        <ele>177.80000305176</ele>
        <time>2014-10-29T11:23:41.000Z</time>
      </trkpt>
      <trkpt lat="48.70601" lon="1.75774">
        <ele>177.39999389648</ele>
        <time>2014-10-29T11:23:49.000Z</time>
      </trkpt>
      <trkpt lat="48.70596" lon="1.75785">
        <ele>177.39999389648</ele>
        <time>2014-10-29T11:23:56.000Z</time>
      </trkpt>
      <trkpt lat="48.70588" lon="1.75794">
        <ele>177.39999389648</ele>
        <time>2014-10-29T11:24:02.000Z</time>
      </trkpt>
      <trkpt lat="48.70584" lon="1.75802">
        <ele>177.39999389648</ele>
        <time>2014-10-29T11:24:07.000Z</time>
      </trkpt>
      <trkpt lat="48.70578" lon="1.75813">
        <ele>177.80000305176</ele>
        <time>2014-10-29T11:24:14.000Z</time>
      </trkpt>
      <trkpt lat="48.70576" lon="1.75818">
        <ele>178</ele>
        <time>2014-10-29T11:24:18.000Z</time>
      </trkpt>
      <trkpt lat="48.70573" lon="1.75826">
        <ele>178.39999389648</ele>
        <time>2014-10-29T11:24:23.000Z</time>
      </trkpt>
      <trkpt lat="48.70572" lon="1.7583">
        <ele>178.39999389648</ele>
        <time>2014-10-29T11:24:25.000Z</time>
      </trkpt>
      <trkpt lat="48.70567" lon="1.75841">
        <ele>179.19999694824</ele>
        <time>2014-10-29T11:24:32.000Z</time>
      </trkpt>
      <trkpt lat="48.70564" lon="1.75851">
        <ele>179.60000610352</ele>
        <time>2014-10-29T11:24:37.000Z</time>
      </trkpt>
      <trkpt lat="48.70558" lon="1.75865">
        <ele>180.19999694824</ele>
        <time>2014-10-29T11:24:45.000Z</time>
      </trkpt>
      <trkpt lat="48.70557" lon="1.75866">
        <ele>180.19999694824</ele>
        <time>2014-10-29T11:24:46.000Z</time>
      </trkpt>
      <trkpt lat="48.70552" lon="1.75878">
        <ele>180.39999389648</ele>
        <time>2014-10-29T11:24:54.000Z</time>
      </trkpt>
      <trkpt lat="48.70548" lon="1.75887">
        <ele>180.39999389648</ele>
        <time>2014-10-29T11:25:00.000Z</time>
      </trkpt>
      <trkpt lat="48.70542" lon="1.75895">
        <ele>180.60000610352</ele>
        <time>2014-10-29T11:25:05.000Z</time>
      </trkpt>
      <trkpt lat="48.70536" lon="1.75905">
        <ele>180.80000305176</ele>
        <time>2014-10-29T11:25:11.000Z</time>
      </trkpt>
      <trkpt lat="48.70531" lon="1.75913">
        <ele>180.80000305176</ele>
        <time>2014-10-29T11:25:18.000Z</time>
      </trkpt>
      <trkpt lat="48.70527" lon="1.75921">
        <ele>180.80000305176</ele>
        <time>2014-10-29T11:25:24.000Z</time>
      </trkpt>
      <trkpt lat="48.70521" lon="1.75932">
        <ele>180.60000610352</ele>
        <time>2014-10-29T11:25:31.000Z</time>
      </trkpt>
      <trkpt lat="48.70516" lon="1.75937">
        <ele>180.39999389648</ele>
        <time>2014-10-29T11:25:36.000Z</time>
      </trkpt>
      <trkpt lat="48.70509" lon="1.75948">
        <ele>179.80000305176</ele>
        <time>2014-10-29T11:25:42.000Z</time>
      </trkpt>
      <trkpt lat="48.70503" lon="1.75961">
        <ele>179.19999694824</ele>
        <time>2014-10-29T11:25:49.000Z</time>
      </trkpt>
      <trkpt lat="48.70499" lon="1.75968">
        <ele>179</ele>
        <time>2014-10-29T11:25:54.000Z</time>
      </trkpt>
      <trkpt lat="48.70496" lon="1.75975">
        <ele>179</ele>
        <time>2014-10-29T11:25:58.000Z</time>
      </trkpt>
      <trkpt lat="48.70493" lon="1.75986">
        <ele>179</ele>
        <time>2014-10-29T11:26:05.000Z</time>
      </trkpt>
      <trkpt lat="48.70486" lon="1.75997">
        <ele>178.60000610352</ele>
        <time>2014-10-29T11:26:12.000Z</time>
      </trkpt>
      <trkpt lat="48.70483" lon="1.76008">
        <ele>178.19999694824</ele>
        <time>2014-10-29T11:26:18.000Z</time>
      </trkpt>
      <trkpt lat="48.70484" lon="1.76013">
        <ele>177.80000305176</ele>
        <time>2014-10-29T11:26:21.000Z</time>
      </trkpt>
      <trkpt lat="48.70483" lon="1.76023">
        <ele>177.19999694824</ele>
        <time>2014-10-29T11:26:27.000Z</time>
      </trkpt>
      <trkpt lat="48.7048" lon="1.76039">
        <ele>176.39999389648</ele>
        <time>2014-10-29T11:26:35.000Z</time>
      </trkpt>
      <trkpt lat="48.70476" lon="1.76051">
        <ele>176</ele>
        <time>2014-10-29T11:26:41.000Z</time>
      </trkpt>
      <trkpt lat="48.70472" lon="1.76066">
        <ele>175.60000610352</ele>
        <time>2014-10-29T11:26:48.000Z</time>
      </trkpt>
      <trkpt lat="48.70471" lon="1.76072">
        <ele>175.39999389648</ele>
        <time>2014-10-29T11:26:52.000Z</time>
      </trkpt>
      <trkpt lat="48.7047" lon="1.76082">
        <ele>175.19999694824</ele>
        <time>2014-10-29T11:26:58.000Z</time>
      </trkpt>
      <trkpt lat="48.70468" lon="1.76093">
        <ele>175.19999694824</ele>
        <time>2014-10-29T11:27:03.000Z</time>
      </trkpt>
      <trkpt lat="48.70465" lon="1.76104">
        <ele>175.19999694824</ele>
        <time>2014-10-29T11:27:08.000Z</time>
      </trkpt>
      <trkpt lat="48.70462" lon="1.76122">
        <ele>175.19999694824</ele>
        <time>2014-10-29T11:27:16.000Z</time>
      </trkpt>
      <trkpt lat="48.7046" lon="1.76132">
        <ele>175.19999694824</ele>
        <time>2014-10-29T11:27:22.000Z</time>
      </trkpt>
      <trkpt lat="48.70459" lon="1.76143">
        <ele>175</ele>
        <time>2014-10-29T11:27:27.000Z</time>
      </trkpt>
      <trkpt lat="48.7046" lon="1.76145">
        <ele>175</ele>
        <time>2014-10-29T11:27:29.000Z</time>
      </trkpt>
      <trkpt lat="48.70454" lon="1.76159">
        <ele>175</ele>
        <time>2014-10-29T11:27:36.000Z</time>
      </trkpt>
      <trkpt lat="48.70454" lon="1.76163">
        <ele>174.80000305176</ele>
        <time>2014-10-29T11:27:38.000Z</time>
      </trkpt>
      <trkpt lat="48.70455" lon="1.76174">
        <ele>174.39999389648</ele>
        <time>2014-10-29T11:27:45.000Z</time>
      </trkpt>
      <trkpt lat="48.70457" lon="1.76183">
        <ele>174</ele>
        <time>2014-10-29T11:27:51.000Z</time>
      </trkpt>
      <trkpt lat="48.70456" lon="1.76197">
        <ele>173.80000305176</ele>
        <time>2014-10-29T11:27:57.000Z</time>
      </trkpt>
      <trkpt lat="48.70455" lon="1.76202">
        <ele>173.80000305176</ele>
        <time>2014-10-29T11:28:00.000Z</time>
      </trkpt>
      <trkpt lat="48.70455" lon="1.76204">
        <ele>173.60000610352</ele>
        <time>2014-10-29T11:28:02.000Z</time>
      </trkpt>
      <trkpt lat="48.70458" lon="1.76216">
        <ele>173.19999694824</ele>
        <time>2014-10-29T11:28:08.000Z</time>
      </trkpt>
      <trkpt lat="48.70458" lon="1.76227">
        <ele>173</ele>
        <time>2014-10-29T11:28:14.000Z</time>
      </trkpt>
      <trkpt lat="48.70457" lon="1.76238">
        <ele>172.80000305176</ele>
        <time>2014-10-29T11:28:20.000Z</time>
      </trkpt>
      <trkpt lat="48.7046" lon="1.76241">
        <ele>172.60000610352</ele>
        <time>2014-10-29T11:28:23.000Z</time>
      </trkpt>
      <trkpt lat="48.70459" lon="1.76247">
        <ele>173</ele>
        <time>2014-10-29T11:28:27.000Z</time>
      </trkpt>
      <trkpt lat="48.70455" lon="1.76264">
        <ele>173.39999389648</ele>
        <time>2014-10-29T11:28:35.000Z</time>
      </trkpt>
      <trkpt lat="48.70453" lon="1.76267">
        <ele>173.39999389648</ele>
        <time>2014-10-29T11:28:37.000Z</time>
      </trkpt>
      <trkpt lat="48.70454" lon="1.76273">
        <ele>173.39999389648</ele>
        <time>2014-10-29T11:28:41.000Z</time>
      </trkpt>
      <trkpt lat="48.70448" lon="1.7629">
        <ele>173.60000610352</ele>
        <time>2014-10-29T11:28:49.000Z</time>
      </trkpt>
      <trkpt lat="48.70446" lon="1.76302">
        <ele>173.60000610352</ele>
        <time>2014-10-29T11:28:55.000Z</time>
      </trkpt>
      <trkpt lat="48.70445" lon="1.76305">
        <ele>173.60000610352</ele>
        <time>2014-10-29T11:28:56.000Z</time>
      </trkpt>
      <trkpt lat="48.70442" lon="1.76322">
        <ele>173.80000305176</ele>
        <time>2014-10-29T11:29:05.000Z</time>
      </trkpt>
      <trkpt lat="48.70444" lon="1.76337">
        <ele>174.60000610352</ele>
        <time>2014-10-29T11:29:13.000Z</time>
      </trkpt>
      <trkpt lat="48.70449" lon="1.76352">
        <ele>175</ele>
        <time>2014-10-29T11:29:21.000Z</time>
      </trkpt>
      <trkpt lat="48.70448" lon="1.76358">
        <ele>175.39999389648</ele>
        <time>2014-10-29T11:29:25.000Z</time>
      </trkpt>
      <trkpt lat="48.70449" lon="1.76367">
        <ele>175.80000305176</ele>
        <time>2014-10-29T11:29:30.000Z</time>
      </trkpt>
      <trkpt lat="48.70451" lon="1.76377">
        <ele>176.19999694824</ele>
        <time>2014-10-29T11:29:35.000Z</time>
      </trkpt>
      <trkpt lat="48.7045" lon="1.76387">
        <ele>176.80000305176</ele>
        <time>2014-10-29T11:29:40.000Z</time>
      </trkpt>
      <trkpt lat="48.70453" lon="1.76392">
        <ele>176.80000305176</ele>
        <time>2014-10-29T11:29:44.000Z</time>
      </trkpt>
      <trkpt lat="48.70458" lon="1.76399">
        <ele>177</ele>
        <time>2014-10-29T11:29:50.000Z</time>
      </trkpt>
      <trkpt lat="48.70462" lon="1.76406">
        <ele>177.19999694824</ele>
        <time>2014-10-29T11:29:54.000Z</time>
      </trkpt>
      <trkpt lat="48.70463" lon="1.76421">
        <ele>177.19999694824</ele>
        <time>2014-10-29T11:30:03.000Z</time>
      </trkpt>
      <trkpt lat="48.70462" lon="1.76428">
        <ele>177.39999389648</ele>
        <time>2014-10-29T11:30:06.000Z</time>
      </trkpt>
      <trkpt lat="48.70461" lon="1.76438">
        <ele>177.80000305176</ele>
        <time>2014-10-29T11:30:12.000Z</time>
      </trkpt>
      <trkpt lat="48.70461" lon="1.76445">
        <ele>178.19999694824</ele>
        <time>2014-10-29T11:30:16.000Z</time>
      </trkpt>
      <trkpt lat="48.70458" lon="1.76457">
        <ele>179</ele>
        <time>2014-10-29T11:30:22.000Z</time>
      </trkpt>
      <trkpt lat="48.70457" lon="1.76478">
        <ele>180</ele>
        <time>2014-10-29T11:30:32.000Z</time>
      </trkpt>
      <trkpt lat="48.70455" lon="1.76489">
        <ele>180.80000305176</ele>
        <time>2014-10-29T11:30:39.000Z</time>
      </trkpt>
      <trkpt lat="48.70451" lon="1.76501">
        <ele>181.19999694824</ele>
        <time>2014-10-29T11:30:45.000Z</time>
      </trkpt>
      <trkpt lat="48.7045" lon="1.76509">
        <ele>181.19999694824</ele>
        <time>2014-10-29T11:30:49.000Z</time>
      </trkpt>
      <trkpt lat="48.70447" lon="1.76524">
        <ele>181</ele>
        <time>2014-10-29T11:30:57.000Z</time>
      </trkpt>
      <trkpt lat="48.70445" lon="1.76528">
        <ele>181.19999694824</ele>
        <time>2014-10-29T11:30:59.000Z</time>
      </trkpt>
      <trkpt lat="48.70443" lon="1.76538">
        <ele>181.19999694824</ele>
        <time>2014-10-29T11:31:05.000Z</time>
      </trkpt>
      <trkpt lat="48.70441" lon="1.7655">
        <ele>181</ele>
        <time>2014-10-29T11:31:12.000Z</time>
      </trkpt>
      <trkpt lat="48.70439" lon="1.76561">
        <ele>181</ele>
        <time>2014-10-29T11:31:18.000Z</time>
      </trkpt>
      <trkpt lat="48.70436" lon="1.76575">
        <ele>181</ele>
        <time>2014-10-29T11:31:26.000Z</time>
      </trkpt>
      <trkpt lat="48.70431" lon="1.76579">
        <ele>180.60000610352</ele>
        <time>2014-10-29T11:31:34.000Z</time>
      </trkpt>
      <trkpt lat="48.7043" lon="1.76579">
        <ele>180.60000610352</ele>
        <time>2014-10-29T11:31:36.000Z</time>
      </trkpt>
      <trkpt lat="48.70408" lon="1.76596">
        <ele>179.60000610352</ele>
        <time>2014-10-29T11:32:27.000Z</time>
      </trkpt>
      <trkpt lat="48.70404" lon="1.76597">
        <ele>179.60000610352</ele>
        <time>2014-10-29T11:32:29.000Z</time>
      </trkpt>
      <trkpt lat="48.70401" lon="1.76597">
        <ele>179.39999389648</ele>
        <time>2014-10-29T11:32:32.000Z</time>
      </trkpt>
      <trkpt lat="48.70395" lon="1.76601">
        <ele>179.19999694824</ele>
        <time>2014-10-29T11:32:37.000Z</time>
      </trkpt>
      <trkpt lat="48.70391" lon="1.76602">
        <ele>179</ele>
        <time>2014-10-29T11:32:41.000Z</time>
      </trkpt>
      <trkpt lat="48.70386" lon="1.76606">
        <ele>178.80000305176</ele>
        <time>2014-10-29T11:32:45.000Z</time>
      </trkpt>
      <trkpt lat="48.70377" lon="1.76612">
        <ele>178.60000610352</ele>
        <time>2014-10-29T11:32:52.000Z</time>
      </trkpt>
      <trkpt lat="48.7037" lon="1.76616">
        <ele>178.39999389648</ele>
        <time>2014-10-29T11:32:58.000Z</time>
      </trkpt>
      <trkpt lat="48.70362" lon="1.76622">
        <ele>178.19999694824</ele>
        <time>2014-10-29T11:33:05.000Z</time>
      </trkpt>
      <trkpt lat="48.70358" lon="1.76623">
        <ele>178.19999694824</ele>
        <time>2014-10-29T11:33:08.000Z</time>
      </trkpt>
      <trkpt lat="48.70354" lon="1.76626">
        <ele>178</ele>
        <time>2014-10-29T11:33:12.000Z</time>
      </trkpt>
      <trkpt lat="48.70345" lon="1.76633">
        <ele>178.19999694824</ele>
        <time>2014-10-29T11:33:21.000Z</time>
      </trkpt>
      <trkpt lat="48.70344" lon="1.76634">
        <ele>178.19999694824</ele>
        <time>2014-10-29T11:33:22.000Z</time>
      </trkpt>
      <trkpt lat="48.70339" lon="1.76635">
        <ele>178.39999389648</ele>
        <time>2014-10-29T11:33:27.000Z</time>
      </trkpt>
      <trkpt lat="48.70339" lon="1.76631">
        <ele>178.39999389648</ele>
        <time>2014-10-29T11:33:29.000Z</time>
      </trkpt>
      <trkpt lat="48.70339" lon="1.7663">
        <ele>178.39999389648</ele>
        <time>2014-10-29T11:33:32.000Z</time>
      </trkpt>
      <trkpt lat="48.7034" lon="1.76637">
        <ele>178.39999389648</ele>
        <time>2014-10-29T11:34:30.000Z</time>
      </trkpt>
      <trkpt lat="48.70338" lon="1.76644">
        <ele>178.39999389648</ele>
        <time>2014-10-29T11:34:33.000Z</time>
      </trkpt>
      <trkpt lat="48.70336" lon="1.76647">
        <ele>178.39999389648</ele>
        <time>2014-10-29T11:34:35.000Z</time>
      </trkpt>
      <trkpt lat="48.70332" lon="1.76653">
        <ele>178.60000610352</ele>
        <time>2014-10-29T11:34:39.000Z</time>
      </trkpt>
      <trkpt lat="48.70328" lon="1.76663">
        <ele>178.60000610352</ele>
        <time>2014-10-29T11:34:45.000Z</time>
      </trkpt>
      <trkpt lat="48.70329" lon="1.76672">
        <ele>178.60000610352</ele>
        <time>2014-10-29T11:34:49.000Z</time>
      </trkpt>
      <trkpt lat="48.70328" lon="1.76682">
        <ele>178.60000610352</ele>
        <time>2014-10-29T11:34:54.000Z</time>
      </trkpt>
      <trkpt lat="48.7033" lon="1.76686">
        <ele>178.60000610352</ele>
        <time>2014-10-29T11:34:56.000Z</time>
      </trkpt>
      <trkpt lat="48.7033" lon="1.76695">
        <ele>178.60000610352</ele>
        <time>2014-10-29T11:35:01.000Z</time>
      </trkpt>
      <trkpt lat="48.7033" lon="1.76702">
        <ele>178.60000610352</ele>
        <time>2014-10-29T11:35:04.000Z</time>
      </trkpt>
      <trkpt lat="48.7033" lon="1.76717">
        <ele>178.60000610352</ele>
        <time>2014-10-29T11:35:11.000Z</time>
      </trkpt>
      <trkpt lat="48.70329" lon="1.76733">
        <ele>178.60000610352</ele>
        <time>2014-10-29T11:35:18.000Z</time>
      </trkpt>
      <trkpt lat="48.7033" lon="1.76739">
        <ele>178.60000610352</ele>
        <time>2014-10-29T11:35:21.000Z</time>
      </trkpt>
      <trkpt lat="48.70331" lon="1.76753">
        <ele>178.80000305176</ele>
        <time>2014-10-29T11:35:29.000Z</time>
      </trkpt>
      <trkpt lat="48.70333" lon="1.76768">
        <ele>178.80000305176</ele>
        <time>2014-10-29T11:35:37.000Z</time>
      </trkpt>
      <trkpt lat="48.70333" lon="1.76781">
        <ele>179</ele>
        <time>2014-10-29T11:35:43.000Z</time>
      </trkpt>
      <trkpt lat="48.70331" lon="1.76789">
        <ele>179.19999694824</ele>
        <time>2014-10-29T11:35:47.000Z</time>
      </trkpt>
      <trkpt lat="48.70331" lon="1.76803">
        <ele>179.19999694824</ele>
        <time>2014-10-29T11:35:54.000Z</time>
      </trkpt>
      <trkpt lat="48.7033" lon="1.76812">
        <ele>179.19999694824</ele>
        <time>2014-10-29T11:35:59.000Z</time>
      </trkpt>
      <trkpt lat="48.70329" lon="1.76835">
        <ele>179.19999694824</ele>
        <time>2014-10-29T11:36:10.000Z</time>
      </trkpt>
      <trkpt lat="48.70329" lon="1.76856">
        <ele>179.39999389648</ele>
        <time>2014-10-29T11:36:20.000Z</time>
      </trkpt>
      <trkpt lat="48.70329" lon="1.76873">
        <ele>179.60000610352</ele>
        <time>2014-10-29T11:36:29.000Z</time>
      </trkpt>
      <trkpt lat="48.7033" lon="1.76893">
        <ele>180</ele>
        <time>2014-10-29T11:36:40.000Z</time>
      </trkpt>
      <trkpt lat="48.70331" lon="1.76904">
        <ele>180.19999694824</ele>
        <time>2014-10-29T11:36:46.000Z</time>
      </trkpt>
      <trkpt lat="48.70332" lon="1.76918">
        <ele>180.60000610352</ele>
        <time>2014-10-29T11:36:53.000Z</time>
      </trkpt>
      <trkpt lat="48.70332" lon="1.76923">
        <ele>180.60000610352</ele>
        <time>2014-10-29T11:36:55.000Z</time>
      </trkpt>
      <trkpt lat="48.70332" lon="1.7693">
        <ele>180.80000305176</ele>
        <time>2014-10-29T11:36:59.000Z</time>
      </trkpt>
      <trkpt lat="48.70333" lon="1.76952">
        <ele>181.39999389648</ele>
        <time>2014-10-29T11:37:09.000Z</time>
      </trkpt>
      <trkpt lat="48.70332" lon="1.76961">
        <ele>181.60000610352</ele>
        <time>2014-10-29T11:37:14.000Z</time>
      </trkpt>
      <trkpt lat="48.70334" lon="1.76972">
        <ele>181.80000305176</ele>
        <time>2014-10-29T11:37:20.000Z</time>
      </trkpt>
      <trkpt lat="48.70336" lon="1.76991">
        <ele>182.19999694824</ele>
        <time>2014-10-29T11:37:29.000Z</time>
      </trkpt>
      <trkpt lat="48.70338" lon="1.77009">
        <ele>182.19999694824</ele>
        <time>2014-10-29T11:37:38.000Z</time>
      </trkpt>
      <trkpt lat="48.70339" lon="1.77022">
        <ele>182.19999694824</ele>
        <time>2014-10-29T11:37:44.000Z</time>
      </trkpt>
      <trkpt lat="48.70339" lon="1.77033">
        <ele>182.19999694824</ele>
        <time>2014-10-29T11:37:50.000Z</time>
      </trkpt>
      <trkpt lat="48.70339" lon="1.77035">
        <ele>182.19999694824</ele>
        <time>2014-10-29T11:37:51.000Z</time>
      </trkpt>
      <trkpt lat="48.70342" lon="1.77047">
        <ele>182.19999694824</ele>
        <time>2014-10-29T11:37:58.000Z</time>
      </trkpt>
      <trkpt lat="48.70343" lon="1.77055">
        <ele>182.19999694824</ele>
        <time>2014-10-29T11:38:02.000Z</time>
      </trkpt>
      <trkpt lat="48.70344" lon="1.77069">
        <ele>182.19999694824</ele>
        <time>2014-10-29T11:38:10.000Z</time>
      </trkpt>
      <trkpt lat="48.70345" lon="1.77077">
        <ele>182.19999694824</ele>
        <time>2014-10-29T11:38:15.000Z</time>
      </trkpt>
      <trkpt lat="48.70346" lon="1.7709">
        <ele>182.19999694824</ele>
        <time>2014-10-29T11:38:21.000Z</time>
      </trkpt>
      <trkpt lat="48.70346" lon="1.77095">
        <ele>182.19999694824</ele>
        <time>2014-10-29T11:38:23.000Z</time>
      </trkpt>
      <trkpt lat="48.70348" lon="1.77111">
        <ele>182.19999694824</ele>
        <time>2014-10-29T11:38:31.000Z</time>
      </trkpt>
      <trkpt lat="48.70349" lon="1.77125">
        <ele>182</ele>
        <time>2014-10-29T11:38:38.000Z</time>
      </trkpt>
      <trkpt lat="48.70351" lon="1.77138">
        <ele>182</ele>
        <time>2014-10-29T11:38:45.000Z</time>
      </trkpt>
      <trkpt lat="48.70353" lon="1.77149">
        <ele>182</ele>
        <time>2014-10-29T11:38:51.000Z</time>
      </trkpt>
      <trkpt lat="48.70354" lon="1.77155">
        <ele>182</ele>
        <time>2014-10-29T11:38:54.000Z</time>
      </trkpt>
      <trkpt lat="48.70355" lon="1.77173">
        <ele>181.60000610352</ele>
        <time>2014-10-29T11:39:02.000Z</time>
      </trkpt>
      <trkpt lat="48.70357" lon="1.77188">
        <ele>181.19999694824</ele>
        <time>2014-10-29T11:39:10.000Z</time>
      </trkpt>
      <trkpt lat="48.70359" lon="1.77205">
        <ele>180.80000305176</ele>
        <time>2014-10-29T11:39:19.000Z</time>
      </trkpt>
      <trkpt lat="48.70361" lon="1.77218">
        <ele>180.60000610352</ele>
        <time>2014-10-29T11:39:26.000Z</time>
      </trkpt>
      <trkpt lat="48.70361" lon="1.77231">
        <ele>180.19999694824</ele>
        <time>2014-10-29T11:39:33.000Z</time>
      </trkpt>
      <trkpt lat="48.70363" lon="1.77247">
        <ele>180.39999389648</ele>
        <time>2014-10-29T11:39:41.000Z</time>
      </trkpt>
      <trkpt lat="48.70364" lon="1.77265">
        <ele>180.60000610352</ele>
        <time>2014-10-29T11:39:49.000Z</time>
      </trkpt>
      <trkpt lat="48.70365" lon="1.77281">
        <ele>180.80000305176</ele>
        <time>2014-10-29T11:39:57.000Z</time>
      </trkpt>
      <trkpt lat="48.70368" lon="1.77293">
        <ele>181</ele>
        <time>2014-10-29T11:40:04.000Z</time>
      </trkpt>
      <trkpt lat="48.70368" lon="1.77297">
        <ele>181</ele>
        <time>2014-10-29T11:40:06.000Z</time>
      </trkpt>
      <trkpt lat="48.70368" lon="1.77311">
        <ele>181.19999694824</ele>
        <time>2014-10-29T11:40:14.000Z</time>
      </trkpt>
      <trkpt lat="48.70369" lon="1.77322">
        <ele>181.39999389648</ele>
        <time>2014-10-29T11:40:19.000Z</time>
      </trkpt>
      <trkpt lat="48.70369" lon="1.77324">
        <ele>181.39999389648</ele>
        <time>2014-10-29T11:40:20.000Z</time>
      </trkpt>
      <trkpt lat="48.7037" lon="1.77331">
        <ele>181.60000610352</ele>
        <time>2014-10-29T11:40:24.000Z</time>
      </trkpt>
      <trkpt lat="48.70368" lon="1.77335">
        <ele>181.60000610352</ele>
        <time>2014-10-29T11:40:26.000Z</time>
      </trkpt>
      <trkpt lat="48.70367" lon="1.77339">
        <ele>181.80000305176</ele>
        <time>2014-10-29T11:40:28.000Z</time>
      </trkpt>
      <trkpt lat="48.70362" lon="1.77353">
        <ele>182.60000610352</ele>
        <time>2014-10-29T11:40:35.000Z</time>
      </trkpt>
      <trkpt lat="48.70361" lon="1.77358">
        <ele>183</ele>
        <time>2014-10-29T11:40:38.000Z</time>
      </trkpt>
      <trkpt lat="48.70358" lon="1.77365">
        <ele>183.60000610352</ele>
        <time>2014-10-29T11:40:42.000Z</time>
      </trkpt>
      <trkpt lat="48.70356" lon="1.77368">
        <ele>183.80000305176</ele>
        <time>2014-10-29T11:40:44.000Z</time>
      </trkpt>
      <trkpt lat="48.70348" lon="1.7738">
        <ele>184.19999694824</ele>
        <time>2014-10-29T11:40:53.000Z</time>
      </trkpt>
      <trkpt lat="48.70348" lon="1.77381">
        <ele>184.39999389648</ele>
        <time>2014-10-29T11:40:54.000Z</time>
      </trkpt>
      <trkpt lat="48.70345" lon="1.77387">
        <ele>184.60000610352</ele>
        <time>2014-10-29T11:40:57.000Z</time>
      </trkpt>
      <trkpt lat="48.70342" lon="1.77398">
        <ele>185</ele>
        <time>2014-10-29T11:41:03.000Z</time>
      </trkpt>
      <trkpt lat="48.70341" lon="1.77411">
        <ele>185.60000610352</ele>
        <time>2014-10-29T11:41:09.000Z</time>
      </trkpt>
      <trkpt lat="48.70342" lon="1.77415">
        <ele>185.60000610352</ele>
        <time>2014-10-29T11:41:11.000Z</time>
      </trkpt>
      <trkpt lat="48.70342" lon="1.77423">
        <ele>186</ele>
        <time>2014-10-29T11:41:16.000Z</time>
      </trkpt>
      <trkpt lat="48.70343" lon="1.77428">
        <ele>186</ele>
        <time>2014-10-29T11:41:19.000Z</time>
      </trkpt>
      <trkpt lat="48.70344" lon="1.77443">
        <ele>186.39999389648</ele>
        <time>2014-10-29T11:41:27.000Z</time>
      </trkpt>
      <trkpt lat="48.70348" lon="1.7746">
        <ele>187</ele>
        <time>2014-10-29T11:41:34.000Z</time>
      </trkpt>
      <trkpt lat="48.70348" lon="1.77477">
        <ele>187.60000610352</ele>
        <time>2014-10-29T11:41:38.000Z</time>
      </trkpt>
      <trkpt lat="48.70353" lon="1.77507">
        <ele>188.19999694824</ele>
        <time>2014-10-29T11:41:44.000Z</time>
      </trkpt>
      <trkpt lat="48.70358" lon="1.77534">
        <ele>188.39999389648</ele>
        <time>2014-10-29T11:41:49.000Z</time>
      </trkpt>
      <trkpt lat="48.70361" lon="1.77557">
        <ele>188.60000610352</ele>
        <time>2014-10-29T11:41:54.000Z</time>
      </trkpt>
      <trkpt lat="48.70366" lon="1.77581">
        <ele>188.80000305176</ele>
        <time>2014-10-29T11:41:59.000Z</time>
      </trkpt>
      <trkpt lat="48.70366" lon="1.77602">
        <ele>188.60000610352</ele>
        <time>2014-10-29T11:42:03.000Z</time>
      </trkpt>
      <trkpt lat="48.70368" lon="1.77627">
        <ele>188.60000610352</ele>
        <time>2014-10-29T11:42:08.000Z</time>
      </trkpt>
      <trkpt lat="48.70373" lon="1.77647">
        <ele>188.60000610352</ele>
        <time>2014-10-29T11:42:12.000Z</time>
      </trkpt>
      <trkpt lat="48.70377" lon="1.77666">
        <ele>188.39999389648</ele>
        <time>2014-10-29T11:42:16.000Z</time>
      </trkpt>
      <trkpt lat="48.7038" lon="1.77691">
        <ele>188.39999389648</ele>
        <time>2014-10-29T11:42:21.000Z</time>
      </trkpt>
      <trkpt lat="48.70386" lon="1.7772">
        <ele>188.19999694824</ele>
        <time>2014-10-29T11:42:27.000Z</time>
      </trkpt>
      <trkpt lat="48.70387" lon="1.77746">
        <ele>188.19999694824</ele>
        <time>2014-10-29T11:42:32.000Z</time>
      </trkpt>
      <trkpt lat="48.70392" lon="1.77772">
        <ele>188.39999389648</ele>
        <time>2014-10-29T11:42:37.000Z</time>
      </trkpt>
      <trkpt lat="48.70398" lon="1.77794">
        <ele>188.39999389648</ele>
        <time>2014-10-29T11:42:42.000Z</time>
      </trkpt>
      <trkpt lat="48.70399" lon="1.77818">
        <ele>188.39999389648</ele>
        <time>2014-10-29T11:42:47.000Z</time>
      </trkpt>
      <trkpt lat="48.70404" lon="1.77842">
        <ele>188.39999389648</ele>
        <time>2014-10-29T11:42:52.000Z</time>
      </trkpt>
      <trkpt lat="48.70408" lon="1.77855">
        <ele>188.39999389648</ele>
        <time>2014-10-29T11:42:57.000Z</time>
      </trkpt>
      <trkpt lat="48.70408" lon="1.77859">
        <ele>188.39999389648</ele>
        <time>2014-10-29T11:42:59.000Z</time>
      </trkpt>
      <trkpt lat="48.7041" lon="1.77863">
        <ele>188.39999389648</ele>
        <time>2014-10-29T11:43:01.000Z</time>
      </trkpt>
      <trkpt lat="48.70412" lon="1.77875">
        <ele>188.19999694824</ele>
        <time>2014-10-29T11:43:06.000Z</time>
      </trkpt>
      <trkpt lat="48.70412" lon="1.77879">
        <ele>188.19999694824</ele>
        <time>2014-10-29T11:43:08.000Z</time>
      </trkpt>
      <trkpt lat="48.70414" lon="1.7789">
        <ele>188</ele>
        <time>2014-10-29T11:43:14.000Z</time>
      </trkpt>
      <trkpt lat="48.70416" lon="1.77894">
        <ele>188</ele>
        <time>2014-10-29T11:43:16.000Z</time>
      </trkpt>
      <trkpt lat="48.70417" lon="1.77908">
        <ele>187.80000305176</ele>
        <time>2014-10-29T11:43:23.000Z</time>
      </trkpt>
      <trkpt lat="48.70416" lon="1.77919">
        <ele>188</ele>
        <time>2014-10-29T11:43:28.000Z</time>
      </trkpt>
      <trkpt lat="48.70416" lon="1.77921">
        <ele>188</ele>
        <time>2014-10-29T11:43:29.000Z</time>
      </trkpt>
      <trkpt lat="48.70418" lon="1.77928">
        <ele>188</ele>
        <time>2014-10-29T11:43:36.000Z</time>
      </trkpt>
      <trkpt lat="48.70422" lon="1.77935">
        <ele>188.19999694824</ele>
        <time>2014-10-29T11:43:43.000Z</time>
      </trkpt>
      <trkpt lat="48.70423" lon="1.77939">
        <ele>188.19999694824</ele>
        <time>2014-10-29T11:43:44.000Z</time>
      </trkpt>
      <trkpt lat="48.70425" lon="1.77948">
        <ele>188.39999389648</ele>
        <time>2014-10-29T11:43:49.000Z</time>
      </trkpt>
      <trkpt lat="48.70428" lon="1.77961">
        <ele>188.60000610352</ele>
        <time>2014-10-29T11:43:56.000Z</time>
      </trkpt>
      <trkpt lat="48.70431" lon="1.77969">
        <ele>188.60000610352</ele>
        <time>2014-10-29T11:44:00.000Z</time>
      </trkpt>
      <trkpt lat="48.70435" lon="1.77983">
        <ele>189</ele>
        <time>2014-10-29T11:44:07.000Z</time>
      </trkpt>
      <trkpt lat="48.70434" lon="1.77992">
        <ele>189</ele>
        <time>2014-10-29T11:44:11.000Z</time>
      </trkpt>
      <trkpt lat="48.70434" lon="1.78003">
        <ele>189</ele>
        <time>2014-10-29T11:44:17.000Z</time>
      </trkpt>
      <trkpt lat="48.70435" lon="1.78006">
        <ele>189</ele>
        <time>2014-10-29T11:44:19.000Z</time>
      </trkpt>
      <trkpt lat="48.70438" lon="1.78017">
        <ele>189</ele>
        <time>2014-10-29T11:44:25.000Z</time>
      </trkpt>
      <trkpt lat="48.70439" lon="1.78025">
        <ele>189</ele>
        <time>2014-10-29T11:44:29.000Z</time>
      </trkpt>
      <trkpt lat="48.7044" lon="1.7803">
        <ele>189</ele>
        <time>2014-10-29T11:44:32.000Z</time>
      </trkpt>
      <trkpt lat="48.70442" lon="1.78034">
        <ele>189</ele>
        <time>2014-10-29T11:44:35.000Z</time>
      </trkpt>
      <trkpt lat="48.70443" lon="1.78051">
        <ele>189</ele>
        <time>2014-10-29T11:44:42.000Z</time>
      </trkpt>
      <trkpt lat="48.70442" lon="1.7806">
        <ele>189</ele>
        <time>2014-10-29T11:44:48.000Z</time>
      </trkpt>
      <trkpt lat="48.70442" lon="1.78066">
        <ele>189</ele>
        <time>2014-10-29T11:44:51.000Z</time>
      </trkpt>
      <trkpt lat="48.70443" lon="1.7808">
        <ele>189</ele>
        <time>2014-10-29T11:44:58.000Z</time>
      </trkpt>
      <trkpt lat="48.70445" lon="1.78093">
        <ele>188.80000305176</ele>
        <time>2014-10-29T11:45:05.000Z</time>
      </trkpt>
      <trkpt lat="48.70446" lon="1.78099">
        <ele>188.80000305176</ele>
        <time>2014-10-29T11:45:09.000Z</time>
      </trkpt>
      <trkpt lat="48.7045" lon="1.78116">
        <ele>188.80000305176</ele>
        <time>2014-10-29T11:45:17.000Z</time>
      </trkpt>
      <trkpt lat="48.70451" lon="1.78124">
        <ele>188.80000305176</ele>
        <time>2014-10-29T11:45:22.000Z</time>
      </trkpt>
      <trkpt lat="48.70449" lon="1.78132">
        <ele>188.80000305176</ele>
        <time>2014-10-29T11:45:27.000Z</time>
      </trkpt>
      <trkpt lat="48.70451" lon="1.78139">
        <ele>188.80000305176</ele>
        <time>2014-10-29T11:45:31.000Z</time>
      </trkpt>
      <trkpt lat="48.70451" lon="1.7814">
        <ele>188.80000305176</ele>
        <time>2014-10-29T11:45:33.000Z</time>
      </trkpt>
      <trkpt lat="48.70456" lon="1.78144">
        <ele>188.80000305176</ele>
        <time>2014-10-29T11:45:38.000Z</time>
      </trkpt>
      <trkpt lat="48.70459" lon="1.78151">
        <ele>188.80000305176</ele>
        <time>2014-10-29T11:45:44.000Z</time>
      </trkpt>
      <trkpt lat="48.70457" lon="1.78165">
        <ele>188.80000305176</ele>
        <time>2014-10-29T11:45:51.000Z</time>
      </trkpt>
      <trkpt lat="48.70457" lon="1.78167">
        <ele>189</ele>
        <time>2014-10-29T11:45:52.000Z</time>
      </trkpt>
      <trkpt lat="48.70457" lon="1.78176">
        <ele>189</ele>
        <time>2014-10-29T11:45:56.000Z</time>
      </trkpt>
      <trkpt lat="48.70457" lon="1.78195">
        <ele>189</ele>
        <time>2014-10-29T11:46:05.000Z</time>
      </trkpt>
      <trkpt lat="48.70458" lon="1.78198">
        <ele>189</ele>
        <time>2014-10-29T11:46:07.000Z</time>
      </trkpt>
      <trkpt lat="48.70458" lon="1.78201">
        <ele>189</ele>
        <time>2014-10-29T11:46:09.000Z</time>
      </trkpt>
      <trkpt lat="48.70461" lon="1.78216">
        <ele>189</ele>
        <time>2014-10-29T11:46:16.000Z</time>
      </trkpt>
      <trkpt lat="48.70462" lon="1.78229">
        <ele>189</ele>
        <time>2014-10-29T11:46:23.000Z</time>
      </trkpt>
      <trkpt lat="48.70464" lon="1.78242">
        <ele>189</ele>
        <time>2014-10-29T11:46:29.000Z</time>
      </trkpt>
      <trkpt lat="48.70466" lon="1.78252">
        <ele>189</ele>
        <time>2014-10-29T11:46:35.000Z</time>
      </trkpt>
      <trkpt lat="48.70467" lon="1.78263">
        <ele>189</ele>
        <time>2014-10-29T11:46:41.000Z</time>
      </trkpt>
      <trkpt lat="48.70471" lon="1.78277">
        <ele>189</ele>
        <time>2014-10-29T11:46:49.000Z</time>
      </trkpt>
      <trkpt lat="48.70476" lon="1.78293">
        <ele>189</ele>
        <time>2014-10-29T11:46:57.000Z</time>
      </trkpt>
      <trkpt lat="48.70479" lon="1.78302">
        <ele>189</ele>
        <time>2014-10-29T11:47:02.000Z</time>
      </trkpt>
      <trkpt lat="48.70482" lon="1.78314">
        <ele>189</ele>
        <time>2014-10-29T11:47:09.000Z</time>
      </trkpt>
      <trkpt lat="48.70485" lon="1.78318">
        <ele>189</ele>
        <time>2014-10-29T11:47:13.000Z</time>
      </trkpt>
      <trkpt lat="48.70487" lon="1.78325">
        <ele>189</ele>
        <time>2014-10-29T11:47:18.000Z</time>
      </trkpt>
      <trkpt lat="48.70488" lon="1.78341">
        <ele>189</ele>
        <time>2014-10-29T11:47:24.000Z</time>
      </trkpt>
      <trkpt lat="48.70488" lon="1.78356">
        <ele>189</ele>
        <time>2014-10-29T11:47:31.000Z</time>
      </trkpt>
      <trkpt lat="48.70489" lon="1.78369">
        <ele>189</ele>
        <time>2014-10-29T11:47:36.000Z</time>
      </trkpt>
      <trkpt lat="48.70489" lon="1.78374">
        <ele>189</ele>
        <time>2014-10-29T11:47:39.000Z</time>
      </trkpt>
      <trkpt lat="48.7049" lon="1.78383">
        <ele>189</ele>
        <time>2014-10-29T11:47:44.000Z</time>
      </trkpt>
      <trkpt lat="48.70491" lon="1.78393">
        <ele>189.19999694824</ele>
        <time>2014-10-29T11:47:50.000Z</time>
      </trkpt>
      <trkpt lat="48.70492" lon="1.78395">
        <ele>189.19999694824</ele>
        <time>2014-10-29T11:47:51.000Z</time>
      </trkpt>
      <trkpt lat="48.70497" lon="1.78407">
        <ele>189.19999694824</ele>
        <time>2014-10-29T11:47:58.000Z</time>
      </trkpt>
      <trkpt lat="48.70499" lon="1.78414">
        <ele>189.19999694824</ele>
        <time>2014-10-29T11:48:01.000Z</time>
      </trkpt>
      <trkpt lat="48.70501" lon="1.78426">
        <ele>189.19999694824</ele>
        <time>2014-10-29T11:48:06.000Z</time>
      </trkpt>
      <trkpt lat="48.70501" lon="1.78429">
        <ele>189.19999694824</ele>
        <time>2014-10-29T11:48:07.000Z</time>
      </trkpt>
      <trkpt lat="48.70501" lon="1.7845">
        <ele>189.19999694824</ele>
        <time>2014-10-29T11:48:15.000Z</time>
      </trkpt>
      <trkpt lat="48.70502" lon="1.78455">
        <ele>189.19999694824</ele>
        <time>2014-10-29T11:48:17.000Z</time>
      </trkpt>
      <trkpt lat="48.70505" lon="1.78473">
        <ele>189.19999694824</ele>
        <time>2014-10-29T11:48:25.000Z</time>
      </trkpt>
      <trkpt lat="48.70505" lon="1.78479">
        <ele>189.19999694824</ele>
        <time>2014-10-29T11:48:28.000Z</time>
      </trkpt>
      <trkpt lat="48.70504" lon="1.78494">
        <ele>189.19999694824</ele>
        <time>2014-10-29T11:48:35.000Z</time>
      </trkpt>
      <trkpt lat="48.70506" lon="1.78509">
        <ele>189</ele>
        <time>2014-10-29T11:48:41.000Z</time>
      </trkpt>
      <trkpt lat="48.70509" lon="1.78523">
        <ele>188.80000305176</ele>
        <time>2014-10-29T11:48:48.000Z</time>
      </trkpt>
      <trkpt lat="48.70513" lon="1.78528">
        <ele>188.60000610352</ele>
        <time>2014-10-29T11:48:51.000Z</time>
      </trkpt>
      <trkpt lat="48.70513" lon="1.78536">
        <ele>188.60000610352</ele>
        <time>2014-10-29T11:48:55.000Z</time>
      </trkpt>
      <trkpt lat="48.70514" lon="1.78546">
        <ele>188.39999389648</ele>
        <time>2014-10-29T11:49:00.000Z</time>
      </trkpt>
      <trkpt lat="48.70517" lon="1.7856">
        <ele>188.19999694824</ele>
        <time>2014-10-29T11:49:06.000Z</time>
      </trkpt>
      <trkpt lat="48.7052" lon="1.78571">
        <ele>188</ele>
        <time>2014-10-29T11:49:12.000Z</time>
      </trkpt>
      <trkpt lat="48.70522" lon="1.78578">
        <ele>188</ele>
        <time>2014-10-29T11:49:16.000Z</time>
      </trkpt>
      <trkpt lat="48.70523" lon="1.78578">
        <ele>188</ele>
        <time>2014-10-29T11:49:17.000Z</time>
      </trkpt>
      <trkpt lat="48.70523" lon="1.78581">
        <ele>188</ele>
        <time>2014-10-29T11:49:23.000Z</time>
      </trkpt>
      <trkpt lat="48.70524" lon="1.78584">
        <ele>188</ele>
        <time>2014-10-29T11:49:30.000Z</time>
      </trkpt>
      <trkpt lat="48.70526" lon="1.78594">
        <ele>188</ele>
        <time>2014-10-29T11:49:36.000Z</time>
      </trkpt>
      <trkpt lat="48.70526" lon="1.78597">
        <ele>188</ele>
        <time>2014-10-29T11:49:38.000Z</time>
      </trkpt>
      <trkpt lat="48.70528" lon="1.78609">
        <ele>188</ele>
        <time>2014-10-29T11:49:45.000Z</time>
      </trkpt>
      <trkpt lat="48.70529" lon="1.78616">
        <ele>188</ele>
        <time>2014-10-29T11:49:48.000Z</time>
      </trkpt>
      <trkpt lat="48.70529" lon="1.78625">
        <ele>188</ele>
        <time>2014-10-29T11:49:53.000Z</time>
      </trkpt>
      <trkpt lat="48.70529" lon="1.7863">
        <ele>188</ele>
        <time>2014-10-29T11:49:55.000Z</time>
      </trkpt>
      <trkpt lat="48.70531" lon="1.78638">
        <ele>188</ele>
        <time>2014-10-29T11:49:59.000Z</time>
      </trkpt>
      <trkpt lat="48.70531" lon="1.78645">
        <ele>188</ele>
        <time>2014-10-29T11:50:02.000Z</time>
      </trkpt>
      <trkpt lat="48.70534" lon="1.78661">
        <ele>188</ele>
        <time>2014-10-29T11:50:10.000Z</time>
      </trkpt>
      <trkpt lat="48.70535" lon="1.78675">
        <ele>188</ele>
        <time>2014-10-29T11:50:17.000Z</time>
      </trkpt>
      <trkpt lat="48.70535" lon="1.78677">
        <ele>188</ele>
        <time>2014-10-29T11:50:18.000Z</time>
      </trkpt>
      <trkpt lat="48.70539" lon="1.78692">
        <ele>188</ele>
        <time>2014-10-29T11:50:25.000Z</time>
      </trkpt>
      <trkpt lat="48.7054" lon="1.78699">
        <ele>188</ele>
        <time>2014-10-29T11:50:29.000Z</time>
      </trkpt>
      <trkpt lat="48.70541" lon="1.78705">
        <ele>188</ele>
        <time>2014-10-29T11:50:33.000Z</time>
      </trkpt>
      <trkpt lat="48.70543" lon="1.78709">
        <ele>188</ele>
        <time>2014-10-29T11:50:35.000Z</time>
      </trkpt>
      <trkpt lat="48.70541" lon="1.7872">
        <ele>188</ele>
        <time>2014-10-29T11:50:40.000Z</time>
      </trkpt>
      <trkpt lat="48.70545" lon="1.78734">
        <ele>188</ele>
        <time>2014-10-29T11:50:47.000Z</time>
      </trkpt>
      <trkpt lat="48.70547" lon="1.78738">
        <ele>188</ele>
        <time>2014-10-29T11:50:49.000Z</time>
      </trkpt>
      <trkpt lat="48.70549" lon="1.78743">
        <ele>188</ele>
        <time>2014-10-29T11:50:52.000Z</time>
      </trkpt>
      <trkpt lat="48.70554" lon="1.78753">
        <ele>187.80000305176</ele>
        <time>2014-10-29T11:50:59.000Z</time>
      </trkpt>
      <trkpt lat="48.70555" lon="1.78766">
        <ele>187.60000610352</ele>
        <time>2014-10-29T11:51:05.000Z</time>
      </trkpt>
      <trkpt lat="48.70557" lon="1.7878">
        <ele>187.60000610352</ele>
        <time>2014-10-29T11:51:12.000Z</time>
      </trkpt>
      <trkpt lat="48.70558" lon="1.78794">
        <ele>187.60000610352</ele>
        <time>2014-10-29T11:51:18.000Z</time>
      </trkpt>
      <trkpt lat="48.70559" lon="1.78814">
        <ele>187.60000610352</ele>
        <time>2014-10-29T11:51:23.000Z</time>
      </trkpt>
      <trkpt lat="48.70562" lon="1.78837">
        <ele>187.60000610352</ele>
        <time>2014-10-29T11:51:28.000Z</time>
      </trkpt>
      <trkpt lat="48.70566" lon="1.78864">
        <ele>188</ele>
        <time>2014-10-29T11:51:33.000Z</time>
      </trkpt>
      <trkpt lat="48.70569" lon="1.78894">
        <ele>188</ele>
        <time>2014-10-29T11:51:38.000Z</time>
      </trkpt>
      <trkpt lat="48.70575" lon="1.7893">
        <ele>188</ele>
        <time>2014-10-29T11:51:44.000Z</time>
      </trkpt>
      <trkpt lat="48.70576" lon="1.78937">
        <ele>188</ele>
        <time>2014-10-29T11:51:45.000Z</time>
      </trkpt>
      <trkpt lat="48.70581" lon="1.78962">
        <ele>188</ele>
        <time>2014-10-29T11:51:51.000Z</time>
      </trkpt>
      <trkpt lat="48.7058" lon="1.78969">
        <ele>188.19999694824</ele>
        <time>2014-10-29T11:51:55.000Z</time>
      </trkpt>
      <trkpt lat="48.7057" lon="1.7898">
        <ele>188.60000610352</ele>
        <time>2014-10-29T11:52:03.000Z</time>
      </trkpt>
      <trkpt lat="48.70562" lon="1.78986">
        <ele>189</ele>
        <time>2014-10-29T11:52:09.000Z</time>
      </trkpt>
      <trkpt lat="48.70556" lon="1.78991">
        <ele>189.19999694824</ele>
        <time>2014-10-29T11:52:15.000Z</time>
      </trkpt>
      <trkpt lat="48.70549" lon="1.78999">
        <ele>189.39999389648</ele>
        <time>2014-10-29T11:52:22.000Z</time>
      </trkpt>
      <trkpt lat="48.70539" lon="1.79007">
        <ele>189.60000610352</ele>
        <time>2014-10-29T11:52:30.000Z</time>
      </trkpt>
      <trkpt lat="48.70533" lon="1.79014">
        <ele>189.19999694824</ele>
        <time>2014-10-29T11:52:36.000Z</time>
      </trkpt>
      <trkpt lat="48.70528" lon="1.7902">
        <ele>189</ele>
        <time>2014-10-29T11:52:41.000Z</time>
      </trkpt>
      <trkpt lat="48.70519" lon="1.79027">
        <ele>188.60000610352</ele>
        <time>2014-10-29T11:52:47.000Z</time>
      </trkpt>
      <trkpt lat="48.70511" lon="1.79034">
        <ele>188.19999694824</ele>
        <time>2014-10-29T11:52:53.000Z</time>
      </trkpt>
      <trkpt lat="48.70505" lon="1.79038">
        <ele>188</ele>
        <time>2014-10-29T11:52:56.000Z</time>
      </trkpt>
      <trkpt lat="48.70487" lon="1.79056">
        <ele>188</ele>
        <time>2014-10-29T11:53:02.000Z</time>
      </trkpt>
      <trkpt lat="48.70467" lon="1.79077">
        <ele>189</ele>
        <time>2014-10-29T11:53:08.000Z</time>
      </trkpt>
      <trkpt lat="48.70446" lon="1.79096">
        <ele>189.80000305176</ele>
        <time>2014-10-29T11:53:14.000Z</time>
      </trkpt>
      <trkpt lat="48.70443" lon="1.79099">
        <ele>189.60000610352</ele>
        <time>2014-10-29T11:53:15.000Z</time>
      </trkpt>
      <trkpt lat="48.70436" lon="1.79105">
        <ele>189.60000610352</ele>
        <time>2014-10-29T11:53:17.000Z</time>
      </trkpt>
      <trkpt lat="48.70415" lon="1.79129">
        <ele>189</ele>
        <time>2014-10-29T11:53:24.000Z</time>
      </trkpt>
      <trkpt lat="48.70398" lon="1.79145">
        <ele>189</ele>
        <time>2014-10-29T11:53:29.000Z</time>
      </trkpt>
      <trkpt lat="48.70382" lon="1.7916">
        <ele>189</ele>
        <time>2014-10-29T11:53:34.000Z</time>
      </trkpt>
      <trkpt lat="48.70367" lon="1.79171">
        <ele>188.80000305176</ele>
        <time>2014-10-29T11:53:39.000Z</time>
      </trkpt>
      <trkpt lat="48.7035" lon="1.79187">
        <ele>189.39999389648</ele>
        <time>2014-10-29T11:53:44.000Z</time>
      </trkpt>
      <trkpt lat="48.70331" lon="1.79209">
        <ele>190.39999389648</ele>
        <time>2014-10-29T11:53:50.000Z</time>
      </trkpt>
      <trkpt lat="48.70314" lon="1.79221">
        <ele>190.39999389648</ele>
        <time>2014-10-29T11:53:55.000Z</time>
      </trkpt>
      <trkpt lat="48.703" lon="1.79233">
        <ele>190.19999694824</ele>
        <time>2014-10-29T11:53:59.000Z</time>
      </trkpt>
      <trkpt lat="48.70284" lon="1.7925">
        <ele>190</ele>
        <time>2014-10-29T11:54:04.000Z</time>
      </trkpt>
      <trkpt lat="48.70274" lon="1.7926">
        <ele>190.19999694824</ele>
        <time>2014-10-29T11:54:07.000Z</time>
      </trkpt>
      <trkpt lat="48.70256" lon="1.79277">
        <ele>190.60000610352</ele>
        <time>2014-10-29T11:54:12.000Z</time>
      </trkpt>
      <trkpt lat="48.70233" lon="1.79295">
        <ele>190.80000305176</ele>
        <time>2014-10-29T11:54:18.000Z</time>
      </trkpt>
      <trkpt lat="48.70227" lon="1.793">
        <ele>190.80000305176</ele>
        <time>2014-10-29T11:54:20.000Z</time>
      </trkpt>
      <trkpt lat="48.70203" lon="1.79323">
        <ele>190.19999694824</ele>
        <time>2014-10-29T11:54:27.000Z</time>
      </trkpt>
      <trkpt lat="48.70186" lon="1.79335">
        <ele>189.80000305176</ele>
        <time>2014-10-29T11:54:32.000Z</time>
      </trkpt>
      <trkpt lat="48.70174" lon="1.79346">
        <ele>189.60000610352</ele>
        <time>2014-10-29T11:54:36.000Z</time>
      </trkpt>
      <trkpt lat="48.70153" lon="1.79366">
        <ele>189</ele>
        <time>2014-10-29T11:54:42.000Z</time>
      </trkpt>
      <trkpt lat="48.70134" lon="1.7938">
        <ele>189</ele>
        <time>2014-10-29T11:54:48.000Z</time>
      </trkpt>
      <trkpt lat="48.7012" lon="1.79395">
        <ele>189</ele>
        <time>2014-10-29T11:54:53.000Z</time>
      </trkpt>
      <trkpt lat="48.70112" lon="1.79402">
        <ele>189</ele>
        <time>2014-10-29T11:54:56.000Z</time>
      </trkpt>
      <trkpt lat="48.70097" lon="1.79416">
        <ele>188.80000305176</ele>
        <time>2014-10-29T11:55:01.000Z</time>
      </trkpt>
      <trkpt lat="48.70079" lon="1.79433">
        <ele>188.39999389648</ele>
        <time>2014-10-29T11:55:06.000Z</time>
      </trkpt>
      <trkpt lat="48.70061" lon="1.79447">
        <ele>188</ele>
        <time>2014-10-29T11:55:11.000Z</time>
      </trkpt>
      <trkpt lat="48.7005" lon="1.79456">
        <ele>188</ele>
        <time>2014-10-29T11:55:14.000Z</time>
      </trkpt>
      <trkpt lat="48.70037" lon="1.79466">
        <ele>188</ele>
        <time>2014-10-29T11:55:18.000Z</time>
      </trkpt>
      <trkpt lat="48.70014" lon="1.79487">
        <ele>187.60000610352</ele>
        <time>2014-10-29T11:55:25.000Z</time>
      </trkpt>
      <trkpt lat="48.69997" lon="1.79503">
        <ele>186.80000305176</ele>
        <time>2014-10-29T11:55:30.000Z</time>
      </trkpt>
      <trkpt lat="48.69977" lon="1.79522">
        <ele>185.80000305176</ele>
        <time>2014-10-29T11:55:36.000Z</time>
      </trkpt>
      <trkpt lat="48.69959" lon="1.79538">
        <ele>185.19999694824</ele>
        <time>2014-10-29T11:55:41.000Z</time>
      </trkpt>
      <trkpt lat="48.69946" lon="1.79551">
        <ele>185</ele>
        <time>2014-10-29T11:55:45.000Z</time>
      </trkpt>
      <trkpt lat="48.69927" lon="1.79565">
        <ele>184.80000305176</ele>
        <time>2014-10-29T11:55:51.000Z</time>
      </trkpt>
      <trkpt lat="48.69909" lon="1.79582">
        <ele>184.80000305176</ele>
        <time>2014-10-29T11:55:57.000Z</time>
      </trkpt>
      <trkpt lat="48.69893" lon="1.79597">
        <ele>184.80000305176</ele>
        <time>2014-10-29T11:56:02.000Z</time>
      </trkpt>
      <trkpt lat="48.69871" lon="1.79618">
        <ele>184.39999389648</ele>
        <time>2014-10-29T11:56:09.000Z</time>
      </trkpt>
      <trkpt lat="48.69852" lon="1.79637">
        <ele>183.80000305176</ele>
        <time>2014-10-29T11:56:14.000Z</time>
      </trkpt>
      <trkpt lat="48.69844" lon="1.79646">
        <ele>183.80000305176</ele>
        <time>2014-10-29T11:56:16.000Z</time>
      </trkpt>
      <trkpt lat="48.69825" lon="1.79661">
        <ele>183.80000305176</ele>
        <time>2014-10-29T11:56:20.000Z</time>
      </trkpt>
      <trkpt lat="48.69784" lon="1.79698">
        <ele>183.80000305176</ele>
        <time>2014-10-29T11:56:28.000Z</time>
      </trkpt>
      <trkpt lat="48.69752" lon="1.79728">
        <ele>183.60000610352</ele>
        <time>2014-10-29T11:56:34.000Z</time>
      </trkpt>
      <trkpt lat="48.69741" lon="1.79737">
        <ele>183.39999389648</ele>
        <time>2014-10-29T11:56:36.000Z</time>
      </trkpt>
      <trkpt lat="48.69716" lon="1.79751">
        <ele>183</ele>
        <time>2014-10-29T11:56:41.000Z</time>
      </trkpt>
      <trkpt lat="48.69707" lon="1.79755">
        <ele>182.80000305176</ele>
        <time>2014-10-29T11:56:43.000Z</time>
      </trkpt>
      <trkpt lat="48.69692" lon="1.79761">
        <ele>183.19999694824</ele>
        <time>2014-10-29T11:56:47.000Z</time>
      </trkpt>
      <trkpt lat="48.6966" lon="1.79776">
        <ele>184.39999389648</ele>
        <time>2014-10-29T11:56:56.000Z</time>
      </trkpt>
      <trkpt lat="48.69644" lon="1.79784">
        <ele>185.19999694824</ele>
        <time>2014-10-29T11:57:01.000Z</time>
      </trkpt>
      <trkpt lat="48.69629" lon="1.79792">
        <ele>185.19999694824</ele>
        <time>2014-10-29T11:57:06.000Z</time>
      </trkpt>
      <trkpt lat="48.69618" lon="1.79799">
        <ele>185.39999389648</ele>
        <time>2014-10-29T11:57:11.000Z</time>
      </trkpt>
      <trkpt lat="48.69604" lon="1.79805">
        <ele>185.60000610352</ele>
        <time>2014-10-29T11:57:19.000Z</time>
      </trkpt>
      <trkpt lat="48.69594" lon="1.79809">
        <ele>186.39999389648</ele>
        <time>2014-10-29T11:57:25.000Z</time>
      </trkpt>
      <trkpt lat="48.69584" lon="1.79813">
        <ele>187</ele>
        <time>2014-10-29T11:57:32.000Z</time>
      </trkpt>
      <trkpt lat="48.69575" lon="1.79818">
        <ele>187.39999389648</ele>
        <time>2014-10-29T11:57:39.000Z</time>
      </trkpt>
      <trkpt lat="48.69566" lon="1.79827">
        <ele>187.80000305176</ele>
        <time>2014-10-29T11:57:46.000Z</time>
      </trkpt>
      <trkpt lat="48.69559" lon="1.79835">
        <ele>188.19999694824</ele>
        <time>2014-10-29T11:57:53.000Z</time>
      </trkpt>
      <trkpt lat="48.69549" lon="1.79841">
        <ele>188.80000305176</ele>
        <time>2014-10-29T11:58:00.000Z</time>
      </trkpt>
      <trkpt lat="48.69543" lon="1.79841">
        <ele>189.19999694824</ele>
        <time>2014-10-29T11:58:04.000Z</time>
      </trkpt>
      <trkpt lat="48.69537" lon="1.79843">
        <ele>189.19999694824</ele>
        <time>2014-10-29T11:58:08.000Z</time>
      </trkpt>
      <trkpt lat="48.69535" lon="1.79844">
        <ele>189</ele>
        <time>2014-10-29T11:58:10.000Z</time>
      </trkpt>
      <trkpt lat="48.69524" lon="1.79846">
        <ele>188.80000305176</ele>
        <time>2014-10-29T11:58:18.000Z</time>
      </trkpt>
      <trkpt lat="48.69514" lon="1.79849">
        <ele>188.60000610352</ele>
        <time>2014-10-29T11:58:25.000Z</time>
      </trkpt>
      <trkpt lat="48.69502" lon="1.79856">
        <ele>188</ele>
        <time>2014-10-29T11:58:33.000Z</time>
      </trkpt>
      <trkpt lat="48.69493" lon="1.79861">
        <ele>187.39999389648</ele>
        <time>2014-10-29T11:58:40.000Z</time>
      </trkpt>
      <trkpt lat="48.69483" lon="1.79867">
        <ele>187</ele>
        <time>2014-10-29T11:58:47.000Z</time>
      </trkpt>
      <trkpt lat="48.69476" lon="1.79869">
        <ele>186.80000305176</ele>
        <time>2014-10-29T11:58:52.000Z</time>
      </trkpt>
      <trkpt lat="48.69469" lon="1.79874">
        <ele>186.60000610352</ele>
        <time>2014-10-29T11:58:57.000Z</time>
      </trkpt>
      <trkpt lat="48.69457" lon="1.79881">
        <ele>186.19999694824</ele>
        <time>2014-10-29T11:59:05.000Z</time>
      </trkpt>
      <trkpt lat="48.69446" lon="1.79885">
        <ele>185.80000305176</ele>
        <time>2014-10-29T11:59:13.000Z</time>
      </trkpt>
      <trkpt lat="48.69435" lon="1.79892">
        <ele>185.39999389648</ele>
        <time>2014-10-29T11:59:21.000Z</time>
      </trkpt>
      <trkpt lat="48.69435" lon="1.79893">
        <ele>185.39999389648</ele>
        <time>2014-10-29T11:59:22.000Z</time>
      </trkpt>
      <trkpt lat="48.69426" lon="1.79896">
        <ele>185</ele>
        <time>2014-10-29T11:59:28.000Z</time>
      </trkpt>
      <trkpt lat="48.69425" lon="1.79896">
        <ele>184.80000305176</ele>
        <time>2014-10-29T11:59:29.000Z</time>
      </trkpt>
      <trkpt lat="48.69413" lon="1.79903">
        <ele>184</ele>
        <time>2014-10-29T11:59:38.000Z</time>
      </trkpt>
      <trkpt lat="48.69407" lon="1.79907">
        <ele>183.39999389648</ele>
        <time>2014-10-29T11:59:44.000Z</time>
      </trkpt>
      <trkpt lat="48.69399" lon="1.7991">
        <ele>183</ele>
        <time>2014-10-29T11:59:50.000Z</time>
      </trkpt>
      <trkpt lat="48.69397" lon="1.79911">
        <ele>182.80000305176</ele>
        <time>2014-10-29T11:59:51.000Z</time>
      </trkpt>
      <trkpt lat="48.69386" lon="1.79913">
        <ele>182.19999694824</ele>
        <time>2014-10-29T11:59:59.000Z</time>
      </trkpt>
      <trkpt lat="48.69375" lon="1.79916">
        <ele>181.39999389648</ele>
        <time>2014-10-29T12:00:06.000Z</time>
      </trkpt>
      <trkpt lat="48.69365" lon="1.79917">
        <ele>181</ele>
        <time>2014-10-29T12:00:12.000Z</time>
      </trkpt>
      <trkpt lat="48.69356" lon="1.79922">
        <ele>180.39999389648</ele>
        <time>2014-10-29T12:00:18.000Z</time>
      </trkpt>
      <trkpt lat="48.69345" lon="1.79929">
        <ele>180.39999389648</ele>
        <time>2014-10-29T12:00:26.000Z</time>
      </trkpt>
      <trkpt lat="48.69336" lon="1.79931">
        <ele>180.60000610352</ele>
        <time>2014-10-29T12:00:33.000Z</time>
      </trkpt>
      <trkpt lat="48.69326" lon="1.79937">
        <ele>180.80000305176</ele>
        <time>2014-10-29T12:00:40.000Z</time>
      </trkpt>
      <trkpt lat="48.69316" lon="1.79943">
        <ele>181</ele>
        <time>2014-10-29T12:00:47.000Z</time>
      </trkpt>
      <trkpt lat="48.69306" lon="1.79947">
        <ele>181.19999694824</ele>
        <time>2014-10-29T12:00:54.000Z</time>
      </trkpt>
      <trkpt lat="48.69296" lon="1.79952">
        <ele>181.39999389648</ele>
        <time>2014-10-29T12:01:02.000Z</time>
      </trkpt>
      <trkpt lat="48.69286" lon="1.79958">
        <ele>181.60000610352</ele>
        <time>2014-10-29T12:01:09.000Z</time>
      </trkpt>
      <trkpt lat="48.69275" lon="1.79964">
        <ele>181.60000610352</ele>
        <time>2014-10-29T12:01:17.000Z</time>
      </trkpt>
      <trkpt lat="48.69264" lon="1.7997">
        <ele>182.19999694824</ele>
        <time>2014-10-29T12:01:25.000Z</time>
      </trkpt>
      <trkpt lat="48.69255" lon="1.79974">
        <ele>182.80000305176</ele>
        <time>2014-10-29T12:01:32.000Z</time>
      </trkpt>
      <trkpt lat="48.69245" lon="1.79978">
        <ele>183.39999389648</ele>
        <time>2014-10-29T12:01:39.000Z</time>
      </trkpt>
      <trkpt lat="48.69239" lon="1.79981">
        <ele>183.80000305176</ele>
        <time>2014-10-29T12:01:46.000Z</time>
      </trkpt>
      <trkpt lat="48.69229" lon="1.79986">
        <ele>184.60000610352</ele>
        <time>2014-10-29T12:01:54.000Z</time>
      </trkpt>
      <trkpt lat="48.6922" lon="1.79988">
        <ele>185.19999694824</ele>
        <time>2014-10-29T12:02:00.000Z</time>
      </trkpt>
      <trkpt lat="48.6921" lon="1.79992">
        <ele>185.80000305176</ele>
        <time>2014-10-29T12:02:07.000Z</time>
      </trkpt>
      <trkpt lat="48.69196" lon="1.79996">
        <ele>186.80000305176</ele>
        <time>2014-10-29T12:02:16.000Z</time>
      </trkpt>
      <trkpt lat="48.69183" lon="1.80002">
        <ele>187.60000610352</ele>
        <time>2014-10-29T12:02:25.000Z</time>
      </trkpt>
      <trkpt lat="48.69167" lon="1.80012">
        <ele>187.39999389648</ele>
        <time>2014-10-29T12:02:36.000Z</time>
      </trkpt>
      <trkpt lat="48.69157" lon="1.80019">
        <ele>187.19999694824</ele>
        <time>2014-10-29T12:02:44.000Z</time>
      </trkpt>
      <trkpt lat="48.69146" lon="1.80027">
        <ele>187.19999694824</ele>
        <time>2014-10-29T12:02:52.000Z</time>
      </trkpt>
      <trkpt lat="48.69134" lon="1.80031">
        <ele>187</ele>
        <time>2014-10-29T12:03:01.000Z</time>
      </trkpt>
      <trkpt lat="48.69131" lon="1.80033">
        <ele>187</ele>
        <time>2014-10-29T12:03:04.000Z</time>
      </trkpt>
      <trkpt lat="48.69117" lon="1.8004">
        <ele>187</ele>
        <time>2014-10-29T12:03:13.000Z</time>
      </trkpt>
      <trkpt lat="48.69108" lon="1.80043">
        <ele>187</ele>
        <time>2014-10-29T12:03:19.000Z</time>
      </trkpt>
      <trkpt lat="48.69107" lon="1.80044">
        <ele>187</ele>
        <time>2014-10-29T12:03:20.000Z</time>
      </trkpt>
      <trkpt lat="48.69097" lon="1.80049">
        <ele>186.80000305176</ele>
        <time>2014-10-29T12:03:27.000Z</time>
      </trkpt>
      <trkpt lat="48.69088" lon="1.80051">
        <ele>186.80000305176</ele>
        <time>2014-10-29T12:03:33.000Z</time>
      </trkpt>
      <trkpt lat="48.69077" lon="1.80054">
        <ele>186.60000610352</ele>
        <time>2014-10-29T12:03:40.000Z</time>
      </trkpt>
      <trkpt lat="48.69065" lon="1.8006">
        <ele>186.39999389648</ele>
        <time>2014-10-29T12:03:48.000Z</time>
      </trkpt>
      <trkpt lat="48.69063" lon="1.8006">
        <ele>186.39999389648</ele>
        <time>2014-10-29T12:03:49.000Z</time>
      </trkpt>
      <trkpt lat="48.69052" lon="1.80066">
        <ele>186.19999694824</ele>
        <time>2014-10-29T12:03:57.000Z</time>
      </trkpt>
      <trkpt lat="48.69042" lon="1.80071">
        <ele>186</ele>
        <time>2014-10-29T12:04:05.000Z</time>
      </trkpt>
      <trkpt lat="48.69033" lon="1.80074">
        <ele>186</ele>
        <time>2014-10-29T12:04:11.000Z</time>
      </trkpt>
      <trkpt lat="48.69026" lon="1.80077">
        <ele>186</ele>
        <time>2014-10-29T12:04:16.000Z</time>
      </trkpt>
      <trkpt lat="48.69017" lon="1.8008">
        <ele>186.19999694824</ele>
        <time>2014-10-29T12:04:22.000Z</time>
      </trkpt>
      <trkpt lat="48.69007" lon="1.80083">
        <ele>186.60000610352</ele>
        <time>2014-10-29T12:04:30.000Z</time>
      </trkpt>
      <trkpt lat="48.69" lon="1.80092">
        <ele>187</ele>
        <time>2014-10-29T12:04:37.000Z</time>
      </trkpt>
      <trkpt lat="48.69" lon="1.80108">
        <ele>187</ele>
        <time>2014-10-29T12:04:45.000Z</time>
      </trkpt>
      <trkpt lat="48.69" lon="1.80123">
        <ele>187</ele>
        <time>2014-10-29T12:04:52.000Z</time>
      </trkpt>
      <trkpt lat="48.69" lon="1.80143">
        <ele>186.80000305176</ele>
        <time>2014-10-29T12:05:01.000Z</time>
      </trkpt>
      <trkpt lat="48.68999" lon="1.8016">
        <ele>186.60000610352</ele>
        <time>2014-10-29T12:05:10.000Z</time>
      </trkpt>
      <trkpt lat="48.68997" lon="1.80174">
        <ele>186.80000305176</ele>
        <time>2014-10-29T12:05:17.000Z</time>
      </trkpt>
      <trkpt lat="48.68993" lon="1.80192">
        <ele>187</ele>
        <time>2014-10-29T12:05:26.000Z</time>
      </trkpt>
      <trkpt lat="48.68991" lon="1.80207">
        <ele>187.39999389648</ele>
        <time>2014-10-29T12:05:33.000Z</time>
      </trkpt>
      <trkpt lat="48.6899" lon="1.8022">
        <ele>187.39999389648</ele>
        <time>2014-10-29T12:05:40.000Z</time>
      </trkpt>
      <trkpt lat="48.6899" lon="1.80222">
        <ele>187.60000610352</ele>
        <time>2014-10-29T12:05:43.000Z</time>
      </trkpt>
      <trkpt lat="48.6899" lon="1.80235">
        <ele>187.60000610352</ele>
        <time>2014-10-29T12:06:02.000Z</time>
      </trkpt>
      <trkpt lat="48.6899" lon="1.80249">
        <ele>187.60000610352</ele>
        <time>2014-10-29T12:06:08.000Z</time>
      </trkpt>
      <trkpt lat="48.6899" lon="1.80259">
        <ele>187.39999389648</ele>
        <time>2014-10-29T12:06:13.000Z</time>
      </trkpt>
      <trkpt lat="48.68988" lon="1.80274">
        <ele>187.39999389648</ele>
        <time>2014-10-29T12:06:21.000Z</time>
      </trkpt>
      <trkpt lat="48.68987" lon="1.80289">
        <ele>187.19999694824</ele>
        <time>2014-10-29T12:06:28.000Z</time>
      </trkpt>
      <trkpt lat="48.68985" lon="1.80305">
        <ele>187.19999694824</ele>
        <time>2014-10-29T12:06:35.000Z</time>
      </trkpt>
      <trkpt lat="48.68984" lon="1.80323">
        <ele>187.19999694824</ele>
        <time>2014-10-29T12:06:44.000Z</time>
      </trkpt>
      <trkpt lat="48.68983" lon="1.80331">
        <ele>187.39999389648</ele>
        <time>2014-10-29T12:06:48.000Z</time>
      </trkpt>
      <trkpt lat="48.68981" lon="1.80336">
        <ele>187.39999389648</ele>
        <time>2014-10-29T12:06:51.000Z</time>
      </trkpt>
      <trkpt lat="48.68979" lon="1.80344">
        <ele>187.39999389648</ele>
        <time>2014-10-29T12:06:56.000Z</time>
      </trkpt>
      <trkpt lat="48.68978" lon="1.80359">
        <ele>187.60000610352</ele>
        <time>2014-10-29T12:07:04.000Z</time>
      </trkpt>
      <trkpt lat="48.68977" lon="1.80373">
        <ele>187.60000610352</ele>
        <time>2014-10-29T12:07:11.000Z</time>
      </trkpt>
      <trkpt lat="48.68976" lon="1.80395">
        <ele>187.60000610352</ele>
        <time>2014-10-29T12:07:21.000Z</time>
      </trkpt>
      <trkpt lat="48.68975" lon="1.80408">
        <ele>187.60000610352</ele>
        <time>2014-10-29T12:07:27.000Z</time>
      </trkpt>
      <trkpt lat="48.68973" lon="1.80429">
        <ele>187.19999694824</ele>
        <time>2014-10-29T12:07:36.000Z</time>
      </trkpt>
      <trkpt lat="48.68973" lon="1.80433">
        <ele>187</ele>
        <time>2014-10-29T12:07:38.000Z</time>
      </trkpt>
      <trkpt lat="48.6897" lon="1.80451">
        <ele>186.80000305176</ele>
        <time>2014-10-29T12:07:47.000Z</time>
      </trkpt>
      <trkpt lat="48.68968" lon="1.80466">
        <ele>186.80000305176</ele>
        <time>2014-10-29T12:07:54.000Z</time>
      </trkpt>
      <trkpt lat="48.68968" lon="1.8048">
        <ele>186.60000610352</ele>
        <time>2014-10-29T12:08:01.000Z</time>
      </trkpt>
      <trkpt lat="48.68967" lon="1.80495">
        <ele>186.60000610352</ele>
        <time>2014-10-29T12:08:07.000Z</time>
      </trkpt>
      <trkpt lat="48.68966" lon="1.80516">
        <ele>186.60000610352</ele>
        <time>2014-10-29T12:08:16.000Z</time>
      </trkpt>
      <trkpt lat="48.68966" lon="1.80535">
        <ele>186.80000305176</ele>
        <time>2014-10-29T12:08:25.000Z</time>
      </trkpt>
      <trkpt lat="48.68963" lon="1.8056">
        <ele>187.19999694824</ele>
        <time>2014-10-29T12:08:36.000Z</time>
      </trkpt>
      <trkpt lat="48.68962" lon="1.80578">
        <ele>187.39999389648</ele>
        <time>2014-10-29T12:08:44.000Z</time>
      </trkpt>
      <trkpt lat="48.6896" lon="1.80593">
        <ele>187.60000610352</ele>
        <time>2014-10-29T12:08:51.000Z</time>
      </trkpt>
      <trkpt lat="48.68959" lon="1.80603">
        <ele>187.60000610352</ele>
        <time>2014-10-29T12:08:55.000Z</time>
      </trkpt>
      <trkpt lat="48.68957" lon="1.80621">
        <ele>187.80000305176</ele>
        <time>2014-10-29T12:09:03.000Z</time>
      </trkpt>
      <trkpt lat="48.68953" lon="1.80642">
        <ele>188</ele>
        <time>2014-10-29T12:09:12.000Z</time>
      </trkpt>
      <trkpt lat="48.68953" lon="1.80657">
        <ele>188</ele>
        <time>2014-10-29T12:09:19.000Z</time>
      </trkpt>
      <trkpt lat="48.68952" lon="1.80666">
        <ele>188</ele>
        <time>2014-10-29T12:09:24.000Z</time>
      </trkpt>
      <trkpt lat="48.68951" lon="1.80681">
        <ele>187.80000305176</ele>
        <time>2014-10-29T12:09:32.000Z</time>
      </trkpt>
      <trkpt lat="48.68949" lon="1.80696">
        <ele>187.60000610352</ele>
        <time>2014-10-29T12:09:38.000Z</time>
      </trkpt>
      <trkpt lat="48.68948" lon="1.80712">
        <ele>187.19999694824</ele>
        <time>2014-10-29T12:09:45.000Z</time>
      </trkpt>
      <trkpt lat="48.68946" lon="1.80732">
        <ele>186.80000305176</ele>
        <time>2014-10-29T12:09:53.000Z</time>
      </trkpt>
      <trkpt lat="48.68945" lon="1.80749">
        <ele>186.60000610352</ele>
        <time>2014-10-29T12:10:00.000Z</time>
      </trkpt>
      <trkpt lat="48.68945" lon="1.80764">
        <ele>186.39999389648</ele>
        <time>2014-10-29T12:10:06.000Z</time>
      </trkpt>
      <trkpt lat="48.68943" lon="1.80783">
        <ele>186.39999389648</ele>
        <time>2014-10-29T12:10:14.000Z</time>
      </trkpt>
      <trkpt lat="48.6894" lon="1.80799">
        <ele>186.19999694824</ele>
        <time>2014-10-29T12:10:21.000Z</time>
      </trkpt>
      <trkpt lat="48.68938" lon="1.80817">
        <ele>186</ele>
        <time>2014-10-29T12:10:29.000Z</time>
      </trkpt>
      <trkpt lat="48.68937" lon="1.80826">
        <ele>185.80000305176</ele>
        <time>2014-10-29T12:10:33.000Z</time>
      </trkpt>
      <trkpt lat="48.68936" lon="1.80838">
        <ele>185.19999694824</ele>
        <time>2014-10-29T12:10:39.000Z</time>
      </trkpt>
      <trkpt lat="48.68934" lon="1.80854">
        <ele>184.39999389648</ele>
        <time>2014-10-29T12:10:47.000Z</time>
      </trkpt>
      <trkpt lat="48.68933" lon="1.80871">
        <ele>183.60000610352</ele>
        <time>2014-10-29T12:10:56.000Z</time>
      </trkpt>
      <trkpt lat="48.68932" lon="1.80871">
        <ele>183.60000610352</ele>
        <time>2014-10-29T12:10:57.000Z</time>
      </trkpt>
      <trkpt lat="48.68929" lon="1.80879">
        <ele>183.19999694824</ele>
        <time>2014-10-29T12:11:04.000Z</time>
      </trkpt>
      <trkpt lat="48.68927" lon="1.8089">
        <ele>182.60000610352</ele>
        <time>2014-10-29T12:11:09.000Z</time>
      </trkpt>
      <trkpt lat="48.68925" lon="1.80898">
        <ele>182.19999694824</ele>
        <time>2014-10-29T12:11:13.000Z</time>
      </trkpt>
      <trkpt lat="48.68922" lon="1.8091">
        <ele>182</ele>
        <time>2014-10-29T12:11:20.000Z</time>
      </trkpt>
      <trkpt lat="48.68918" lon="1.80925">
        <ele>182.19999694824</ele>
        <time>2014-10-29T12:11:27.000Z</time>
      </trkpt>
      <trkpt lat="48.68914" lon="1.80937">
        <ele>182.39999389648</ele>
        <time>2014-10-29T12:11:32.000Z</time>
      </trkpt>
      <trkpt lat="48.68914" lon="1.80945">
        <ele>182.39999389648</ele>
        <time>2014-10-29T12:11:36.000Z</time>
      </trkpt>
      <trkpt lat="48.68912" lon="1.8095">
        <ele>182.60000610352</ele>
        <time>2014-10-29T12:11:39.000Z</time>
      </trkpt>
      <trkpt lat="48.68905" lon="1.80962">
        <ele>182.60000610352</ele>
        <time>2014-10-29T12:11:46.000Z</time>
      </trkpt>
      <trkpt lat="48.68905" lon="1.80963">
        <ele>182.60000610352</ele>
        <time>2014-10-29T12:11:47.000Z</time>
      </trkpt>
      <trkpt lat="48.68905" lon="1.80979">
        <ele>182.39999389648</ele>
        <time>2014-10-29T12:11:54.000Z</time>
      </trkpt>
      <trkpt lat="48.68903" lon="1.80993">
        <ele>182.19999694824</ele>
        <time>2014-10-29T12:12:01.000Z</time>
      </trkpt>
      <trkpt lat="48.68896" lon="1.81011">
        <ele>182.39999389648</ele>
        <time>2014-10-29T12:12:09.000Z</time>
      </trkpt>
      <trkpt lat="48.68892" lon="1.81025">
        <ele>182.39999389648</ele>
        <time>2014-10-29T12:12:15.000Z</time>
      </trkpt>
      <trkpt lat="48.68892" lon="1.81031">
        <ele>182.39999389648</ele>
        <time>2014-10-29T12:12:18.000Z</time>
      </trkpt>
      <trkpt lat="48.68889" lon="1.81041">
        <ele>182.39999389648</ele>
        <time>2014-10-29T12:12:23.000Z</time>
      </trkpt>
      <trkpt lat="48.68882" lon="1.81058">
        <ele>182.60000610352</ele>
        <time>2014-10-29T12:12:31.000Z</time>
      </trkpt>
      <trkpt lat="48.68882" lon="1.8106">
        <ele>182.60000610352</ele>
        <time>2014-10-29T12:12:32.000Z</time>
      </trkpt>
      <trkpt lat="48.68878" lon="1.81079">
        <ele>182.60000610352</ele>
        <time>2014-10-29T12:12:40.000Z</time>
      </trkpt>
      <trkpt lat="48.68876" lon="1.81093">
        <ele>182.39999389648</ele>
        <time>2014-10-29T12:12:46.000Z</time>
      </trkpt>
      <trkpt lat="48.68871" lon="1.81102">
        <ele>182.39999389648</ele>
        <time>2014-10-29T12:12:50.000Z</time>
      </trkpt>
      <trkpt lat="48.68868" lon="1.81112">
        <ele>182.39999389648</ele>
        <time>2014-10-29T12:12:55.000Z</time>
      </trkpt>
      <trkpt lat="48.68864" lon="1.81125">
        <ele>182.60000610352</ele>
        <time>2014-10-29T12:13:02.000Z</time>
      </trkpt>
      <trkpt lat="48.68861" lon="1.81138">
        <ele>182.80000305176</ele>
        <time>2014-10-29T12:13:10.000Z</time>
      </trkpt>
      <trkpt lat="48.68857" lon="1.8115">
        <ele>183</ele>
        <time>2014-10-29T12:13:16.000Z</time>
      </trkpt>
      <trkpt lat="48.68856" lon="1.81151">
        <ele>183</ele>
        <time>2014-10-29T12:13:18.000Z</time>
      </trkpt>
      <trkpt lat="48.68851" lon="1.8117">
        <ele>182.60000610352</ele>
        <time>2014-10-29T12:13:26.000Z</time>
      </trkpt>
      <trkpt lat="48.68849" lon="1.81181">
        <ele>182.19999694824</ele>
        <time>2014-10-29T12:13:31.000Z</time>
      </trkpt>
      <trkpt lat="48.68849" lon="1.81194">
        <ele>181.80000305176</ele>
        <time>2014-10-29T12:13:37.000Z</time>
      </trkpt>
      <trkpt lat="48.68848" lon="1.81209">
        <ele>181.19999694824</ele>
        <time>2014-10-29T12:13:43.000Z</time>
      </trkpt>
      <trkpt lat="48.68847" lon="1.81211">
        <ele>181.19999694824</ele>
        <time>2014-10-29T12:13:44.000Z</time>
      </trkpt>
      <trkpt lat="48.6884" lon="1.81229">
        <ele>180.60000610352</ele>
        <time>2014-10-29T12:13:53.000Z</time>
      </trkpt>
      <trkpt lat="48.68836" lon="1.81236">
        <ele>180.60000610352</ele>
        <time>2014-10-29T12:13:59.000Z</time>
      </trkpt>
      <trkpt lat="48.68835" lon="1.8124">
        <ele>180.39999389648</ele>
        <time>2014-10-29T12:14:01.000Z</time>
      </trkpt>
      <trkpt lat="48.6883" lon="1.81253">
        <ele>180.60000610352</ele>
        <time>2014-10-29T12:14:08.000Z</time>
      </trkpt>
      <trkpt lat="48.68829" lon="1.81258">
        <ele>180.60000610352</ele>
        <time>2014-10-29T12:14:10.000Z</time>
      </trkpt>
      <trkpt lat="48.68826" lon="1.81267">
        <ele>180.60000610352</ele>
        <time>2014-10-29T12:14:14.000Z</time>
      </trkpt>
      <trkpt lat="48.68825" lon="1.8128">
        <ele>180.60000610352</ele>
        <time>2014-10-29T12:14:20.000Z</time>
      </trkpt>
      <trkpt lat="48.68826" lon="1.81287">
        <ele>180.60000610352</ele>
        <time>2014-10-29T12:14:23.000Z</time>
      </trkpt>
      <trkpt lat="48.68831" lon="1.81305">
        <ele>180.60000610352</ele>
        <time>2014-10-29T12:14:31.000Z</time>
      </trkpt>
      <trkpt lat="48.68832" lon="1.81315">
        <ele>180.60000610352</ele>
        <time>2014-10-29T12:14:36.000Z</time>
      </trkpt>
      <trkpt lat="48.68835" lon="1.81329">
        <ele>180.60000610352</ele>
        <time>2014-10-29T12:14:42.000Z</time>
      </trkpt>
      <trkpt lat="48.6884" lon="1.81342">
        <ele>181</ele>
        <time>2014-10-29T12:14:48.000Z</time>
      </trkpt>
      <trkpt lat="48.68844" lon="1.81353">
        <ele>181.39999389648</ele>
        <time>2014-10-29T12:14:54.000Z</time>
      </trkpt>
      <trkpt lat="48.6885" lon="1.81363">
        <ele>181.60000610352</ele>
        <time>2014-10-29T12:14:59.000Z</time>
      </trkpt>
      <trkpt lat="48.6885" lon="1.81376">
        <ele>182</ele>
        <time>2014-10-29T12:15:05.000Z</time>
      </trkpt>
      <trkpt lat="48.68854" lon="1.81392">
        <ele>182.60000610352</ele>
        <time>2014-10-29T12:15:11.000Z</time>
      </trkpt>
      <trkpt lat="48.68854" lon="1.81401">
        <ele>182.80000305176</ele>
        <time>2014-10-29T12:15:15.000Z</time>
      </trkpt>
      <trkpt lat="48.68851" lon="1.81419">
        <ele>183</ele>
        <time>2014-10-29T12:15:24.000Z</time>
      </trkpt>
      <trkpt lat="48.68854" lon="1.81437">
        <ele>183</ele>
        <time>2014-10-29T12:15:31.000Z</time>
      </trkpt>
      <trkpt lat="48.68862" lon="1.81445">
        <ele>183.39999389648</ele>
        <time>2014-10-29T12:15:37.000Z</time>
      </trkpt>
      <trkpt lat="48.68867" lon="1.81455">
        <ele>183.60000610352</ele>
        <time>2014-10-29T12:15:42.000Z</time>
      </trkpt>
      <trkpt lat="48.68866" lon="1.81461">
        <ele>183.39999389648</ele>
        <time>2014-10-29T12:15:46.000Z</time>
      </trkpt>
      <trkpt lat="48.68864" lon="1.81463">
        <ele>183.39999389648</ele>
        <time>2014-10-29T12:15:48.000Z</time>
      </trkpt>
      <trkpt lat="48.68866" lon="1.8148">
        <ele>183.39999389648</ele>
        <time>2014-10-29T12:15:54.000Z</time>
      </trkpt>
      <trkpt lat="48.68867" lon="1.81498">
        <ele>183.39999389648</ele>
        <time>2014-10-29T12:16:01.000Z</time>
      </trkpt>
      <trkpt lat="48.68868" lon="1.81515">
        <ele>183.39999389648</ele>
        <time>2014-10-29T12:16:08.000Z</time>
      </trkpt>
      <trkpt lat="48.68868" lon="1.81519">
        <ele>183.39999389648</ele>
        <time>2014-10-29T12:16:10.000Z</time>
      </trkpt>
      <trkpt lat="48.6887" lon="1.81533">
        <ele>183.39999389648</ele>
        <time>2014-10-29T12:16:16.000Z</time>
      </trkpt>
      <trkpt lat="48.68877" lon="1.81552">
        <ele>183.60000610352</ele>
        <time>2014-10-29T12:16:23.000Z</time>
      </trkpt>
      <trkpt lat="48.68877" lon="1.81562">
        <ele>183.60000610352</ele>
        <time>2014-10-29T12:16:27.000Z</time>
      </trkpt>
      <trkpt lat="48.68882" lon="1.81578">
        <ele>183.60000610352</ele>
        <time>2014-10-29T12:16:33.000Z</time>
      </trkpt>
      <trkpt lat="48.68885" lon="1.81589">
        <ele>183.80000305176</ele>
        <time>2014-10-29T12:16:38.000Z</time>
      </trkpt>
      <trkpt lat="48.68889" lon="1.81598">
        <ele>183.80000305176</ele>
        <time>2014-10-29T12:16:43.000Z</time>
      </trkpt>
      <trkpt lat="48.68894" lon="1.81612">
        <ele>184</ele>
        <time>2014-10-29T12:16:50.000Z</time>
      </trkpt>
      <trkpt lat="48.68899" lon="1.81627">
        <ele>184.19999694824</ele>
        <time>2014-10-29T12:16:57.000Z</time>
      </trkpt>
      <trkpt lat="48.68901" lon="1.81631">
        <ele>184.19999694824</ele>
        <time>2014-10-29T12:16:59.000Z</time>
      </trkpt>
      <trkpt lat="48.68901" lon="1.81636">
        <ele>184.19999694824</ele>
        <time>2014-10-29T12:17:01.000Z</time>
      </trkpt>
      <trkpt lat="48.68906" lon="1.81645">
        <ele>184.19999694824</ele>
        <time>2014-10-29T12:17:06.000Z</time>
      </trkpt>
      <trkpt lat="48.68912" lon="1.81658">
        <ele>184.39999389648</ele>
        <time>2014-10-29T12:17:13.000Z</time>
      </trkpt>
      <trkpt lat="48.68914" lon="1.81666">
        <ele>184.80000305176</ele>
        <time>2014-10-29T12:17:17.000Z</time>
      </trkpt>
      <trkpt lat="48.68918" lon="1.81678">
        <ele>185.19999694824</ele>
        <time>2014-10-29T12:17:23.000Z</time>
      </trkpt>
      <trkpt lat="48.68922" lon="1.81698">
        <ele>185.60000610352</ele>
        <time>2014-10-29T12:17:31.000Z</time>
      </trkpt>
      <trkpt lat="48.68924" lon="1.81719">
        <ele>186.19999694824</ele>
        <time>2014-10-29T12:17:39.000Z</time>
      </trkpt>
      <trkpt lat="48.68925" lon="1.81734">
        <ele>186.80000305176</ele>
        <time>2014-10-29T12:17:45.000Z</time>
      </trkpt>
      <trkpt lat="48.68925" lon="1.81739">
        <ele>186.80000305176</ele>
        <time>2014-10-29T12:17:47.000Z</time>
      </trkpt>
      <trkpt lat="48.68927" lon="1.81749">
        <ele>187</ele>
        <time>2014-10-29T12:17:51.000Z</time>
      </trkpt>
      <trkpt lat="48.68931" lon="1.81762">
        <ele>187.19999694824</ele>
        <time>2014-10-29T12:17:57.000Z</time>
      </trkpt>
      <trkpt lat="48.68934" lon="1.81777">
        <ele>187.39999389648</ele>
        <time>2014-10-29T12:18:03.000Z</time>
      </trkpt>
      <trkpt lat="48.6894" lon="1.81788">
        <ele>187.60000610352</ele>
        <time>2014-10-29T12:18:08.000Z</time>
      </trkpt>
      <trkpt lat="48.68947" lon="1.81802">
        <ele>187.80000305176</ele>
        <time>2014-10-29T12:18:15.000Z</time>
      </trkpt>
      <trkpt lat="48.68948" lon="1.8181">
        <ele>187.80000305176</ele>
        <time>2014-10-29T12:18:18.000Z</time>
      </trkpt>
      <trkpt lat="48.68951" lon="1.81826">
        <ele>188</ele>
        <time>2014-10-29T12:18:25.000Z</time>
      </trkpt>
      <trkpt lat="48.68957" lon="1.81839">
        <ele>187.60000610352</ele>
        <time>2014-10-29T12:18:32.000Z</time>
      </trkpt>
      <trkpt lat="48.68966" lon="1.81853">
        <ele>187.19999694824</ele>
        <time>2014-10-29T12:18:39.000Z</time>
      </trkpt>
      <trkpt lat="48.6897" lon="1.81867">
        <ele>187.19999694824</ele>
        <time>2014-10-29T12:18:45.000Z</time>
      </trkpt>
      <trkpt lat="48.68975" lon="1.81876">
        <ele>187</ele>
        <time>2014-10-29T12:18:50.000Z</time>
      </trkpt>
      <trkpt lat="48.68979" lon="1.81883">
        <ele>187</ele>
        <time>2014-10-29T12:18:55.000Z</time>
      </trkpt>
      <trkpt lat="48.68983" lon="1.81899">
        <ele>186.80000305176</ele>
        <time>2014-10-29T12:19:02.000Z</time>
      </trkpt>
      <trkpt lat="48.68988" lon="1.81911">
        <ele>186.39999389648</ele>
        <time>2014-10-29T12:19:08.000Z</time>
      </trkpt>
      <trkpt lat="48.68996" lon="1.81931">
        <ele>185</ele>
        <time>2014-10-29T12:19:17.000Z</time>
      </trkpt>
      <trkpt lat="48.69003" lon="1.81948">
        <ele>183.80000305176</ele>
        <time>2014-10-29T12:19:25.000Z</time>
      </trkpt>
      <trkpt lat="48.69008" lon="1.8196">
        <ele>183</ele>
        <time>2014-10-29T12:19:31.000Z</time>
      </trkpt>
      <trkpt lat="48.69009" lon="1.81976">
        <ele>182</ele>
        <time>2014-10-29T12:19:38.000Z</time>
      </trkpt>
      <trkpt lat="48.69012" lon="1.81979">
        <ele>181.80000305176</ele>
        <time>2014-10-29T12:19:40.000Z</time>
      </trkpt>
      <trkpt lat="48.6902" lon="1.81991">
        <ele>181</ele>
        <time>2014-10-29T12:19:47.000Z</time>
      </trkpt>
      <trkpt lat="48.69023" lon="1.81995">
        <ele>181</ele>
        <time>2014-10-29T12:19:50.000Z</time>
      </trkpt>
      <trkpt lat="48.69036" lon="1.82012">
        <ele>180.80000305176</ele>
        <time>2014-10-29T12:20:00.000Z</time>
      </trkpt>
      <trkpt lat="48.69045" lon="1.82025">
        <ele>180.60000610352</ele>
        <time>2014-10-29T12:20:08.000Z</time>
      </trkpt>
      <trkpt lat="48.69059" lon="1.8204">
        <ele>180.60000610352</ele>
        <time>2014-10-29T12:20:18.000Z</time>
      </trkpt>
      <trkpt lat="48.69068" lon="1.82049">
        <ele>180.39999389648</ele>
        <time>2014-10-29T12:20:25.000Z</time>
      </trkpt>
      <trkpt lat="48.69075" lon="1.82057">
        <ele>180.39999389648</ele>
        <time>2014-10-29T12:20:31.000Z</time>
      </trkpt>
      <trkpt lat="48.69083" lon="1.82066">
        <ele>180.19999694824</ele>
        <time>2014-10-29T12:20:38.000Z</time>
      </trkpt>
      <trkpt lat="48.6909" lon="1.82073">
        <ele>180.19999694824</ele>
        <time>2014-10-29T12:20:42.000Z</time>
      </trkpt>
      <trkpt lat="48.69099" lon="1.82081">
        <ele>180.19999694824</ele>
        <time>2014-10-29T12:20:49.000Z</time>
      </trkpt>
      <trkpt lat="48.6911" lon="1.82092">
        <ele>180.19999694824</ele>
        <time>2014-10-29T12:20:57.000Z</time>
      </trkpt>
      <trkpt lat="48.69119" lon="1.821">
        <ele>180.39999389648</ele>
        <time>2014-10-29T12:21:04.000Z</time>
      </trkpt>
      <trkpt lat="48.69131" lon="1.82111">
        <ele>180.39999389648</ele>
        <time>2014-10-29T12:21:13.000Z</time>
      </trkpt>
      <trkpt lat="48.69142" lon="1.82122">
        <ele>180.60000610352</ele>
        <time>2014-10-29T12:21:21.000Z</time>
      </trkpt>
      <trkpt lat="48.69146" lon="1.82127">
        <ele>180.60000610352</ele>
        <time>2014-10-29T12:21:25.000Z</time>
      </trkpt>
      <trkpt lat="48.69143" lon="1.82141">
        <ele>180.80000305176</ele>
        <time>2014-10-29T12:21:32.000Z</time>
      </trkpt>
      <trkpt lat="48.69135" lon="1.82164">
        <ele>180.80000305176</ele>
        <time>2014-10-29T12:21:43.000Z</time>
      </trkpt>
      <trkpt lat="48.69131" lon="1.82176">
        <ele>180.80000305176</ele>
        <time>2014-10-29T12:21:49.000Z</time>
      </trkpt>
      <trkpt lat="48.69127" lon="1.82189">
        <ele>180.60000610352</ele>
        <time>2014-10-29T12:21:55.000Z</time>
      </trkpt>
      <trkpt lat="48.69121" lon="1.82211">
        <ele>180.39999389648</ele>
        <time>2014-10-29T12:22:05.000Z</time>
      </trkpt>
      <trkpt lat="48.69118" lon="1.82222">
        <ele>180.19999694824</ele>
        <time>2014-10-29T12:22:10.000Z</time>
      </trkpt>
      <trkpt lat="48.69111" lon="1.82241">
        <ele>180</ele>
        <time>2014-10-29T12:22:19.000Z</time>
      </trkpt>
      <trkpt lat="48.69106" lon="1.82255">
        <ele>179.80000305176</ele>
        <time>2014-10-29T12:22:27.000Z</time>
      </trkpt>
      <trkpt lat="48.69102" lon="1.82268">
        <ele>179.60000610352</ele>
        <time>2014-10-29T12:22:33.000Z</time>
      </trkpt>
      <trkpt lat="48.69096" lon="1.82289">
        <ele>179.39999389648</ele>
        <time>2014-10-29T12:22:43.000Z</time>
      </trkpt>
      <trkpt lat="48.69096" lon="1.82293">
        <ele>179.39999389648</ele>
        <time>2014-10-29T12:22:45.000Z</time>
      </trkpt>
      <trkpt lat="48.69096" lon="1.82294">
        <ele>179.39999389648</ele>
        <time>2014-10-29T12:22:48.000Z</time>
      </trkpt>
      <trkpt lat="48.69092" lon="1.823">
        <ele>179.39999389648</ele>
        <time>2014-10-29T12:23:13.000Z</time>
      </trkpt>
      <trkpt lat="48.69091" lon="1.82315">
        <ele>179.19999694824</ele>
        <time>2014-10-29T12:23:19.000Z</time>
      </trkpt>
      <trkpt lat="48.6909" lon="1.82323">
        <ele>179.19999694824</ele>
        <time>2014-10-29T12:23:23.000Z</time>
      </trkpt>
      <trkpt lat="48.69091" lon="1.82332">
        <ele>179.19999694824</ele>
        <time>2014-10-29T12:23:28.000Z</time>
      </trkpt>
      <trkpt lat="48.6909" lon="1.82343">
        <ele>179.19999694824</ele>
        <time>2014-10-29T12:23:33.000Z</time>
      </trkpt>
      <trkpt lat="48.69085" lon="1.82355">
        <ele>179.19999694824</ele>
        <time>2014-10-29T12:23:40.000Z</time>
      </trkpt>
      <trkpt lat="48.69081" lon="1.82361">
        <ele>179.19999694824</ele>
        <time>2014-10-29T12:23:44.000Z</time>
      </trkpt>
      <trkpt lat="48.69081" lon="1.82356">
        <ele>179.19999694824</ele>
        <time>2014-10-29T12:23:49.000Z</time>
      </trkpt>
      <trkpt lat="48.69087" lon="1.82345">
        <ele>179.19999694824</ele>
        <time>2014-10-29T12:23:55.000Z</time>
      </trkpt>
      <trkpt lat="48.69088" lon="1.82331">
        <ele>179.19999694824</ele>
        <time>2014-10-29T12:24:01.000Z</time>
      </trkpt>
      <trkpt lat="48.6909" lon="1.82316">
        <ele>179.19999694824</ele>
        <time>2014-10-29T12:24:07.000Z</time>
      </trkpt>
      <trkpt lat="48.69092" lon="1.82299">
        <ele>179.39999389648</ele>
        <time>2014-10-29T12:24:14.000Z</time>
      </trkpt>
      <trkpt lat="48.69097" lon="1.82297">
        <ele>179.39999389648</ele>
        <time>2014-10-29T12:24:19.000Z</time>
      </trkpt>
      <trkpt lat="48.691" lon="1.82301">
        <ele>179.19999694824</ele>
        <time>2014-10-29T12:24:22.000Z</time>
      </trkpt>
      <trkpt lat="48.69109" lon="1.82315">
        <ele>179</ele>
        <time>2014-10-29T12:24:30.000Z</time>
      </trkpt>
      <trkpt lat="48.69116" lon="1.82331">
        <ele>179</ele>
        <time>2014-10-29T12:24:36.000Z</time>
      </trkpt>
      <trkpt lat="48.69131" lon="1.82359">
        <ele>179</ele>
        <time>2014-10-29T12:24:43.000Z</time>
      </trkpt>
      <trkpt lat="48.69141" lon="1.82385">
        <ele>179</ele>
        <time>2014-10-29T12:24:49.000Z</time>
      </trkpt>
      <trkpt lat="48.69153" lon="1.82405">
        <ele>179</ele>
        <time>2014-10-29T12:24:54.000Z</time>
      </trkpt>
      <trkpt lat="48.69169" lon="1.82435">
        <ele>179</ele>
        <time>2014-10-29T12:25:01.000Z</time>
      </trkpt>
      <trkpt lat="48.69186" lon="1.82469">
        <ele>179</ele>
        <time>2014-10-29T12:25:09.000Z</time>
      </trkpt>
      <trkpt lat="48.69196" lon="1.82489">
        <ele>179.39999389648</ele>
        <time>2014-10-29T12:25:15.000Z</time>
      </trkpt>
      <trkpt lat="48.69201" lon="1.82499">
        <ele>179.60000610352</ele>
        <time>2014-10-29T12:25:20.000Z</time>
      </trkpt>
      <trkpt lat="48.69208" lon="1.82512">
        <ele>179.80000305176</ele>
        <time>2014-10-29T12:25:27.000Z</time>
      </trkpt>
      <trkpt lat="48.6921" lon="1.82522">
        <ele>179.80000305176</ele>
        <time>2014-10-29T12:25:33.000Z</time>
      </trkpt>
      <trkpt lat="48.69214" lon="1.82533">
        <ele>180</ele>
        <time>2014-10-29T12:25:39.000Z</time>
      </trkpt>
      <trkpt lat="48.69219" lon="1.8255">
        <ele>180.19999694824</ele>
        <time>2014-10-29T12:25:47.000Z</time>
      </trkpt>
      <trkpt lat="48.69224" lon="1.82567">
        <ele>180.39999389648</ele>
        <time>2014-10-29T12:25:55.000Z</time>
      </trkpt>
      <trkpt lat="48.69227" lon="1.82576">
        <ele>180.39999389648</ele>
        <time>2014-10-29T12:25:59.000Z</time>
      </trkpt>
      <trkpt lat="48.69233" lon="1.82597">
        <ele>180.39999389648</ele>
        <time>2014-10-29T12:26:08.000Z</time>
      </trkpt>
      <trkpt lat="48.69239" lon="1.82617">
        <ele>180.39999389648</ele>
        <time>2014-10-29T12:26:17.000Z</time>
      </trkpt>
      <trkpt lat="48.69246" lon="1.82632">
        <ele>180.39999389648</ele>
        <time>2014-10-29T12:26:25.000Z</time>
      </trkpt>
      <trkpt lat="48.69252" lon="1.82648">
        <ele>180.39999389648</ele>
        <time>2014-10-29T12:26:32.000Z</time>
      </trkpt>
      <trkpt lat="48.69262" lon="1.82666">
        <ele>180.60000610352</ele>
        <time>2014-10-29T12:26:39.000Z</time>
      </trkpt>
      <trkpt lat="48.69271" lon="1.8268">
        <ele>180.60000610352</ele>
        <time>2014-10-29T12:26:45.000Z</time>
      </trkpt>
      <trkpt lat="48.69277" lon="1.82695">
        <ele>180.39999389648</ele>
        <time>2014-10-29T12:26:52.000Z</time>
      </trkpt>
      <trkpt lat="48.69283" lon="1.82709">
        <ele>180.19999694824</ele>
        <time>2014-10-29T12:26:59.000Z</time>
      </trkpt>
      <trkpt lat="48.6929" lon="1.82726">
        <ele>180</ele>
        <time>2014-10-29T12:27:07.000Z</time>
      </trkpt>
      <trkpt lat="48.69297" lon="1.82746">
        <ele>179.80000305176</ele>
        <time>2014-10-29T12:27:16.000Z</time>
      </trkpt>
      <trkpt lat="48.693" lon="1.8276">
        <ele>179.80000305176</ele>
        <time>2014-10-29T12:27:22.000Z</time>
      </trkpt>
      <trkpt lat="48.69301" lon="1.82769">
        <ele>180</ele>
        <time>2014-10-29T12:27:26.000Z</time>
      </trkpt>
      <trkpt lat="48.69303" lon="1.8279">
        <ele>180</ele>
        <time>2014-10-29T12:27:35.000Z</time>
      </trkpt>
      <trkpt lat="48.69306" lon="1.8281">
        <ele>180</ele>
        <time>2014-10-29T12:27:44.000Z</time>
      </trkpt>
      <trkpt lat="48.69307" lon="1.82815">
        <ele>180</ele>
        <time>2014-10-29T12:27:46.000Z</time>
      </trkpt>
      <trkpt lat="48.69306" lon="1.82824">
        <ele>180</ele>
        <time>2014-10-29T12:27:50.000Z</time>
      </trkpt>
      <trkpt lat="48.69311" lon="1.82842">
        <ele>180</ele>
        <time>2014-10-29T12:27:58.000Z</time>
      </trkpt>
      <trkpt lat="48.69318" lon="1.82858">
        <ele>180</ele>
        <time>2014-10-29T12:28:05.000Z</time>
      </trkpt>
      <trkpt lat="48.69327" lon="1.82873">
        <ele>180</ele>
        <time>2014-10-29T12:28:14.000Z</time>
      </trkpt>
      <trkpt lat="48.69334" lon="1.82885">
        <ele>180</ele>
        <time>2014-10-29T12:28:21.000Z</time>
      </trkpt>
      <trkpt lat="48.69341" lon="1.82894">
        <ele>180</ele>
        <time>2014-10-29T12:28:27.000Z</time>
      </trkpt>
      <trkpt lat="48.69346" lon="1.82905">
        <ele>179.80000305176</ele>
        <time>2014-10-29T12:28:33.000Z</time>
      </trkpt>
      <trkpt lat="48.69353" lon="1.82915">
        <ele>179.80000305176</ele>
        <time>2014-10-29T12:28:39.000Z</time>
      </trkpt>
      <trkpt lat="48.69355" lon="1.82919">
        <ele>179.80000305176</ele>
        <time>2014-10-29T12:28:41.000Z</time>
      </trkpt>
      <trkpt lat="48.69365" lon="1.82932">
        <ele>180</ele>
        <time>2014-10-29T12:28:49.000Z</time>
      </trkpt>
      <trkpt lat="48.69374" lon="1.82946">
        <ele>180</ele>
        <time>2014-10-29T12:28:58.000Z</time>
      </trkpt>
      <trkpt lat="48.69383" lon="1.82963">
        <ele>180</ele>
        <time>2014-10-29T12:29:07.000Z</time>
      </trkpt>
      <trkpt lat="48.69388" lon="1.82975">
        <ele>180</ele>
        <time>2014-10-29T12:29:14.000Z</time>
      </trkpt>
      <trkpt lat="48.69398" lon="1.82994">
        <ele>180</ele>
        <time>2014-10-29T12:29:24.000Z</time>
      </trkpt>
      <trkpt lat="48.69401" lon="1.83008">
        <ele>180.19999694824</ele>
        <time>2014-10-29T12:29:31.000Z</time>
      </trkpt>
      <trkpt lat="48.69409" lon="1.83029">
        <ele>180.39999389648</ele>
        <time>2014-10-29T12:29:41.000Z</time>
      </trkpt>
      <trkpt lat="48.69414" lon="1.83048">
        <ele>180.39999389648</ele>
        <time>2014-10-29T12:29:50.000Z</time>
      </trkpt>
      <trkpt lat="48.69419" lon="1.83063">
        <ele>180.60000610352</ele>
        <time>2014-10-29T12:29:57.000Z</time>
      </trkpt>
      <trkpt lat="48.69424" lon="1.83077">
        <ele>180.80000305176</ele>
        <time>2014-10-29T12:30:04.000Z</time>
      </trkpt>
      <trkpt lat="48.69431" lon="1.83093">
        <ele>181</ele>
        <time>2014-10-29T12:30:12.000Z</time>
      </trkpt>
      <trkpt lat="48.69438" lon="1.83108">
        <ele>181</ele>
        <time>2014-10-29T12:30:19.000Z</time>
      </trkpt>
      <trkpt lat="48.69445" lon="1.83122">
        <ele>180.80000305176</ele>
        <time>2014-10-29T12:30:26.000Z</time>
      </trkpt>
      <trkpt lat="48.69453" lon="1.83138">
        <ele>180.80000305176</ele>
        <time>2014-10-29T12:30:34.000Z</time>
      </trkpt>
      <trkpt lat="48.69458" lon="1.83153">
        <ele>180.80000305176</ele>
        <time>2014-10-29T12:30:41.000Z</time>
      </trkpt>
      <trkpt lat="48.69461" lon="1.83158">
        <ele>180.80000305176</ele>
        <time>2014-10-29T12:30:44.000Z</time>
      </trkpt>
      <trkpt lat="48.69463" lon="1.83173">
        <ele>180.60000610352</ele>
        <time>2014-10-29T12:30:51.000Z</time>
      </trkpt>
      <trkpt lat="48.69465" lon="1.83187">
        <ele>180.60000610352</ele>
        <time>2014-10-29T12:30:57.000Z</time>
      </trkpt>
      <trkpt lat="48.69468" lon="1.83207">
        <ele>180.19999694824</ele>
        <time>2014-10-29T12:31:06.000Z</time>
      </trkpt>
      <trkpt lat="48.69471" lon="1.83221">
        <ele>179.80000305176</ele>
        <time>2014-10-29T12:31:13.000Z</time>
      </trkpt>
      <trkpt lat="48.69477" lon="1.83244">
        <ele>179.39999389648</ele>
        <time>2014-10-29T12:31:24.000Z</time>
      </trkpt>
      <trkpt lat="48.69482" lon="1.83264">
        <ele>179</ele>
        <time>2014-10-29T12:31:33.000Z</time>
      </trkpt>
      <trkpt lat="48.69487" lon="1.83285">
        <ele>178.39999389648</ele>
        <time>2014-10-29T12:31:43.000Z</time>
      </trkpt>
      <trkpt lat="48.69492" lon="1.83306">
        <ele>178.19999694824</ele>
        <time>2014-10-29T12:31:53.000Z</time>
      </trkpt>
      <trkpt lat="48.69493" lon="1.83319">
        <ele>178</ele>
        <time>2014-10-29T12:31:59.000Z</time>
      </trkpt>
      <trkpt lat="48.69497" lon="1.83334">
        <ele>178</ele>
        <time>2014-10-29T12:32:06.000Z</time>
      </trkpt>
      <trkpt lat="48.69498" lon="1.83341">
        <ele>178</ele>
        <time>2014-10-29T12:32:09.000Z</time>
      </trkpt>
      <trkpt lat="48.69504" lon="1.83358">
        <ele>178</ele>
        <time>2014-10-29T12:32:17.000Z</time>
      </trkpt>
      <trkpt lat="48.69508" lon="1.83371">
        <ele>178</ele>
        <time>2014-10-29T12:32:23.000Z</time>
      </trkpt>
      <trkpt lat="48.69513" lon="1.83388">
        <ele>178</ele>
        <time>2014-10-29T12:32:30.000Z</time>
      </trkpt>
      <trkpt lat="48.69517" lon="1.83406">
        <ele>178</ele>
        <time>2014-10-29T12:32:37.000Z</time>
      </trkpt>
      <trkpt lat="48.69521" lon="1.83423">
        <ele>178</ele>
        <time>2014-10-29T12:32:45.000Z</time>
      </trkpt>
      <trkpt lat="48.69526" lon="1.83438">
        <ele>178</ele>
        <time>2014-10-29T12:32:52.000Z</time>
      </trkpt>
      <trkpt lat="48.6953" lon="1.83455">
        <ele>178</ele>
        <time>2014-10-29T12:32:59.000Z</time>
      </trkpt>
      <trkpt lat="48.69535" lon="1.83474">
        <ele>178</ele>
        <time>2014-10-29T12:33:08.000Z</time>
      </trkpt>
      <trkpt lat="48.6954" lon="1.83494">
        <ele>178</ele>
        <time>2014-10-29T12:33:17.000Z</time>
      </trkpt>
      <trkpt lat="48.69544" lon="1.83511">
        <ele>178</ele>
        <time>2014-10-29T12:33:24.000Z</time>
      </trkpt>
      <trkpt lat="48.69548" lon="1.83529">
        <ele>177.80000305176</ele>
        <time>2014-10-29T12:33:32.000Z</time>
      </trkpt>
      <trkpt lat="48.69554" lon="1.83551">
        <ele>177.60000610352</ele>
        <time>2014-10-29T12:33:42.000Z</time>
      </trkpt>
      <trkpt lat="48.69561" lon="1.83573">
        <ele>177.39999389648</ele>
        <time>2014-10-29T12:33:52.000Z</time>
      </trkpt>
      <trkpt lat="48.69566" lon="1.83592">
        <ele>177.39999389648</ele>
        <time>2014-10-29T12:34:00.000Z</time>
      </trkpt>
      <trkpt lat="48.6957" lon="1.83611">
        <ele>177.19999694824</ele>
        <time>2014-10-29T12:34:08.000Z</time>
      </trkpt>
      <trkpt lat="48.69576" lon="1.83634">
        <ele>177</ele>
        <time>2014-10-29T12:34:18.000Z</time>
      </trkpt>
      <trkpt lat="48.69582" lon="1.83661">
        <ele>176.80000305176</ele>
        <time>2014-10-29T12:34:30.000Z</time>
      </trkpt>
      <trkpt lat="48.69585" lon="1.83675">
        <ele>176.80000305176</ele>
        <time>2014-10-29T12:34:36.000Z</time>
      </trkpt>
      <trkpt lat="48.69591" lon="1.83694">
        <ele>176.80000305176</ele>
        <time>2014-10-29T12:34:46.000Z</time>
      </trkpt>
      <trkpt lat="48.69597" lon="1.83715">
        <ele>177</ele>
        <time>2014-10-29T12:34:56.000Z</time>
      </trkpt>
      <trkpt lat="48.69604" lon="1.83735">
        <ele>177</ele>
        <time>2014-10-29T12:35:06.000Z</time>
      </trkpt>
      <trkpt lat="48.69613" lon="1.83755">
        <ele>177</ele>
        <time>2014-10-29T12:35:17.000Z</time>
      </trkpt>
      <trkpt lat="48.69619" lon="1.83774">
        <ele>176.80000305176</ele>
        <time>2014-10-29T12:35:26.000Z</time>
      </trkpt>
      <trkpt lat="48.69625" lon="1.83781">
        <ele>176.80000305176</ele>
        <time>2014-10-29T12:35:31.000Z</time>
      </trkpt>
      <trkpt lat="48.6963" lon="1.83792">
        <ele>176.60000610352</ele>
        <time>2014-10-29T12:35:37.000Z</time>
      </trkpt>
      <trkpt lat="48.69637" lon="1.83805">
        <ele>176.60000610352</ele>
        <time>2014-10-29T12:35:44.000Z</time>
      </trkpt>
      <trkpt lat="48.69638" lon="1.83807">
        <ele>176.60000610352</ele>
        <time>2014-10-29T12:35:45.000Z</time>
      </trkpt>
      <trkpt lat="48.69644" lon="1.83817">
        <ele>176.60000610352</ele>
        <time>2014-10-29T12:35:51.000Z</time>
      </trkpt>
      <trkpt lat="48.69647" lon="1.83827">
        <ele>176.39999389648</ele>
        <time>2014-10-29T12:35:56.000Z</time>
      </trkpt>
      <trkpt lat="48.69649" lon="1.83831">
        <ele>176.39999389648</ele>
        <time>2014-10-29T12:35:58.000Z</time>
      </trkpt>
      <trkpt lat="48.6966" lon="1.83848">
        <ele>176.39999389648</ele>
        <time>2014-10-29T12:36:07.000Z</time>
      </trkpt>
      <trkpt lat="48.69665" lon="1.8386">
        <ele>176.19999694824</ele>
        <time>2014-10-29T12:36:13.000Z</time>
      </trkpt>
      <trkpt lat="48.69672" lon="1.83881">
        <ele>176.19999694824</ele>
        <time>2014-10-29T12:36:24.000Z</time>
      </trkpt>
      <trkpt lat="48.69678" lon="1.83894">
        <ele>176</ele>
        <time>2014-10-29T12:36:32.000Z</time>
      </trkpt>
      <trkpt lat="48.69686" lon="1.83909">
        <ele>176</ele>
        <time>2014-10-29T12:36:40.000Z</time>
      </trkpt>
      <trkpt lat="48.69694" lon="1.83929">
        <ele>175.80000305176</ele>
        <time>2014-10-29T12:36:50.000Z</time>
      </trkpt>
      <trkpt lat="48.69699" lon="1.83941">
        <ele>175.60000610352</ele>
        <time>2014-10-29T12:36:55.000Z</time>
      </trkpt>
      <trkpt lat="48.69705" lon="1.83955">
        <ele>175.39999389648</ele>
        <time>2014-10-29T12:37:02.000Z</time>
      </trkpt>
      <trkpt lat="48.69712" lon="1.83976">
        <ele>175.19999694824</ele>
        <time>2014-10-29T12:37:12.000Z</time>
      </trkpt>
      <trkpt lat="48.69719" lon="1.83993">
        <ele>175</ele>
        <time>2014-10-29T12:37:20.000Z</time>
      </trkpt>
      <trkpt lat="48.69726" lon="1.84009">
        <ele>175</ele>
        <time>2014-10-29T12:37:28.000Z</time>
      </trkpt>
      <trkpt lat="48.69734" lon="1.84032">
        <ele>175</ele>
        <time>2014-10-29T12:37:39.000Z</time>
      </trkpt>
      <trkpt lat="48.69737" lon="1.84047">
        <ele>175</ele>
        <time>2014-10-29T12:37:46.000Z</time>
      </trkpt>
      <trkpt lat="48.69735" lon="1.84063">
        <ele>175</ele>
        <time>2014-10-29T12:37:53.000Z</time>
      </trkpt>
      <trkpt lat="48.69735" lon="1.84081">
        <ele>175</ele>
        <time>2014-10-29T12:38:01.000Z</time>
      </trkpt>
      <trkpt lat="48.69738" lon="1.84104">
        <ele>175</ele>
        <time>2014-10-29T12:38:11.000Z</time>
      </trkpt>
      <trkpt lat="48.69742" lon="1.84123">
        <ele>175</ele>
        <time>2014-10-29T12:38:20.000Z</time>
      </trkpt>
      <trkpt lat="48.69747" lon="1.84141">
        <ele>175</ele>
        <time>2014-10-29T12:38:28.000Z</time>
      </trkpt>
      <trkpt lat="48.69752" lon="1.84156">
        <ele>175.19999694824</ele>
        <time>2014-10-29T12:38:35.000Z</time>
      </trkpt>
      <trkpt lat="48.69754" lon="1.8416">
        <ele>175.19999694824</ele>
        <time>2014-10-29T12:38:40.000Z</time>
      </trkpt>
      <trkpt lat="48.69754" lon="1.84166">
        <ele>175</ele>
        <time>2014-10-29T12:38:45.000Z</time>
      </trkpt>
      <trkpt lat="48.69758" lon="1.84183">
        <ele>174.80000305176</ele>
        <time>2014-10-29T12:38:52.000Z</time>
      </trkpt>
      <trkpt lat="48.69759" lon="1.84187">
        <ele>174.80000305176</ele>
        <time>2014-10-29T12:38:54.000Z</time>
      </trkpt>
      <trkpt lat="48.69756" lon="1.84193">
        <ele>174.80000305176</ele>
        <time>2014-10-29T12:39:02.000Z</time>
      </trkpt>
      <trkpt lat="48.6976" lon="1.84201">
        <ele>174.60000610352</ele>
        <time>2014-10-29T12:39:09.000Z</time>
      </trkpt>
      <trkpt lat="48.69762" lon="1.84212">
        <ele>174.39999389648</ele>
        <time>2014-10-29T12:39:13.000Z</time>
      </trkpt>
      <trkpt lat="48.69765" lon="1.84228">
        <ele>174.19999694824</ele>
        <time>2014-10-29T12:39:20.000Z</time>
      </trkpt>
      <trkpt lat="48.69769" lon="1.84254">
        <ele>174</ele>
        <time>2014-10-29T12:39:31.000Z</time>
      </trkpt>
      <trkpt lat="48.69774" lon="1.84284">
        <ele>174</ele>
        <time>2014-10-29T12:39:43.000Z</time>
      </trkpt>
      <trkpt lat="48.69776" lon="1.84298">
        <ele>174</ele>
        <time>2014-10-29T12:39:49.000Z</time>
      </trkpt>
      <trkpt lat="48.6978" lon="1.8432">
        <ele>174</ele>
        <time>2014-10-29T12:39:58.000Z</time>
      </trkpt>
      <trkpt lat="48.69783" lon="1.84336">
        <ele>173.80000305176</ele>
        <time>2014-10-29T12:40:05.000Z</time>
      </trkpt>
      <trkpt lat="48.69786" lon="1.84356">
        <ele>174</ele>
        <time>2014-10-29T12:40:13.000Z</time>
      </trkpt>
      <trkpt lat="48.69789" lon="1.84376">
        <ele>174.19999694824</ele>
        <time>2014-10-29T12:40:21.000Z</time>
      </trkpt>
      <trkpt lat="48.69792" lon="1.84399">
        <ele>174.39999389648</ele>
        <time>2014-10-29T12:40:30.000Z</time>
      </trkpt>
      <trkpt lat="48.69794" lon="1.84421">
        <ele>174.19999694824</ele>
        <time>2014-10-29T12:40:39.000Z</time>
      </trkpt>
      <trkpt lat="48.69796" lon="1.84441">
        <ele>173.80000305176</ele>
        <time>2014-10-29T12:40:47.000Z</time>
      </trkpt>
      <trkpt lat="48.69797" lon="1.84453">
        <ele>173.60000610352</ele>
        <time>2014-10-29T12:40:52.000Z</time>
      </trkpt>
      <trkpt lat="48.698" lon="1.84476">
        <ele>173</ele>
        <time>2014-10-29T12:41:01.000Z</time>
      </trkpt>
      <trkpt lat="48.698" lon="1.84491">
        <ele>172.60000610352</ele>
        <time>2014-10-29T12:41:07.000Z</time>
      </trkpt>
      <trkpt lat="48.69803" lon="1.84515">
        <ele>173</ele>
        <time>2014-10-29T12:41:17.000Z</time>
      </trkpt>
      <trkpt lat="48.69807" lon="1.84532">
        <ele>173</ele>
        <time>2014-10-29T12:41:24.000Z</time>
      </trkpt>
      <trkpt lat="48.69811" lon="1.84557">
        <ele>173</ele>
        <time>2014-10-29T12:41:34.000Z</time>
      </trkpt>
      <trkpt lat="48.69813" lon="1.84577">
        <ele>173</ele>
        <time>2014-10-29T12:41:43.000Z</time>
      </trkpt>
      <trkpt lat="48.69815" lon="1.84592">
        <ele>173.39999389648</ele>
        <time>2014-10-29T12:41:50.000Z</time>
      </trkpt>
      <trkpt lat="48.69815" lon="1.84595">
        <ele>173.60000610352</ele>
        <time>2014-10-29T12:41:51.000Z</time>
      </trkpt>
      <trkpt lat="48.69824" lon="1.84605">
        <ele>173.80000305176</ele>
        <time>2014-10-29T12:41:58.000Z</time>
      </trkpt>
      <trkpt lat="48.69838" lon="1.84612">
        <ele>174</ele>
        <time>2014-10-29T12:42:07.000Z</time>
      </trkpt>
      <trkpt lat="48.69849" lon="1.84617">
        <ele>174</ele>
        <time>2014-10-29T12:42:14.000Z</time>
      </trkpt>
      <trkpt lat="48.6987" lon="1.84628">
        <ele>174</ele>
        <time>2014-10-29T12:42:27.000Z</time>
      </trkpt>
      <trkpt lat="48.69883" lon="1.84636">
        <ele>173.80000305176</ele>
        <time>2014-10-29T12:42:35.000Z</time>
      </trkpt>
      <trkpt lat="48.69896" lon="1.84645">
        <ele>173.80000305176</ele>
        <time>2014-10-29T12:42:43.000Z</time>
      </trkpt>
      <trkpt lat="48.69901" lon="1.84648">
        <ele>173.60000610352</ele>
        <time>2014-10-29T12:42:47.000Z</time>
      </trkpt>
      <trkpt lat="48.6991" lon="1.84654">
        <ele>173.60000610352</ele>
        <time>2014-10-29T12:42:53.000Z</time>
      </trkpt>
      <trkpt lat="48.69921" lon="1.84661">
        <ele>173.60000610352</ele>
        <time>2014-10-29T12:43:00.000Z</time>
      </trkpt>
      <trkpt lat="48.69933" lon="1.84669">
        <ele>173.60000610352</ele>
        <time>2014-10-29T12:43:08.000Z</time>
      </trkpt>
      <trkpt lat="48.69945" lon="1.84678">
        <ele>173.60000610352</ele>
        <time>2014-10-29T12:43:16.000Z</time>
      </trkpt>
      <trkpt lat="48.69957" lon="1.84687">
        <ele>173.60000610352</ele>
        <time>2014-10-29T12:43:24.000Z</time>
      </trkpt>
      <trkpt lat="48.69966" lon="1.84696">
        <ele>173.80000305176</ele>
        <time>2014-10-29T12:43:31.000Z</time>
      </trkpt>
      <trkpt lat="48.69978" lon="1.84704">
        <ele>173.80000305176</ele>
        <time>2014-10-29T12:43:38.000Z</time>
      </trkpt>
      <trkpt lat="48.69987" lon="1.8471">
        <ele>173.80000305176</ele>
        <time>2014-10-29T12:43:43.000Z</time>
      </trkpt>
      <trkpt lat="48.69993" lon="1.84715">
        <ele>173.80000305176</ele>
        <time>2014-10-29T12:43:47.000Z</time>
      </trkpt>
      <trkpt lat="48.70005" lon="1.84724">
        <ele>173.80000305176</ele>
        <time>2014-10-29T12:43:55.000Z</time>
      </trkpt>
      <trkpt lat="48.70018" lon="1.84733">
        <ele>173.80000305176</ele>
        <time>2014-10-29T12:44:03.000Z</time>
      </trkpt>
      <trkpt lat="48.70028" lon="1.84741">
        <ele>174</ele>
        <time>2014-10-29T12:44:10.000Z</time>
      </trkpt>
      <trkpt lat="48.70037" lon="1.84748">
        <ele>174.19999694824</ele>
        <time>2014-10-29T12:44:16.000Z</time>
      </trkpt>
      <trkpt lat="48.70054" lon="1.84762">
        <ele>174.39999389648</ele>
        <time>2014-10-29T12:44:27.000Z</time>
      </trkpt>
      <trkpt lat="48.70073" lon="1.84776">
        <ele>174.60000610352</ele>
        <time>2014-10-29T12:44:39.000Z</time>
      </trkpt>
      <trkpt lat="48.70086" lon="1.84772">
        <ele>174.80000305176</ele>
        <time>2014-10-29T12:44:47.000Z</time>
      </trkpt>
      <trkpt lat="48.70102" lon="1.84763">
        <ele>175</ele>
        <time>2014-10-29T12:44:56.000Z</time>
      </trkpt>
      <trkpt lat="48.70111" lon="1.84756">
        <ele>175</ele>
        <time>2014-10-29T12:45:02.000Z</time>
      </trkpt>
      <trkpt lat="48.70119" lon="1.84751">
        <ele>175.19999694824</ele>
        <time>2014-10-29T12:45:07.000Z</time>
      </trkpt>
      <trkpt lat="48.70126" lon="1.84745">
        <ele>175.19999694824</ele>
        <time>2014-10-29T12:45:12.000Z</time>
      </trkpt>
      <trkpt lat="48.70138" lon="1.84738">
        <ele>175.39999389648</ele>
        <time>2014-10-29T12:45:19.000Z</time>
      </trkpt>
      <trkpt lat="48.70146" lon="1.84733">
        <ele>175.39999389648</ele>
        <time>2014-10-29T12:45:24.000Z</time>
      </trkpt>
      <trkpt lat="48.70154" lon="1.84728">
        <ele>175.39999389648</ele>
        <time>2014-10-29T12:45:29.000Z</time>
      </trkpt>
      <trkpt lat="48.70169" lon="1.84718">
        <ele>175.60000610352</ele>
        <time>2014-10-29T12:45:37.000Z</time>
      </trkpt>
      <trkpt lat="48.7019" lon="1.847">
        <ele>175.39999389648</ele>
        <time>2014-10-29T12:45:44.000Z</time>
      </trkpt>
      <trkpt lat="48.70212" lon="1.84673">
        <ele>175</ele>
        <time>2014-10-29T12:45:52.000Z</time>
      </trkpt>
      <trkpt lat="48.7023" lon="1.84642">
        <ele>174.39999389648</ele>
        <time>2014-10-29T12:45:59.000Z</time>
      </trkpt>
      <trkpt lat="48.70248" lon="1.84606">
        <ele>174.60000610352</ele>
        <time>2014-10-29T12:46:06.000Z</time>
      </trkpt>
      <trkpt lat="48.7027" lon="1.84562">
        <ele>175.80000305176</ele>
        <time>2014-10-29T12:46:15.000Z</time>
      </trkpt>
      <trkpt lat="48.70298" lon="1.84506">
        <ele>175.39999389648</ele>
        <time>2014-10-29T12:46:26.000Z</time>
      </trkpt>
      <trkpt lat="48.70322" lon="1.84455">
        <ele>175.60000610352</ele>
        <time>2014-10-29T12:46:35.000Z</time>
      </trkpt>
      <trkpt lat="48.7035" lon="1.8439">
        <ele>176</ele>
        <time>2014-10-29T12:46:45.000Z</time>
      </trkpt>
      <trkpt lat="48.70366" lon="1.84358">
        <ele>176.19999694824</ele>
        <time>2014-10-29T12:46:51.000Z</time>
      </trkpt>
      <trkpt lat="48.70382" lon="1.84326">
        <ele>176</ele>
        <time>2014-10-29T12:46:57.000Z</time>
      </trkpt>
      <trkpt lat="48.70396" lon="1.84291">
        <ele>175.60000610352</ele>
        <time>2014-10-29T12:47:03.000Z</time>
      </trkpt>
      <trkpt lat="48.7041" lon="1.84265">
        <ele>175.39999389648</ele>
        <time>2014-10-29T12:47:08.000Z</time>
      </trkpt>
      <trkpt lat="48.70436" lon="1.84213">
        <ele>175</ele>
        <time>2014-10-29T12:47:18.000Z</time>
      </trkpt>
      <trkpt lat="48.70451" lon="1.84183">
        <ele>175.19999694824</ele>
        <time>2014-10-29T12:47:24.000Z</time>
      </trkpt>
      <trkpt lat="48.70481" lon="1.84137">
        <ele>176.19999694824</ele>
        <time>2014-10-29T12:47:34.000Z</time>
      </trkpt>
      <trkpt lat="48.70493" lon="1.84119">
        <ele>176.60000610352</ele>
        <time>2014-10-29T12:47:38.000Z</time>
      </trkpt>
      <trkpt lat="48.70505" lon="1.84103">
        <ele>176.80000305176</ele>
        <time>2014-10-29T12:47:44.000Z</time>
      </trkpt>
      <trkpt lat="48.70512" lon="1.84094">
        <ele>176.80000305176</ele>
        <time>2014-10-29T12:47:49.000Z</time>
      </trkpt>
      <trkpt lat="48.70514" lon="1.84093">
        <ele>177</ele>
        <time>2014-10-29T12:47:50.000Z</time>
      </trkpt>
      <trkpt lat="48.70527" lon="1.84079">
        <ele>177</ele>
        <time>2014-10-29T12:47:59.000Z</time>
      </trkpt>
      <trkpt lat="48.70543" lon="1.84063">
        <ele>176.80000305176</ele>
        <time>2014-10-29T12:48:10.000Z</time>
      </trkpt>
      <trkpt lat="48.70555" lon="1.84052">
        <ele>176.80000305176</ele>
        <time>2014-10-29T12:48:18.000Z</time>
      </trkpt>
      <trkpt lat="48.70567" lon="1.84041">
        <ele>176.60000610352</ele>
        <time>2014-10-29T12:48:26.000Z</time>
      </trkpt>
      <trkpt lat="48.70584" lon="1.84027">
        <ele>176.39999389648</ele>
        <time>2014-10-29T12:48:37.000Z</time>
      </trkpt>
      <trkpt lat="48.70595" lon="1.84018">
        <ele>176.39999389648</ele>
        <time>2014-10-29T12:48:44.000Z</time>
      </trkpt>
      <trkpt lat="48.70611" lon="1.84005">
        <ele>176.19999694824</ele>
        <time>2014-10-29T12:48:54.000Z</time>
      </trkpt>
      <trkpt lat="48.70619" lon="1.83996">
        <ele>176</ele>
        <time>2014-10-29T12:49:00.000Z</time>
      </trkpt>
      <trkpt lat="48.70626" lon="1.83989">
        <ele>176</ele>
        <time>2014-10-29T12:49:05.000Z</time>
      </trkpt>
      <trkpt lat="48.70642" lon="1.83975">
        <ele>176.39999389648</ele>
        <time>2014-10-29T12:49:15.000Z</time>
      </trkpt>
      <trkpt lat="48.70647" lon="1.83969">
        <ele>176.39999389648</ele>
        <time>2014-10-29T12:49:19.000Z</time>
      </trkpt>
      <trkpt lat="48.70658" lon="1.83952">
        <ele>176.80000305176</ele>
        <time>2014-10-29T12:49:28.000Z</time>
      </trkpt>
      <trkpt lat="48.70665" lon="1.83942">
        <ele>176.80000305176</ele>
        <time>2014-10-29T12:49:34.000Z</time>
      </trkpt>
      <trkpt lat="48.70668" lon="1.83937">
        <ele>176.80000305176</ele>
        <time>2014-10-29T12:49:37.000Z</time>
      </trkpt>
      <trkpt lat="48.70679" lon="1.83921">
        <ele>177</ele>
        <time>2014-10-29T12:49:46.000Z</time>
      </trkpt>
      <trkpt lat="48.70688" lon="1.83906">
        <ele>177</ele>
        <time>2014-10-29T12:49:54.000Z</time>
      </trkpt>
      <trkpt lat="48.7069" lon="1.83902">
        <ele>177.19999694824</ele>
        <time>2014-10-29T12:49:56.000Z</time>
      </trkpt>
      <trkpt lat="48.70695" lon="1.83893">
        <ele>177.39999389648</ele>
        <time>2014-10-29T12:50:00.000Z</time>
      </trkpt>
      <trkpt lat="48.70709" lon="1.83874">
        <ele>178</ele>
        <time>2014-10-29T12:50:10.000Z</time>
      </trkpt>
      <trkpt lat="48.70719" lon="1.8386">
        <ele>178.39999389648</ele>
        <time>2014-10-29T12:50:18.000Z</time>
      </trkpt>
      <trkpt lat="48.70727" lon="1.83849">
        <ele>178.39999389648</ele>
        <time>2014-10-29T12:50:24.000Z</time>
      </trkpt>
      <trkpt lat="48.70739" lon="1.83833">
        <ele>178.19999694824</ele>
        <time>2014-10-29T12:50:34.000Z</time>
      </trkpt>
      <trkpt lat="48.70744" lon="1.83824">
        <ele>178</ele>
        <time>2014-10-29T12:50:39.000Z</time>
      </trkpt>
      <trkpt lat="48.70756" lon="1.83806">
        <ele>178.39999389648</ele>
        <time>2014-10-29T12:50:49.000Z</time>
      </trkpt>
      <trkpt lat="48.70763" lon="1.83797">
        <ele>178.39999389648</ele>
        <time>2014-10-29T12:50:54.000Z</time>
      </trkpt>
      <trkpt lat="48.70775" lon="1.83783">
        <ele>178.39999389648</ele>
        <time>2014-10-29T12:51:02.000Z</time>
      </trkpt>
      <trkpt lat="48.70789" lon="1.83766">
        <ele>178.60000610352</ele>
        <time>2014-10-29T12:51:12.000Z</time>
      </trkpt>
      <trkpt lat="48.70795" lon="1.83757">
        <ele>178.80000305176</ele>
        <time>2014-10-29T12:51:17.000Z</time>
      </trkpt>
      <trkpt lat="48.70809" lon="1.83743">
        <ele>179</ele>
        <time>2014-10-29T12:51:26.000Z</time>
      </trkpt>
      <trkpt lat="48.70821" lon="1.83729">
        <ele>179</ele>
        <time>2014-10-29T12:51:35.000Z</time>
      </trkpt>
      <trkpt lat="48.70835" lon="1.83712">
        <ele>179</ele>
        <time>2014-10-29T12:51:45.000Z</time>
      </trkpt>
      <trkpt lat="48.70838" lon="1.83708">
        <ele>179</ele>
        <time>2014-10-29T12:51:47.000Z</time>
      </trkpt>
      <trkpt lat="48.70846" lon="1.83699">
        <ele>179</ele>
        <time>2014-10-29T12:51:53.000Z</time>
      </trkpt>
      <trkpt lat="48.70861" lon="1.83684">
        <ele>179</ele>
        <time>2014-10-29T12:52:03.000Z</time>
      </trkpt>
      <trkpt lat="48.70876" lon="1.83667">
        <ele>179</ele>
        <time>2014-10-29T12:52:13.000Z</time>
      </trkpt>
      <trkpt lat="48.70891" lon="1.8365">
        <ele>179</ele>
        <time>2014-10-29T12:52:24.000Z</time>
      </trkpt>
      <trkpt lat="48.70902" lon="1.83641">
        <ele>178.80000305176</ele>
        <time>2014-10-29T12:52:31.000Z</time>
      </trkpt>
      <trkpt lat="48.70913" lon="1.83632">
        <ele>178.80000305176</ele>
        <time>2014-10-29T12:52:38.000Z</time>
      </trkpt>
      <trkpt lat="48.70924" lon="1.83625">
        <ele>178.80000305176</ele>
        <time>2014-10-29T12:52:45.000Z</time>
      </trkpt>
      <trkpt lat="48.70939" lon="1.83616">
        <ele>179</ele>
        <time>2014-10-29T12:52:55.000Z</time>
      </trkpt>
      <trkpt lat="48.70944" lon="1.83612">
        <ele>179</ele>
        <time>2014-10-29T12:52:59.000Z</time>
      </trkpt>
      <trkpt lat="48.70949" lon="1.83611">
        <ele>178.80000305176</ele>
        <time>2014-10-29T12:53:05.000Z</time>
      </trkpt>
      <trkpt lat="48.70965" lon="1.83601">
        <ele>178.60000610352</ele>
        <time>2014-10-29T12:53:15.000Z</time>
      </trkpt>
      <trkpt lat="48.70985" lon="1.83589">
        <ele>178.39999389648</ele>
        <time>2014-10-29T12:53:26.000Z</time>
      </trkpt>
      <trkpt lat="48.70988" lon="1.83588">
        <ele>178.39999389648</ele>
        <time>2014-10-29T12:53:28.000Z</time>
      </trkpt>
      <trkpt lat="48.71002" lon="1.83579">
        <ele>178.19999694824</ele>
        <time>2014-10-29T12:53:36.000Z</time>
      </trkpt>
      <trkpt lat="48.71016" lon="1.83569">
        <ele>178</ele>
        <time>2014-10-29T12:53:45.000Z</time>
      </trkpt>
      <trkpt lat="48.71031" lon="1.8356">
        <ele>178.39999389648</ele>
        <time>2014-10-29T12:53:54.000Z</time>
      </trkpt>
      <trkpt lat="48.71044" lon="1.83549">
        <ele>178.80000305176</ele>
        <time>2014-10-29T12:54:02.000Z</time>
      </trkpt>
      <trkpt lat="48.71052" lon="1.83543">
        <ele>179.19999694824</ele>
        <time>2014-10-29T12:54:07.000Z</time>
      </trkpt>
      <trkpt lat="48.71055" lon="1.83541">
        <ele>179.19999694824</ele>
        <time>2014-10-29T12:54:09.000Z</time>
      </trkpt>
      <trkpt lat="48.71071" lon="1.83529">
        <ele>179.80000305176</ele>
        <time>2014-10-29T12:54:19.000Z</time>
      </trkpt>
      <trkpt lat="48.7108" lon="1.83523">
        <ele>179.80000305176</ele>
        <time>2014-10-29T12:54:24.000Z</time>
      </trkpt>
      <trkpt lat="48.71091" lon="1.83516">
        <ele>180</ele>
        <time>2014-10-29T12:54:31.000Z</time>
      </trkpt>
      <trkpt lat="48.71101" lon="1.8351">
        <ele>180.19999694824</ele>
        <time>2014-10-29T12:54:38.000Z</time>
      </trkpt>
      <trkpt lat="48.71105" lon="1.83505">
        <ele>180.39999389648</ele>
        <time>2014-10-29T12:54:41.000Z</time>
      </trkpt>
      <trkpt lat="48.71116" lon="1.83496">
        <ele>181.19999694824</ele>
        <time>2014-10-29T12:54:48.000Z</time>
      </trkpt>
      <trkpt lat="48.71125" lon="1.83486">
        <ele>181.80000305176</ele>
        <time>2014-10-29T12:54:55.000Z</time>
      </trkpt>
      <trkpt lat="48.71136" lon="1.83485">
        <ele>182.80000305176</ele>
        <time>2014-10-29T12:55:02.000Z</time>
      </trkpt>
      <trkpt lat="48.7114" lon="1.83487">
        <ele>183</ele>
        <time>2014-10-29T12:55:05.000Z</time>
      </trkpt>
      <trkpt lat="48.71135" lon="1.83503">
        <ele>183</ele>
        <time>2014-10-29T12:55:12.000Z</time>
      </trkpt>
      <trkpt lat="48.71129" lon="1.83519">
        <ele>182.80000305176</ele>
        <time>2014-10-29T12:55:19.000Z</time>
      </trkpt>
      <trkpt lat="48.71125" lon="1.83539">
        <ele>182.60000610352</ele>
        <time>2014-10-29T12:55:27.000Z</time>
      </trkpt>
      <trkpt lat="48.7112" lon="1.83563">
        <ele>182.39999389648</ele>
        <time>2014-10-29T12:55:36.000Z</time>
      </trkpt>
      <trkpt lat="48.71118" lon="1.83569">
        <ele>182.39999389648</ele>
        <time>2014-10-29T12:55:40.000Z</time>
      </trkpt>
      <trkpt lat="48.71117" lon="1.83569">
        <ele>182.19999694824</ele>
        <time>2014-10-29T12:55:41.000Z</time>
      </trkpt>
      <trkpt lat="48.71116" lon="1.83575">
        <ele>182.19999694824</ele>
        <time>2014-10-29T12:56:11.000Z</time>
      </trkpt>
      <trkpt lat="48.71114" lon="1.83582">
        <ele>182.19999694824</ele>
        <time>2014-10-29T12:56:16.000Z</time>
      </trkpt>
      <trkpt lat="48.71113" lon="1.8359">
        <ele>182.19999694824</ele>
        <time>2014-10-29T12:56:23.000Z</time>
      </trkpt>
      <trkpt lat="48.71107" lon="1.83609">
        <ele>181.80000305176</ele>
        <time>2014-10-29T12:56:30.000Z</time>
      </trkpt>
      <trkpt lat="48.71101" lon="1.83627">
        <ele>181.60000610352</ele>
        <time>2014-10-29T12:56:38.000Z</time>
      </trkpt>
      <trkpt lat="48.71096" lon="1.83643">
        <ele>181.60000610352</ele>
        <time>2014-10-29T12:56:45.000Z</time>
      </trkpt>
      <trkpt lat="48.71093" lon="1.83655">
        <ele>181.60000610352</ele>
        <time>2014-10-29T12:56:50.000Z</time>
      </trkpt>
      <trkpt lat="48.71089" lon="1.83678">
        <ele>182.19999694824</ele>
        <time>2014-10-29T12:56:59.000Z</time>
      </trkpt>
      <trkpt lat="48.71088" lon="1.83686">
        <ele>182.39999389648</ele>
        <time>2014-10-29T12:57:02.000Z</time>
      </trkpt>
      <trkpt lat="48.71084" lon="1.83694">
        <ele>182.39999389648</ele>
        <time>2014-10-29T12:57:06.000Z</time>
      </trkpt>
      <trkpt lat="48.71077" lon="1.83716">
        <ele>182.80000305176</ele>
        <time>2014-10-29T12:57:15.000Z</time>
      </trkpt>
      <trkpt lat="48.71076" lon="1.83719">
        <ele>182.60000610352</ele>
        <time>2014-10-29T12:57:16.000Z</time>
      </trkpt>
      <trkpt lat="48.71074" lon="1.83729">
        <ele>182.60000610352</ele>
        <time>2014-10-29T12:57:20.000Z</time>
      </trkpt>
      <trkpt lat="48.71069" lon="1.83744">
        <ele>182.19999694824</ele>
        <time>2014-10-29T12:57:27.000Z</time>
      </trkpt>
      <trkpt lat="48.71069" lon="1.83745">
        <ele>182.19999694824</ele>
        <time>2014-10-29T12:57:29.000Z</time>
      </trkpt>
      <trkpt lat="48.71068" lon="1.83751">
        <ele>182.19999694824</ele>
        <time>2014-10-29T12:57:34.000Z</time>
      </trkpt>
      <trkpt lat="48.71064" lon="1.83765">
        <ele>182</ele>
        <time>2014-10-29T12:57:39.000Z</time>
      </trkpt>
      <trkpt lat="48.71061" lon="1.83776">
        <ele>181.80000305176</ele>
        <time>2014-10-29T12:57:44.000Z</time>
      </trkpt>
      <trkpt lat="48.71055" lon="1.83795">
        <ele>181.80000305176</ele>
        <time>2014-10-29T12:57:52.000Z</time>
      </trkpt>
      <trkpt lat="48.71049" lon="1.83816">
        <ele>182</ele>
        <time>2014-10-29T12:58:01.000Z</time>
      </trkpt>
      <trkpt lat="48.71044" lon="1.83829">
        <ele>182</ele>
        <time>2014-10-29T12:58:07.000Z</time>
      </trkpt>
      <trkpt lat="48.7104" lon="1.83843">
        <ele>182</ele>
        <time>2014-10-29T12:58:13.000Z</time>
      </trkpt>
      <trkpt lat="48.71036" lon="1.83857">
        <ele>181.80000305176</ele>
        <time>2014-10-29T12:58:18.000Z</time>
      </trkpt>
      <trkpt lat="48.71031" lon="1.83872">
        <ele>181.60000610352</ele>
        <time>2014-10-29T12:58:23.000Z</time>
      </trkpt>
      <trkpt lat="48.7103" lon="1.83877">
        <ele>181.39999389648</ele>
        <time>2014-10-29T12:58:28.000Z</time>
      </trkpt>
      <trkpt lat="48.7103" lon="1.83881">
        <ele>181.60000610352</ele>
        <time>2014-10-29T12:58:41.000Z</time>
      </trkpt>
      <trkpt lat="48.71023" lon="1.83903">
        <ele>181.19999694824</ele>
        <time>2014-10-29T12:58:49.000Z</time>
      </trkpt>
      <trkpt lat="48.71016" lon="1.83924">
        <ele>181.19999694824</ele>
        <time>2014-10-29T12:58:58.000Z</time>
      </trkpt>
      <trkpt lat="48.7101" lon="1.83945">
        <ele>181.19999694824</ele>
        <time>2014-10-29T12:59:07.000Z</time>
      </trkpt>
      <trkpt lat="48.71004" lon="1.83964">
        <ele>181.39999389648</ele>
        <time>2014-10-29T12:59:15.000Z</time>
      </trkpt>
      <trkpt lat="48.70998" lon="1.83983">
        <ele>181.19999694824</ele>
        <time>2014-10-29T12:59:23.000Z</time>
      </trkpt>
      <trkpt lat="48.70989" lon="1.84009">
        <ele>181.39999389648</ele>
        <time>2014-10-29T12:59:34.000Z</time>
      </trkpt>
      <trkpt lat="48.70982" lon="1.84034">
        <ele>181.60000610352</ele>
        <time>2014-10-29T12:59:44.000Z</time>
      </trkpt>
      <trkpt lat="48.70975" lon="1.84055">
        <ele>181.60000610352</ele>
        <time>2014-10-29T12:59:53.000Z</time>
      </trkpt>
      <trkpt lat="48.70977" lon="1.84062">
        <ele>181.80000305176</ele>
        <time>2014-10-29T12:59:56.000Z</time>
      </trkpt>
      <trkpt lat="48.70984" lon="1.84068">
        <ele>182.19999694824</ele>
        <time>2014-10-29T13:00:02.000Z</time>
      </trkpt>
      <trkpt lat="48.70989" lon="1.84073">
        <ele>182.60000610352</ele>
        <time>2014-10-29T13:00:06.000Z</time>
      </trkpt>
      <trkpt lat="48.70996" lon="1.8408">
        <ele>183</ele>
        <time>2014-10-29T13:00:13.000Z</time>
      </trkpt>
      <trkpt lat="48.71008" lon="1.84092">
        <ele>183.80000305176</ele>
        <time>2014-10-29T13:00:21.000Z</time>
      </trkpt>
      <trkpt lat="48.71015" lon="1.84098">
        <ele>184.39999389648</ele>
        <time>2014-10-29T13:00:26.000Z</time>
      </trkpt>
      <trkpt lat="48.71026" lon="1.84106">
        <ele>184.60000610352</ele>
        <time>2014-10-29T13:00:32.000Z</time>
      </trkpt>
      <trkpt lat="48.71036" lon="1.84117">
        <ele>184.60000610352</ele>
        <time>2014-10-29T13:00:38.000Z</time>
      </trkpt>
      <trkpt lat="48.71044" lon="1.84124">
        <ele>184.39999389648</ele>
        <time>2014-10-29T13:00:44.000Z</time>
      </trkpt>
      <trkpt lat="48.71055" lon="1.84133">
        <ele>184.19999694824</ele>
        <time>2014-10-29T13:00:51.000Z</time>
      </trkpt>
      <trkpt lat="48.7106" lon="1.84136">
        <ele>184.19999694824</ele>
        <time>2014-10-29T13:00:55.000Z</time>
      </trkpt>
      <trkpt lat="48.71069" lon="1.84143">
        <ele>184</ele>
        <time>2014-10-29T13:01:01.000Z</time>
      </trkpt>
      <trkpt lat="48.71074" lon="1.84146">
        <ele>183.80000305176</ele>
        <time>2014-10-29T13:01:04.000Z</time>
      </trkpt>
      <trkpt lat="48.71085" lon="1.84151">
        <ele>183.60000610352</ele>
        <time>2014-10-29T13:01:09.000Z</time>
      </trkpt>
      <trkpt lat="48.71093" lon="1.84158">
        <ele>183.39999389648</ele>
        <time>2014-10-29T13:01:15.000Z</time>
      </trkpt>
      <trkpt lat="48.71097" lon="1.84163">
        <ele>183.19999694824</ele>
        <time>2014-10-29T13:01:18.000Z</time>
      </trkpt>
      <trkpt lat="48.7111" lon="1.84174">
        <ele>182.60000610352</ele>
        <time>2014-10-29T13:01:26.000Z</time>
      </trkpt>
      <trkpt lat="48.71122" lon="1.8418">
        <ele>182.19999694824</ele>
        <time>2014-10-29T13:01:34.000Z</time>
      </trkpt>
      <trkpt lat="48.71131" lon="1.84185">
        <ele>182</ele>
        <time>2014-10-29T13:01:40.000Z</time>
      </trkpt>
      <trkpt lat="48.71134" lon="1.84187">
        <ele>182</ele>
        <time>2014-10-29T13:01:43.000Z</time>
      </trkpt>
      <trkpt lat="48.7114" lon="1.84194">
        <ele>181.60000610352</ele>
        <time>2014-10-29T13:01:49.000Z</time>
      </trkpt>
      <trkpt lat="48.7115" lon="1.84204">
        <ele>181.39999389648</ele>
        <time>2014-10-29T13:01:55.000Z</time>
      </trkpt>
      <trkpt lat="48.7116" lon="1.84209">
        <ele>181</ele>
        <time>2014-10-29T13:02:00.000Z</time>
      </trkpt>
      <trkpt lat="48.71163" lon="1.84211">
        <ele>180.80000305176</ele>
        <time>2014-10-29T13:02:04.000Z</time>
      </trkpt>
      <trkpt lat="48.71167" lon="1.84214">
        <ele>180.80000305176</ele>
        <time>2014-10-29T13:02:09.000Z</time>
      </trkpt>
      <trkpt lat="48.71178" lon="1.84222">
        <ele>180.39999389648</ele>
        <time>2014-10-29T13:02:15.000Z</time>
      </trkpt>
      <trkpt lat="48.71187" lon="1.84226">
        <ele>180.19999694824</ele>
        <time>2014-10-29T13:02:21.000Z</time>
      </trkpt>
      <trkpt lat="48.71193" lon="1.84233">
        <ele>179.60000610352</ele>
        <time>2014-10-29T13:02:25.000Z</time>
      </trkpt>
      <trkpt lat="48.71196" lon="1.84239">
        <ele>179.39999389648</ele>
        <time>2014-10-29T13:02:29.000Z</time>
      </trkpt>
      <trkpt lat="48.71203" lon="1.84245">
        <ele>178.80000305176</ele>
        <time>2014-10-29T13:02:35.000Z</time>
      </trkpt>
      <trkpt lat="48.71205" lon="1.84248">
        <ele>178.60000610352</ele>
        <time>2014-10-29T13:02:37.000Z</time>
      </trkpt>
      <trkpt lat="48.71211" lon="1.84252">
        <ele>178.19999694824</ele>
        <time>2014-10-29T13:02:41.000Z</time>
      </trkpt>
      <trkpt lat="48.71217" lon="1.84259">
        <ele>177.60000610352</ele>
        <time>2014-10-29T13:02:46.000Z</time>
      </trkpt>
      <trkpt lat="48.71227" lon="1.84266">
        <ele>176.80000305176</ele>
        <time>2014-10-29T13:02:52.000Z</time>
      </trkpt>
      <trkpt lat="48.71232" lon="1.8427">
        <ele>176.39999389648</ele>
        <time>2014-10-29T13:02:55.000Z</time>
      </trkpt>
      <trkpt lat="48.71246" lon="1.84282">
        <ele>175.19999694824</ele>
        <time>2014-10-29T13:03:04.000Z</time>
      </trkpt>
      <trkpt lat="48.71259" lon="1.8429">
        <ele>174.19999694824</ele>
        <time>2014-10-29T13:03:10.000Z</time>
      </trkpt>
      <trkpt lat="48.71272" lon="1.84298">
        <ele>173.19999694824</ele>
        <time>2014-10-29T13:03:16.000Z</time>
      </trkpt>
      <trkpt lat="48.71292" lon="1.84313">
        <ele>172</ele>
        <time>2014-10-29T13:03:27.000Z</time>
      </trkpt>
      <trkpt lat="48.71308" lon="1.84323">
        <ele>171.19999694824</ele>
        <time>2014-10-29T13:03:36.000Z</time>
      </trkpt>
      <trkpt lat="48.71315" lon="1.8433">
        <ele>170.80000305176</ele>
        <time>2014-10-29T13:03:41.000Z</time>
      </trkpt>
      <trkpt lat="48.71325" lon="1.84336">
        <ele>170.39999389648</ele>
        <time>2014-10-29T13:03:48.000Z</time>
      </trkpt>
      <trkpt lat="48.71338" lon="1.84346">
        <ele>169.80000305176</ele>
        <time>2014-10-29T13:03:56.000Z</time>
      </trkpt>
      <trkpt lat="48.71347" lon="1.84354">
        <ele>169.39999389648</ele>
        <time>2014-10-29T13:04:02.000Z</time>
      </trkpt>
      <trkpt lat="48.71356" lon="1.84362">
        <ele>169</ele>
        <time>2014-10-29T13:04:09.000Z</time>
      </trkpt>
      <trkpt lat="48.71367" lon="1.84369">
        <ele>169</ele>
        <time>2014-10-29T13:04:16.000Z</time>
      </trkpt>
      <trkpt lat="48.71382" lon="1.84382">
        <ele>169</ele>
        <time>2014-10-29T13:04:27.000Z</time>
      </trkpt>
      <trkpt lat="48.71393" lon="1.84391">
        <ele>169</ele>
        <time>2014-10-29T13:04:34.000Z</time>
      </trkpt>
      <trkpt lat="48.71408" lon="1.844">
        <ele>169</ele>
        <time>2014-10-29T13:04:43.000Z</time>
      </trkpt>
      <trkpt lat="48.71419" lon="1.8441">
        <ele>169</ele>
        <time>2014-10-29T13:04:51.000Z</time>
      </trkpt>
      <trkpt lat="48.71429" lon="1.84418">
        <ele>169</ele>
        <time>2014-10-29T13:04:58.000Z</time>
      </trkpt>
      <trkpt lat="48.7143" lon="1.8442">
        <ele>169</ele>
        <time>2014-10-29T13:04:59.000Z</time>
      </trkpt>
      <trkpt lat="48.71439" lon="1.84426">
        <ele>169.19999694824</ele>
        <time>2014-10-29T13:05:04.000Z</time>
      </trkpt>
      <trkpt lat="48.71447" lon="1.84431">
        <ele>169.80000305176</ele>
        <time>2014-10-29T13:05:10.000Z</time>
      </trkpt>
      <trkpt lat="48.71456" lon="1.84439">
        <ele>170.39999389648</ele>
        <time>2014-10-29T13:05:16.000Z</time>
      </trkpt>
      <trkpt lat="48.71466" lon="1.84446">
        <ele>171.19999694824</ele>
        <time>2014-10-29T13:05:23.000Z</time>
      </trkpt>
      <trkpt lat="48.71477" lon="1.84454">
        <ele>171.80000305176</ele>
        <time>2014-10-29T13:05:31.000Z</time>
      </trkpt>
      <trkpt lat="48.71486" lon="1.84461">
        <ele>172.60000610352</ele>
        <time>2014-10-29T13:05:37.000Z</time>
      </trkpt>
      <trkpt lat="48.71496" lon="1.8447">
        <ele>173.19999694824</ele>
        <time>2014-10-29T13:05:43.000Z</time>
      </trkpt>
      <trkpt lat="48.71506" lon="1.84477">
        <ele>174</ele>
        <time>2014-10-29T13:05:50.000Z</time>
      </trkpt>
      <trkpt lat="48.71515" lon="1.84482">
        <ele>174.39999389648</ele>
        <time>2014-10-29T13:05:56.000Z</time>
      </trkpt>
      <trkpt lat="48.71523" lon="1.84487">
        <ele>175.19999694824</ele>
        <time>2014-10-29T13:06:02.000Z</time>
      </trkpt>
      <trkpt lat="48.71532" lon="1.84494">
        <ele>176.19999694824</ele>
        <time>2014-10-29T13:06:08.000Z</time>
      </trkpt>
      <trkpt lat="48.71538" lon="1.84496">
        <ele>176.60000610352</ele>
        <time>2014-10-29T13:06:13.000Z</time>
      </trkpt>
      <trkpt lat="48.71548" lon="1.84498">
        <ele>177.60000610352</ele>
        <time>2014-10-29T13:06:18.000Z</time>
      </trkpt>
      <trkpt lat="48.71558" lon="1.84489">
        <ele>178.60000610352</ele>
        <time>2014-10-29T13:06:25.000Z</time>
      </trkpt>
      <trkpt lat="48.71559" lon="1.84487">
        <ele>178.60000610352</ele>
        <time>2014-10-29T13:06:26.000Z</time>
      </trkpt>
      <trkpt lat="48.71566" lon="1.84466">
        <ele>177.80000305176</ele>
        <time>2014-10-29T13:06:36.000Z</time>
      </trkpt>
      <trkpt lat="48.71569" lon="1.84456">
        <ele>177.19999694824</ele>
        <time>2014-10-29T13:06:40.000Z</time>
      </trkpt>
      <trkpt lat="48.71571" lon="1.84452">
        <ele>177.60000610352</ele>
        <time>2014-10-29T13:06:42.000Z</time>
      </trkpt>
      <trkpt lat="48.71576" lon="1.84441">
        <ele>178.19999694824</ele>
        <time>2014-10-29T13:06:48.000Z</time>
      </trkpt>
      <trkpt lat="48.71577" lon="1.84439">
        <ele>178.60000610352</ele>
        <time>2014-10-29T13:06:52.000Z</time>
      </trkpt>
      <trkpt lat="48.7158" lon="1.84433">
        <ele>179</ele>
        <time>2014-10-29T13:06:59.000Z</time>
      </trkpt>
      <trkpt lat="48.71586" lon="1.84419">
        <ele>180</ele>
        <time>2014-10-29T13:07:04.000Z</time>
      </trkpt>
      <trkpt lat="48.71592" lon="1.84401">
        <ele>181</ele>
        <time>2014-10-29T13:07:10.000Z</time>
      </trkpt>
      <trkpt lat="48.716" lon="1.8438">
        <ele>181.60000610352</ele>
        <time>2014-10-29T13:07:16.000Z</time>
      </trkpt>
      <trkpt lat="48.71607" lon="1.84361">
        <ele>181.39999389648</ele>
        <time>2014-10-29T13:07:20.000Z</time>
      </trkpt>
      <trkpt lat="48.71614" lon="1.84337">
        <ele>181</ele>
        <time>2014-10-29T13:07:25.000Z</time>
      </trkpt>
      <trkpt lat="48.71622" lon="1.8431">
        <ele>180.39999389648</ele>
        <time>2014-10-29T13:07:30.000Z</time>
      </trkpt>
      <trkpt lat="48.71627" lon="1.84288">
        <ele>179.80000305176</ele>
        <time>2014-10-29T13:07:34.000Z</time>
      </trkpt>
      <trkpt lat="48.71634" lon="1.84267">
        <ele>179.19999694824</ele>
        <time>2014-10-29T13:07:39.000Z</time>
      </trkpt>
      <trkpt lat="48.71643" lon="1.84246">
        <ele>179.39999389648</ele>
        <time>2014-10-29T13:07:44.000Z</time>
      </trkpt>
      <trkpt lat="48.7165" lon="1.84224">
        <ele>179</ele>
        <time>2014-10-29T13:07:49.000Z</time>
      </trkpt>
      <trkpt lat="48.71661" lon="1.84206">
        <ele>179</ele>
        <time>2014-10-29T13:07:54.000Z</time>
      </trkpt>
      <trkpt lat="48.7167" lon="1.84189">
        <ele>179.39999389648</ele>
        <time>2014-10-29T13:07:59.000Z</time>
      </trkpt>
      <trkpt lat="48.7168" lon="1.84171">
        <ele>179.80000305176</ele>
        <time>2014-10-29T13:08:04.000Z</time>
      </trkpt>
      <trkpt lat="48.71692" lon="1.84148">
        <ele>180</ele>
        <time>2014-10-29T13:08:10.000Z</time>
      </trkpt>
      <trkpt lat="48.71701" lon="1.84127">
        <ele>180</ele>
        <time>2014-10-29T13:08:15.000Z</time>
      </trkpt>
      <trkpt lat="48.71714" lon="1.8411">
        <ele>180.19999694824</ele>
        <time>2014-10-29T13:08:20.000Z</time>
      </trkpt>
      <trkpt lat="48.71722" lon="1.84089">
        <ele>180.60000610352</ele>
        <time>2014-10-29T13:08:24.000Z</time>
      </trkpt>
      <trkpt lat="48.7173" lon="1.84063">
        <ele>180.60000610352</ele>
        <time>2014-10-29T13:08:29.000Z</time>
      </trkpt>
      <trkpt lat="48.71738" lon="1.8404">
        <ele>180.19999694824</ele>
        <time>2014-10-29T13:08:34.000Z</time>
      </trkpt>
      <trkpt lat="48.71747" lon="1.84019">
        <ele>180.60000610352</ele>
        <time>2014-10-29T13:08:39.000Z</time>
      </trkpt>
      <trkpt lat="48.71757" lon="1.83995">
        <ele>180.80000305176</ele>
        <time>2014-10-29T13:08:44.000Z</time>
      </trkpt>
      <trkpt lat="48.71763" lon="1.83961">
        <ele>180.60000610352</ele>
        <time>2014-10-29T13:08:49.000Z</time>
      </trkpt>
      <trkpt lat="48.71766" lon="1.83933">
        <ele>180.39999389648</ele>
        <time>2014-10-29T13:08:54.000Z</time>
      </trkpt>
      <trkpt lat="48.71771" lon="1.83914">
        <ele>180.19999694824</ele>
        <time>2014-10-29T13:09:00.000Z</time>
      </trkpt>
      <trkpt lat="48.71777" lon="1.8388">
        <ele>180</ele>
        <time>2014-10-29T13:09:08.000Z</time>
      </trkpt>
      <trkpt lat="48.71783" lon="1.83853">
        <ele>179.80000305176</ele>
        <time>2014-10-29T13:09:16.000Z</time>
      </trkpt>
      <trkpt lat="48.71787" lon="1.83835">
        <ele>179.80000305176</ele>
        <time>2014-10-29T13:09:23.000Z</time>
      </trkpt>
      <trkpt lat="48.71793" lon="1.83823">
        <ele>180.19999694824</ele>
        <time>2014-10-29T13:09:30.000Z</time>
      </trkpt>
      <trkpt lat="48.71796" lon="1.83802">
        <ele>180.19999694824</ele>
        <time>2014-10-29T13:09:37.000Z</time>
      </trkpt>
      <trkpt lat="48.71798" lon="1.83792">
        <ele>180.19999694824</ele>
        <time>2014-10-29T13:09:40.000Z</time>
      </trkpt>
      <trkpt lat="48.71799" lon="1.83777">
        <ele>180.19999694824</ele>
        <time>2014-10-29T13:09:46.000Z</time>
      </trkpt>
      <trkpt lat="48.718" lon="1.83772">
        <ele>180.19999694824</ele>
        <time>2014-10-29T13:09:48.000Z</time>
      </trkpt>
      <trkpt lat="48.71804" lon="1.83758">
        <ele>180.19999694824</ele>
        <time>2014-10-29T13:09:54.000Z</time>
      </trkpt>
      <trkpt lat="48.71805" lon="1.83742">
        <ele>180</ele>
        <time>2014-10-29T13:09:59.000Z</time>
      </trkpt>
      <trkpt lat="48.71809" lon="1.83721">
        <ele>179.60000610352</ele>
        <time>2014-10-29T13:10:07.000Z</time>
      </trkpt>
      <trkpt lat="48.71812" lon="1.83709">
        <ele>179.39999389648</ele>
        <time>2014-10-29T13:10:11.000Z</time>
      </trkpt>
      <trkpt lat="48.71816" lon="1.83686">
        <ele>179.39999389648</ele>
        <time>2014-10-29T13:10:20.000Z</time>
      </trkpt>
      <trkpt lat="48.71821" lon="1.83655">
        <ele>179.39999389648</ele>
        <time>2014-10-29T13:10:30.000Z</time>
      </trkpt>
      <trkpt lat="48.71826" lon="1.83625">
        <ele>180.19999694824</ele>
        <time>2014-10-29T13:10:41.000Z</time>
      </trkpt>
      <trkpt lat="48.71832" lon="1.83608">
        <ele>180.39999389648</ele>
        <time>2014-10-29T13:10:48.000Z</time>
      </trkpt>
      <trkpt lat="48.71837" lon="1.83591">
        <ele>180.19999694824</ele>
        <time>2014-10-29T13:10:54.000Z</time>
      </trkpt>
      <trkpt lat="48.71841" lon="1.83578">
        <ele>180.19999694824</ele>
        <time>2014-10-29T13:11:00.000Z</time>
      </trkpt>
      <trkpt lat="48.71847" lon="1.83563">
        <ele>180</ele>
        <time>2014-10-29T13:11:07.000Z</time>
      </trkpt>
      <trkpt lat="48.71853" lon="1.83545">
        <ele>180</ele>
        <time>2014-10-29T13:11:15.000Z</time>
      </trkpt>
      <trkpt lat="48.71855" lon="1.83532">
        <ele>179.60000610352</ele>
        <time>2014-10-29T13:11:21.000Z</time>
      </trkpt>
      <trkpt lat="48.7186" lon="1.83517">
        <ele>179.39999389648</ele>
        <time>2014-10-29T13:11:28.000Z</time>
      </trkpt>
      <trkpt lat="48.71867" lon="1.83499">
        <ele>179.39999389648</ele>
        <time>2014-10-29T13:11:36.000Z</time>
      </trkpt>
      <trkpt lat="48.71869" lon="1.83489">
        <ele>179.19999694824</ele>
        <time>2014-10-29T13:11:42.000Z</time>
      </trkpt>
      <trkpt lat="48.71868" lon="1.8349">
        <ele>179.19999694824</ele>
        <time>2014-10-29T13:12:27.000Z</time>
      </trkpt>
      <trkpt lat="48.71863" lon="1.83499">
        <ele>179</ele>
        <time>2014-10-29T13:12:31.000Z</time>
      </trkpt>
      <trkpt lat="48.7186" lon="1.83511">
        <ele>179.19999694824</ele>
        <time>2014-10-29T13:12:36.000Z</time>
      </trkpt>
      <trkpt lat="48.71853" lon="1.83532">
        <ele>179.39999389648</ele>
        <time>2014-10-29T13:12:42.000Z</time>
      </trkpt>
      <trkpt lat="48.71844" lon="1.83559">
        <ele>179.39999389648</ele>
        <time>2014-10-29T13:12:48.000Z</time>
      </trkpt>
      <trkpt lat="48.71833" lon="1.83592">
        <ele>180</ele>
        <time>2014-10-29T13:12:56.000Z</time>
      </trkpt>
      <trkpt lat="48.71822" lon="1.83629">
        <ele>180</ele>
        <time>2014-10-29T13:13:04.000Z</time>
      </trkpt>
      <trkpt lat="48.71814" lon="1.83659">
        <ele>178.80000305176</ele>
        <time>2014-10-29T13:13:10.000Z</time>
      </trkpt>
      <trkpt lat="48.71807" lon="1.83684">
        <ele>178.19999694824</ele>
        <time>2014-10-29T13:13:15.000Z</time>
      </trkpt>
      <trkpt lat="48.71813" lon="1.83702">
        <ele>179.19999694824</ele>
        <time>2014-10-29T13:13:20.000Z</time>
      </trkpt>
      <trkpt lat="48.71815" lon="1.83704">
        <ele>179.60000610352</ele>
        <time>2014-10-29T13:13:21.000Z</time>
      </trkpt>
      <trkpt lat="48.71832" lon="1.83721">
        <ele>181.60000610352</ele>
        <time>2014-10-29T13:13:27.000Z</time>
      </trkpt>
      <trkpt lat="48.71852" lon="1.83744">
        <ele>184</ele>
        <time>2014-10-29T13:13:34.000Z</time>
      </trkpt>
      <trkpt lat="48.71869" lon="1.83763">
        <ele>185.19999694824</ele>
        <time>2014-10-29T13:13:40.000Z</time>
      </trkpt>
      <trkpt lat="48.71882" lon="1.83778">
        <ele>186.19999694824</ele>
        <time>2014-10-29T13:13:46.000Z</time>
      </trkpt>
      <trkpt lat="48.71887" lon="1.83783">
        <ele>186.60000610352</ele>
        <time>2014-10-29T13:13:51.000Z</time>
      </trkpt>
      <trkpt lat="48.71888" lon="1.83785">
        <ele>186.80000305176</ele>
        <time>2014-10-29T13:13:52.000Z</time>
      </trkpt>
      <trkpt lat="48.71894" lon="1.83792">
        <ele>187.19999694824</ele>
        <time>2014-10-29T13:13:56.000Z</time>
      </trkpt>
      <trkpt lat="48.71902" lon="1.83801">
        <ele>187.80000305176</ele>
        <time>2014-10-29T13:14:03.000Z</time>
      </trkpt>
      <trkpt lat="48.71914" lon="1.83813">
        <ele>188.60000610352</ele>
        <time>2014-10-29T13:14:11.000Z</time>
      </trkpt>
      <trkpt lat="48.71919" lon="1.83816">
        <ele>189</ele>
        <time>2014-10-29T13:14:14.000Z</time>
      </trkpt>
      <trkpt lat="48.71927" lon="1.83822">
        <ele>189.60000610352</ele>
        <time>2014-10-29T13:14:20.000Z</time>
      </trkpt>
      <trkpt lat="48.71935" lon="1.8383">
        <ele>190</ele>
        <time>2014-10-29T13:14:26.000Z</time>
      </trkpt>
      <trkpt lat="48.71943" lon="1.83838">
        <ele>190</ele>
        <time>2014-10-29T13:14:31.000Z</time>
      </trkpt>
      <trkpt lat="48.7195" lon="1.83848">
        <ele>190.19999694824</ele>
        <time>2014-10-29T13:14:38.000Z</time>
      </trkpt>
      <trkpt lat="48.71959" lon="1.83855">
        <ele>190.19999694824</ele>
        <time>2014-10-29T13:14:44.000Z</time>
      </trkpt>
      <trkpt lat="48.71971" lon="1.83865">
        <ele>190.39999389648</ele>
        <time>2014-10-29T13:14:51.000Z</time>
      </trkpt>
      <trkpt lat="48.71983" lon="1.83878">
        <ele>190.60000610352</ele>
        <time>2014-10-29T13:14:58.000Z</time>
      </trkpt>
      <trkpt lat="48.71989" lon="1.83887">
        <ele>190.60000610352</ele>
        <time>2014-10-29T13:15:03.000Z</time>
      </trkpt>
      <trkpt lat="48.71998" lon="1.83895">
        <ele>190.80000305176</ele>
        <time>2014-10-29T13:15:09.000Z</time>
      </trkpt>
      <trkpt lat="48.72006" lon="1.83903">
        <ele>190.80000305176</ele>
        <time>2014-10-29T13:15:14.000Z</time>
      </trkpt>
      <trkpt lat="48.72017" lon="1.83915">
        <ele>191</ele>
        <time>2014-10-29T13:15:22.000Z</time>
      </trkpt>
      <trkpt lat="48.72026" lon="1.83926">
        <ele>191</ele>
        <time>2014-10-29T13:15:29.000Z</time>
      </trkpt>
      <trkpt lat="48.7203" lon="1.83932">
        <ele>191.19999694824</ele>
        <time>2014-10-29T13:15:33.000Z</time>
      </trkpt>
      <trkpt lat="48.72037" lon="1.8393">
        <ele>191.19999694824</ele>
        <time>2014-10-29T13:15:38.000Z</time>
      </trkpt>
      <trkpt lat="48.72046" lon="1.83914">
        <ele>190.80000305176</ele>
        <time>2014-10-29T13:15:46.000Z</time>
      </trkpt>
      <trkpt lat="48.7205" lon="1.83908">
        <ele>190.80000305176</ele>
        <time>2014-10-29T13:15:49.000Z</time>
      </trkpt>
      <trkpt lat="48.72056" lon="1.839">
        <ele>190.60000610352</ele>
        <time>2014-10-29T13:15:54.000Z</time>
      </trkpt>
      <trkpt lat="48.72062" lon="1.83888">
        <ele>190.19999694824</ele>
        <time>2014-10-29T13:16:00.000Z</time>
      </trkpt>
      <trkpt lat="48.72072" lon="1.83868">
        <ele>190</ele>
        <time>2014-10-29T13:16:09.000Z</time>
      </trkpt>
      <trkpt lat="48.7208" lon="1.83851">
        <ele>190</ele>
        <time>2014-10-29T13:16:16.000Z</time>
      </trkpt>
      <trkpt lat="48.72086" lon="1.83839">
        <ele>190</ele>
        <time>2014-10-29T13:16:22.000Z</time>
      </trkpt>
      <trkpt lat="48.72093" lon="1.8382">
        <ele>190</ele>
        <time>2014-10-29T13:16:30.000Z</time>
      </trkpt>
      <trkpt lat="48.72095" lon="1.838">
        <ele>190</ele>
        <time>2014-10-29T13:16:36.000Z</time>
      </trkpt>
      <trkpt lat="48.72105" lon="1.83776">
        <ele>190</ele>
        <time>2014-10-29T13:16:46.000Z</time>
      </trkpt>
      <trkpt lat="48.7211" lon="1.83762">
        <ele>190</ele>
        <time>2014-10-29T13:16:52.000Z</time>
      </trkpt>
      <trkpt lat="48.72118" lon="1.83741">
        <ele>189.60000610352</ele>
        <time>2014-10-29T13:17:01.000Z</time>
      </trkpt>
      <trkpt lat="48.72125" lon="1.83723">
        <ele>188.80000305176</ele>
        <time>2014-10-29T13:17:09.000Z</time>
      </trkpt>
      <trkpt lat="48.72131" lon="1.83711">
        <ele>188.39999389648</ele>
        <time>2014-10-29T13:17:15.000Z</time>
      </trkpt>
      <trkpt lat="48.72139" lon="1.83691">
        <ele>187.60000610352</ele>
        <time>2014-10-29T13:17:24.000Z</time>
      </trkpt>
      <trkpt lat="48.72146" lon="1.83673">
        <ele>187.19999694824</ele>
        <time>2014-10-29T13:17:32.000Z</time>
      </trkpt>
      <trkpt lat="48.72153" lon="1.83654">
        <ele>186.80000305176</ele>
        <time>2014-10-29T13:17:40.000Z</time>
      </trkpt>
      <trkpt lat="48.72162" lon="1.83631">
        <ele>186.60000610352</ele>
        <time>2014-10-29T13:17:50.000Z</time>
      </trkpt>
      <trkpt lat="48.72171" lon="1.8361">
        <ele>186.39999389648</ele>
        <time>2014-10-29T13:17:59.000Z</time>
      </trkpt>
      <trkpt lat="48.72177" lon="1.83592">
        <ele>186.19999694824</ele>
        <time>2014-10-29T13:18:07.000Z</time>
      </trkpt>
      <trkpt lat="48.72181" lon="1.8358">
        <ele>186.19999694824</ele>
        <time>2014-10-29T13:18:12.000Z</time>
      </trkpt>
      <trkpt lat="48.72184" lon="1.83569">
        <ele>186</ele>
        <time>2014-10-29T13:18:17.000Z</time>
      </trkpt>
      <trkpt lat="48.72191" lon="1.83551">
        <ele>186</ele>
        <time>2014-10-29T13:18:25.000Z</time>
      </trkpt>
      <trkpt lat="48.72196" lon="1.83541">
        <ele>186</ele>
        <time>2014-10-29T13:18:31.000Z</time>
      </trkpt>
      <trkpt lat="48.722" lon="1.8353">
        <ele>185.80000305176</ele>
        <time>2014-10-29T13:18:36.000Z</time>
      </trkpt>
      <trkpt lat="48.72205" lon="1.83518">
        <ele>185.80000305176</ele>
        <time>2014-10-29T13:18:41.000Z</time>
      </trkpt>
      <trkpt lat="48.72213" lon="1.83498">
        <ele>184.80000305176</ele>
        <time>2014-10-29T13:18:49.000Z</time>
      </trkpt>
      <trkpt lat="48.72222" lon="1.8348">
        <ele>183.60000610352</ele>
        <time>2014-10-29T13:18:57.000Z</time>
      </trkpt>
      <trkpt lat="48.72228" lon="1.83464">
        <ele>183</ele>
        <time>2014-10-29T13:19:04.000Z</time>
      </trkpt>
      <trkpt lat="48.72233" lon="1.8345">
        <ele>182.60000610352</ele>
        <time>2014-10-29T13:19:10.000Z</time>
      </trkpt>
      <trkpt lat="48.7224" lon="1.83431">
        <ele>181.80000305176</ele>
        <time>2014-10-29T13:19:18.000Z</time>
      </trkpt>
      <trkpt lat="48.72249" lon="1.83406">
        <ele>181</ele>
        <time>2014-10-29T13:19:29.000Z</time>
      </trkpt>
      <trkpt lat="48.72258" lon="1.83381">
        <ele>179.80000305176</ele>
        <time>2014-10-29T13:19:40.000Z</time>
      </trkpt>
      <trkpt lat="48.72263" lon="1.83369">
        <ele>179.60000610352</ele>
        <time>2014-10-29T13:19:45.000Z</time>
      </trkpt>
      <trkpt lat="48.72266" lon="1.83356">
        <ele>179.19999694824</ele>
        <time>2014-10-29T13:19:50.000Z</time>
      </trkpt>
      <trkpt lat="48.72273" lon="1.83337">
        <ele>179</ele>
        <time>2014-10-29T13:19:59.000Z</time>
      </trkpt>
      <trkpt lat="48.72281" lon="1.83319">
        <ele>179.19999694824</ele>
        <time>2014-10-29T13:20:08.000Z</time>
      </trkpt>
      <trkpt lat="48.72285" lon="1.83304">
        <ele>179.19999694824</ele>
        <time>2014-10-29T13:20:15.000Z</time>
      </trkpt>
      <trkpt lat="48.72289" lon="1.83292">
        <ele>179</ele>
        <time>2014-10-29T13:20:20.000Z</time>
      </trkpt>
      <trkpt lat="48.72297" lon="1.83276">
        <ele>179</ele>
        <time>2014-10-29T13:20:28.000Z</time>
      </trkpt>
      <trkpt lat="48.72304" lon="1.8326">
        <ele>179</ele>
        <time>2014-10-29T13:20:36.000Z</time>
      </trkpt>
      <trkpt lat="48.72313" lon="1.83237">
        <ele>179</ele>
        <time>2014-10-29T13:20:47.000Z</time>
      </trkpt>
      <trkpt lat="48.72323" lon="1.83211">
        <ele>179.19999694824</ele>
        <time>2014-10-29T13:20:59.000Z</time>
      </trkpt>
      <trkpt lat="48.7233" lon="1.83193">
        <ele>179.39999389648</ele>
        <time>2014-10-29T13:21:07.000Z</time>
      </trkpt>
      <trkpt lat="48.72338" lon="1.83173">
        <ele>179.60000610352</ele>
        <time>2014-10-29T13:21:16.000Z</time>
      </trkpt>
      <trkpt lat="48.72347" lon="1.83153">
        <ele>179.80000305176</ele>
        <time>2014-10-29T13:21:24.000Z</time>
      </trkpt>
      <trkpt lat="48.72351" lon="1.83143">
        <ele>180</ele>
        <time>2014-10-29T13:21:28.000Z</time>
      </trkpt>
      <trkpt lat="48.72357" lon="1.8313">
        <ele>180</ele>
        <time>2014-10-29T13:21:34.000Z</time>
      </trkpt>
      <trkpt lat="48.72365" lon="1.8311">
        <ele>180.19999694824</ele>
        <time>2014-10-29T13:21:43.000Z</time>
      </trkpt>
      <trkpt lat="48.7237" lon="1.83097">
        <ele>180.19999694824</ele>
        <time>2014-10-29T13:21:48.000Z</time>
      </trkpt>
      <trkpt lat="48.72376" lon="1.83083">
        <ele>180.19999694824</ele>
        <time>2014-10-29T13:21:54.000Z</time>
      </trkpt>
      <trkpt lat="48.72385" lon="1.83056">
        <ele>180.39999389648</ele>
        <time>2014-10-29T13:21:59.000Z</time>
      </trkpt>
      <trkpt lat="48.724" lon="1.8302">
        <ele>180.80000305176</ele>
        <time>2014-10-29T13:22:06.000Z</time>
      </trkpt>
      <trkpt lat="48.72409" lon="1.82995">
        <ele>181.19999694824</ele>
        <time>2014-10-29T13:22:11.000Z</time>
      </trkpt>
      <trkpt lat="48.72423" lon="1.82957">
        <ele>181</ele>
        <time>2014-10-29T13:22:19.000Z</time>
      </trkpt>
      <trkpt lat="48.7244" lon="1.82918">
        <ele>180.19999694824</ele>
        <time>2014-10-29T13:22:28.000Z</time>
      </trkpt>
      <trkpt lat="48.72452" lon="1.82888">
        <ele>179.80000305176</ele>
        <time>2014-10-29T13:22:35.000Z</time>
      </trkpt>
      <trkpt lat="48.72466" lon="1.82851">
        <ele>179.60000610352</ele>
        <time>2014-10-29T13:22:43.000Z</time>
      </trkpt>
      <trkpt lat="48.72478" lon="1.82822">
        <ele>179.60000610352</ele>
        <time>2014-10-29T13:22:48.000Z</time>
      </trkpt>
      <trkpt lat="48.72494" lon="1.82779">
        <ele>179</ele>
        <time>2014-10-29T13:22:55.000Z</time>
      </trkpt>
      <trkpt lat="48.7251" lon="1.8274">
        <ele>179</ele>
        <time>2014-10-29T13:23:01.000Z</time>
      </trkpt>
      <trkpt lat="48.72529" lon="1.82688">
        <ele>178.39999389648</ele>
        <time>2014-10-29T13:23:09.000Z</time>
      </trkpt>
      <trkpt lat="48.72547" lon="1.82643">
        <ele>178</ele>
        <time>2014-10-29T13:23:16.000Z</time>
      </trkpt>
      <trkpt lat="48.72559" lon="1.8261">
        <ele>178</ele>
        <time>2014-10-29T13:23:21.000Z</time>
      </trkpt>
      <trkpt lat="48.72579" lon="1.82559">
        <ele>178.60000610352</ele>
        <time>2014-10-29T13:23:29.000Z</time>
      </trkpt>
      <trkpt lat="48.72594" lon="1.82518">
        <ele>178.19999694824</ele>
        <time>2014-10-29T13:23:35.000Z</time>
      </trkpt>
      <trkpt lat="48.72613" lon="1.82471">
        <ele>178.39999389648</ele>
        <time>2014-10-29T13:23:42.000Z</time>
      </trkpt>
      <trkpt lat="48.72626" lon="1.82445">
        <ele>178.80000305176</ele>
        <time>2014-10-29T13:23:47.000Z</time>
      </trkpt>
      <trkpt lat="48.72645" lon="1.8242">
        <ele>179.19999694824</ele>
        <time>2014-10-29T13:23:54.000Z</time>
      </trkpt>
      <trkpt lat="48.72661" lon="1.82396">
        <ele>179.39999389648</ele>
        <time>2014-10-29T13:24:01.000Z</time>
      </trkpt>
      <trkpt lat="48.72676" lon="1.82375">
        <ele>179.60000610352</ele>
        <time>2014-10-29T13:24:07.000Z</time>
      </trkpt>
      <trkpt lat="48.72688" lon="1.82361">
        <ele>179.39999389648</ele>
        <time>2014-10-29T13:24:11.000Z</time>
      </trkpt>
      <trkpt lat="48.72702" lon="1.82342">
        <ele>179</ele>
        <time>2014-10-29T13:24:18.000Z</time>
      </trkpt>
      <trkpt lat="48.72711" lon="1.82329">
        <ele>179.19999694824</ele>
        <time>2014-10-29T13:24:25.000Z</time>
      </trkpt>
      <trkpt lat="48.72717" lon="1.82322">
        <ele>179.39999389648</ele>
        <time>2014-10-29T13:24:30.000Z</time>
      </trkpt>
      <trkpt lat="48.72722" lon="1.82314">
        <ele>179.80000305176</ele>
        <time>2014-10-29T13:24:37.000Z</time>
      </trkpt>
      <trkpt lat="48.72723" lon="1.82312">
        <ele>180</ele>
        <time>2014-10-29T13:24:40.000Z</time>
      </trkpt>
      <trkpt lat="48.72729" lon="1.823">
        <ele>180.80000305176</ele>
        <time>2014-10-29T13:24:47.000Z</time>
      </trkpt>
      <trkpt lat="48.72733" lon="1.82294">
        <ele>181.19999694824</ele>
        <time>2014-10-29T13:24:50.000Z</time>
      </trkpt>
      <trkpt lat="48.72738" lon="1.82283">
        <ele>182.19999694824</ele>
        <time>2014-10-29T13:24:56.000Z</time>
      </trkpt>
      <trkpt lat="48.72742" lon="1.82268">
        <ele>183.39999389648</ele>
        <time>2014-10-29T13:25:02.000Z</time>
      </trkpt>
      <trkpt lat="48.72742" lon="1.82266">
        <ele>183.80000305176</ele>
        <time>2014-10-29T13:25:03.000Z</time>
      </trkpt>
      <trkpt lat="48.72745" lon="1.82249">
        <ele>185.19999694824</ele>
        <time>2014-10-29T13:25:10.000Z</time>
      </trkpt>
      <trkpt lat="48.7275" lon="1.82237">
        <ele>186.39999389648</ele>
        <time>2014-10-29T13:25:16.000Z</time>
      </trkpt>
      <trkpt lat="48.72756" lon="1.82226">
        <ele>187.19999694824</ele>
        <time>2014-10-29T13:25:22.000Z</time>
      </trkpt>
      <trkpt lat="48.72761" lon="1.82212">
        <ele>187.60000610352</ele>
        <time>2014-10-29T13:25:28.000Z</time>
      </trkpt>
      <trkpt lat="48.72763" lon="1.82196">
        <ele>188</ele>
        <time>2014-10-29T13:25:34.000Z</time>
      </trkpt>
      <trkpt lat="48.72768" lon="1.82183">
        <ele>188.39999389648</ele>
        <time>2014-10-29T13:25:41.000Z</time>
      </trkpt>
      <trkpt lat="48.72773" lon="1.82169">
        <ele>188.39999389648</ele>
        <time>2014-10-29T13:25:49.000Z</time>
      </trkpt>
      <trkpt lat="48.72777" lon="1.82157">
        <ele>188.39999389648</ele>
        <time>2014-10-29T13:25:53.000Z</time>
      </trkpt>
      <trkpt lat="48.72781" lon="1.82145">
        <ele>187.80000305176</ele>
        <time>2014-10-29T13:25:58.000Z</time>
      </trkpt>
      <trkpt lat="48.72785" lon="1.82126">
        <ele>187.19999694824</ele>
        <time>2014-10-29T13:26:05.000Z</time>
      </trkpt>
      <trkpt lat="48.72791" lon="1.8211">
        <ele>186.60000610352</ele>
        <time>2014-10-29T13:26:11.000Z</time>
      </trkpt>
      <trkpt lat="48.72797" lon="1.82096">
        <ele>185.80000305176</ele>
        <time>2014-10-29T13:26:18.000Z</time>
      </trkpt>
      <trkpt lat="48.72804" lon="1.82072">
        <ele>186.39999389648</ele>
        <time>2014-10-29T13:26:29.000Z</time>
      </trkpt>
      <trkpt lat="48.7281" lon="1.82049">
        <ele>186.39999389648</ele>
        <time>2014-10-29T13:26:37.000Z</time>
      </trkpt>
      <trkpt lat="48.72814" lon="1.82029">
        <ele>186.60000610352</ele>
        <time>2014-10-29T13:26:44.000Z</time>
      </trkpt>
      <trkpt lat="48.72817" lon="1.82021">
        <ele>186.80000305176</ele>
        <time>2014-10-29T13:26:47.000Z</time>
      </trkpt>
      <trkpt lat="48.72817" lon="1.82011">
        <ele>187</ele>
        <time>2014-10-29T13:26:51.000Z</time>
      </trkpt>
      <trkpt lat="48.72816" lon="1.82008">
        <ele>187.19999694824</ele>
        <time>2014-10-29T13:26:55.000Z</time>
      </trkpt>
      <trkpt lat="48.72819" lon="1.82">
        <ele>187.39999389648</ele>
        <time>2014-10-29T13:27:03.000Z</time>
      </trkpt>
      <trkpt lat="48.72823" lon="1.81982">
        <ele>187.60000610352</ele>
        <time>2014-10-29T13:27:09.000Z</time>
      </trkpt>
      <trkpt lat="48.7283" lon="1.81961">
        <ele>187.39999389648</ele>
        <time>2014-10-29T13:27:18.000Z</time>
      </trkpt>
      <trkpt lat="48.72835" lon="1.81948">
        <ele>187.39999389648</ele>
        <time>2014-10-29T13:27:25.000Z</time>
      </trkpt>
      <trkpt lat="48.72841" lon="1.81936">
        <ele>187.60000610352</ele>
        <time>2014-10-29T13:27:33.000Z</time>
      </trkpt>
      <trkpt lat="48.72848" lon="1.81926">
        <ele>187.80000305176</ele>
        <time>2014-10-29T13:27:40.000Z</time>
      </trkpt>
      <trkpt lat="48.72854" lon="1.8191">
        <ele>188</ele>
        <time>2014-10-29T13:27:48.000Z</time>
      </trkpt>
      <trkpt lat="48.72858" lon="1.81896">
        <ele>188.19999694824</ele>
        <time>2014-10-29T13:27:52.000Z</time>
      </trkpt>
      <trkpt lat="48.72863" lon="1.81879">
        <ele>188.60000610352</ele>
        <time>2014-10-29T13:27:59.000Z</time>
      </trkpt>
      <trkpt lat="48.72867" lon="1.81866">
        <ele>188.80000305176</ele>
        <time>2014-10-29T13:28:04.000Z</time>
      </trkpt>
      <trkpt lat="48.72864" lon="1.81856">
        <ele>188.80000305176</ele>
        <time>2014-10-29T13:28:08.000Z</time>
      </trkpt>
      <trkpt lat="48.72853" lon="1.81844">
        <ele>188.80000305176</ele>
        <time>2014-10-29T13:28:15.000Z</time>
      </trkpt>
      <trkpt lat="48.72841" lon="1.81826">
        <ele>188.80000305176</ele>
        <time>2014-10-29T13:28:21.000Z</time>
      </trkpt>
      <trkpt lat="48.72837" lon="1.81813">
        <ele>188.60000610352</ele>
        <time>2014-10-29T13:28:27.000Z</time>
      </trkpt>
      <trkpt lat="48.72836" lon="1.81795">
        <ele>188.19999694824</ele>
        <time>2014-10-29T13:28:34.000Z</time>
      </trkpt>
      <trkpt lat="48.72838" lon="1.81791">
        <ele>188</ele>
        <time>2014-10-29T13:28:39.000Z</time>
      </trkpt>
      <trkpt lat="48.72838" lon="1.81802">
        <ele>188.39999389648</ele>
        <time>2014-10-29T13:28:46.000Z</time>
      </trkpt>
      <trkpt lat="48.72845" lon="1.8181">
        <ele>188.60000610352</ele>
        <time>2014-10-29T13:28:52.000Z</time>
      </trkpt>
      <trkpt lat="48.72851" lon="1.81815">
        <ele>188.80000305176</ele>
        <time>2014-10-29T13:28:57.000Z</time>
      </trkpt>
      <trkpt lat="48.72851" lon="1.81816">
        <ele>188.80000305176</ele>
        <time>2014-10-29T13:28:58.000Z</time>
      </trkpt>
      <trkpt lat="48.72857" lon="1.81815">
        <ele>188.80000305176</ele>
        <time>2014-10-29T13:29:02.000Z</time>
      </trkpt>
      <trkpt lat="48.72865" lon="1.81802">
        <ele>188.60000610352</ele>
        <time>2014-10-29T13:29:09.000Z</time>
      </trkpt>
      <trkpt lat="48.7287" lon="1.81791">
        <ele>188.39999389648</ele>
        <time>2014-10-29T13:29:13.000Z</time>
      </trkpt>
      <trkpt lat="48.72876" lon="1.81774">
        <ele>188.19999694824</ele>
        <time>2014-10-29T13:29:20.000Z</time>
      </trkpt>
      <trkpt lat="48.72884" lon="1.81755">
        <ele>188</ele>
        <time>2014-10-29T13:29:28.000Z</time>
      </trkpt>
      <trkpt lat="48.72892" lon="1.81734">
        <ele>188</ele>
        <time>2014-10-29T13:29:37.000Z</time>
      </trkpt>
      <trkpt lat="48.72897" lon="1.81718">
        <ele>188</ele>
        <time>2014-10-29T13:29:44.000Z</time>
      </trkpt>
      <trkpt lat="48.729" lon="1.81707">
        <ele>188.19999694824</ele>
        <time>2014-10-29T13:29:48.000Z</time>
      </trkpt>
      <trkpt lat="48.72903" lon="1.81694">
        <ele>188.19999694824</ele>
        <time>2014-10-29T13:29:53.000Z</time>
      </trkpt>
      <trkpt lat="48.72905" lon="1.8168">
        <ele>188.19999694824</ele>
        <time>2014-10-29T13:29:59.000Z</time>
      </trkpt>
      <trkpt lat="48.72901" lon="1.81665">
        <ele>188.19999694824</ele>
        <time>2014-10-29T13:30:05.000Z</time>
      </trkpt>
      <trkpt lat="48.72892" lon="1.81644">
        <ele>188</ele>
        <time>2014-10-29T13:30:12.000Z</time>
      </trkpt>
      <trkpt lat="48.72886" lon="1.81629">
        <ele>188</ele>
        <time>2014-10-29T13:30:18.000Z</time>
      </trkpt>
      <trkpt lat="48.72881" lon="1.81617">
        <ele>188.19999694824</ele>
        <time>2014-10-29T13:30:23.000Z</time>
      </trkpt>
      <trkpt lat="48.72875" lon="1.81605">
        <ele>188.19999694824</ele>
        <time>2014-10-29T13:30:29.000Z</time>
      </trkpt>
      <trkpt lat="48.72873" lon="1.81599">
        <ele>188.19999694824</ele>
        <time>2014-10-29T13:30:32.000Z</time>
      </trkpt>
      <trkpt lat="48.72865" lon="1.81579">
        <ele>188.19999694824</ele>
        <time>2014-10-29T13:30:42.000Z</time>
      </trkpt>
      <trkpt lat="48.72862" lon="1.81567">
        <ele>188</ele>
        <time>2014-10-29T13:30:47.000Z</time>
      </trkpt>
      <trkpt lat="48.72858" lon="1.81551">
        <ele>187.60000610352</ele>
        <time>2014-10-29T13:30:55.000Z</time>
      </trkpt>
      <trkpt lat="48.72854" lon="1.81532">
        <ele>187</ele>
        <time>2014-10-29T13:31:03.000Z</time>
      </trkpt>
      <trkpt lat="48.72849" lon="1.81515">
        <ele>186.60000610352</ele>
        <time>2014-10-29T13:31:09.000Z</time>
      </trkpt>
      <trkpt lat="48.72842" lon="1.81498">
        <ele>186</ele>
        <time>2014-10-29T13:31:16.000Z</time>
      </trkpt>
      <trkpt lat="48.72829" lon="1.81472">
        <ele>185.80000305176</ele>
        <time>2014-10-29T13:31:24.000Z</time>
      </trkpt>
      <trkpt lat="48.72819" lon="1.81455">
        <ele>185.60000610352</ele>
        <time>2014-10-29T13:31:31.000Z</time>
      </trkpt>
      <trkpt lat="48.72814" lon="1.81438">
        <ele>185.60000610352</ele>
        <time>2014-10-29T13:31:37.000Z</time>
      </trkpt>
      <trkpt lat="48.72812" lon="1.81427">
        <ele>185.80000305176</ele>
        <time>2014-10-29T13:31:42.000Z</time>
      </trkpt>
      <trkpt lat="48.72806" lon="1.81413">
        <ele>185.80000305176</ele>
        <time>2014-10-29T13:31:49.000Z</time>
      </trkpt>
      <trkpt lat="48.728" lon="1.81397">
        <ele>186</ele>
        <time>2014-10-29T13:31:56.000Z</time>
      </trkpt>
      <trkpt lat="48.72798" lon="1.8139">
        <ele>186</ele>
        <time>2014-10-29T13:31:59.000Z</time>
      </trkpt>
      <trkpt lat="48.72792" lon="1.81375">
        <ele>186.19999694824</ele>
        <time>2014-10-29T13:32:06.000Z</time>
      </trkpt>
      <trkpt lat="48.72789" lon="1.81365">
        <ele>186.39999389648</ele>
        <time>2014-10-29T13:32:10.000Z</time>
      </trkpt>
      <trkpt lat="48.72782" lon="1.81346">
        <ele>186.80000305176</ele>
        <time>2014-10-29T13:32:18.000Z</time>
      </trkpt>
      <trkpt lat="48.72773" lon="1.81325">
        <ele>187</ele>
        <time>2014-10-29T13:32:26.000Z</time>
      </trkpt>
      <trkpt lat="48.72769" lon="1.81315">
        <ele>186.80000305176</ele>
        <time>2014-10-29T13:32:30.000Z</time>
      </trkpt>
      <trkpt lat="48.72764" lon="1.81299">
        <ele>186.60000610352</ele>
        <time>2014-10-29T13:32:37.000Z</time>
      </trkpt>
      <trkpt lat="48.7276" lon="1.81286">
        <ele>186.39999389648</ele>
        <time>2014-10-29T13:32:44.000Z</time>
      </trkpt>
      <trkpt lat="48.7276" lon="1.81286">
        <ele>186.39999389648</ele>
        <time>2014-10-29T13:32:46.000Z</time>
      </trkpt>
      <trkpt lat="48.72756" lon="1.81278">
        <ele>186.19999694824</ele>
        <time>2014-10-29T13:32:54.000Z</time>
      </trkpt>
      <trkpt lat="48.72753" lon="1.81271">
        <ele>186</ele>
        <time>2014-10-29T13:32:59.000Z</time>
      </trkpt>
      <trkpt lat="48.72753" lon="1.81269">
        <ele>186</ele>
        <time>2014-10-29T13:33:02.000Z</time>
      </trkpt>
      <trkpt lat="48.72748" lon="1.81269">
        <ele>185.80000305176</ele>
        <time>2014-10-29T13:33:36.000Z</time>
      </trkpt>
      <trkpt lat="48.72745" lon="1.81255">
        <ele>185.60000610352</ele>
        <time>2014-10-29T13:33:41.000Z</time>
      </trkpt>
      <trkpt lat="48.72742" lon="1.81242">
        <ele>185.39999389648</ele>
        <time>2014-10-29T13:33:47.000Z</time>
      </trkpt>
      <trkpt lat="48.72739" lon="1.8123">
        <ele>185.19999694824</ele>
        <time>2014-10-29T13:33:53.000Z</time>
      </trkpt>
      <trkpt lat="48.72735" lon="1.81217">
        <ele>184.80000305176</ele>
        <time>2014-10-29T13:34:00.000Z</time>
      </trkpt>
      <trkpt lat="48.72734" lon="1.81212">
        <ele>184.80000305176</ele>
        <time>2014-10-29T13:34:02.000Z</time>
      </trkpt>
      <trkpt lat="48.72726" lon="1.81195">
        <ele>184.39999389648</ele>
        <time>2014-10-29T13:34:10.000Z</time>
      </trkpt>
      <trkpt lat="48.72721" lon="1.81181">
        <ele>184.19999694824</ele>
        <time>2014-10-29T13:34:16.000Z</time>
      </trkpt>
      <trkpt lat="48.72718" lon="1.81174">
        <ele>184.19999694824</ele>
        <time>2014-10-29T13:34:19.000Z</time>
      </trkpt>
      <trkpt lat="48.72711" lon="1.81147">
        <ele>183.80000305176</ele>
        <time>2014-10-29T13:34:29.000Z</time>
      </trkpt>
      <trkpt lat="48.72702" lon="1.81123">
        <ele>183.19999694824</ele>
        <time>2014-10-29T13:34:36.000Z</time>
      </trkpt>
      <trkpt lat="48.72698" lon="1.81109">
        <ele>182.80000305176</ele>
        <time>2014-10-29T13:34:42.000Z</time>
      </trkpt>
      <trkpt lat="48.72695" lon="1.81104">
        <ele>182.60000610352</ele>
        <time>2014-10-29T13:34:45.000Z</time>
      </trkpt>
      <trkpt lat="48.72688" lon="1.81087">
        <ele>182.19999694824</ele>
        <time>2014-10-29T13:34:53.000Z</time>
      </trkpt>
      <trkpt lat="48.72684" lon="1.81078">
        <ele>182</ele>
        <time>2014-10-29T13:34:57.000Z</time>
      </trkpt>
      <trkpt lat="48.72686" lon="1.81065">
        <ele>181.80000305176</ele>
        <time>2014-10-29T13:35:02.000Z</time>
      </trkpt>
      <trkpt lat="48.7269" lon="1.81053">
        <ele>182</ele>
        <time>2014-10-29T13:35:07.000Z</time>
      </trkpt>
      <trkpt lat="48.72693" lon="1.81037">
        <ele>181.80000305176</ele>
        <time>2014-10-29T13:35:13.000Z</time>
      </trkpt>
      <trkpt lat="48.72702" lon="1.81022">
        <ele>182.19999694824</ele>
        <time>2014-10-29T13:35:20.000Z</time>
      </trkpt>
      <trkpt lat="48.72706" lon="1.81012">
        <ele>182.19999694824</ele>
        <time>2014-10-29T13:35:25.000Z</time>
      </trkpt>
      <trkpt lat="48.72709" lon="1.81008">
        <ele>182.19999694824</ele>
        <time>2014-10-29T13:35:28.000Z</time>
      </trkpt>
      <trkpt lat="48.72709" lon="1.81008">
        <ele>182.19999694824</ele>
        <time>2014-10-29T13:35:33.000Z</time>
      </trkpt>
      <trkpt lat="48.72708" lon="1.81011">
        <ele>182.19999694824</ele>
        <time>2014-10-29T13:35:35.000Z</time>
      </trkpt>
      <trkpt lat="48.72699" lon="1.81019">
        <ele>182</ele>
        <time>2014-10-29T13:35:42.000Z</time>
      </trkpt>
      <trkpt lat="48.72694" lon="1.81025">
        <ele>181.80000305176</ele>
        <time>2014-10-29T13:35:46.000Z</time>
      </trkpt>
      <trkpt lat="48.72689" lon="1.81018">
        <ele>181.39999389648</ele>
        <time>2014-10-29T13:35:51.000Z</time>
      </trkpt>
      <trkpt lat="48.72683" lon="1.8101">
        <ele>181</ele>
        <time>2014-10-29T13:35:55.000Z</time>
      </trkpt>
      <trkpt lat="48.72675" lon="1.80999">
        <ele>180.39999389648</ele>
        <time>2014-10-29T13:35:59.000Z</time>
      </trkpt>
      <trkpt lat="48.72676" lon="1.80986">
        <ele>180.19999694824</ele>
        <time>2014-10-29T13:36:04.000Z</time>
      </trkpt>
      <trkpt lat="48.72682" lon="1.80975">
        <ele>180.19999694824</ele>
        <time>2014-10-29T13:36:09.000Z</time>
      </trkpt>
      <trkpt lat="48.72683" lon="1.80973">
        <ele>180.39999389648</ele>
        <time>2014-10-29T13:36:10.000Z</time>
      </trkpt>
      <trkpt lat="48.72689" lon="1.8096">
        <ele>180.39999389648</ele>
        <time>2014-10-29T13:36:16.000Z</time>
      </trkpt>
      <trkpt lat="48.72695" lon="1.80948">
        <ele>180.39999389648</ele>
        <time>2014-10-29T13:36:22.000Z</time>
      </trkpt>
      <trkpt lat="48.72699" lon="1.80938">
        <ele>180.39999389648</ele>
        <time>2014-10-29T13:36:27.000Z</time>
      </trkpt>
      <trkpt lat="48.72706" lon="1.80922">
        <ele>180.19999694824</ele>
        <time>2014-10-29T13:36:35.000Z</time>
      </trkpt>
      <trkpt lat="48.72713" lon="1.8091">
        <ele>180.39999389648</ele>
        <time>2014-10-29T13:36:40.000Z</time>
      </trkpt>
      <trkpt lat="48.72716" lon="1.80896">
        <ele>180.19999694824</ele>
        <time>2014-10-29T13:36:46.000Z</time>
      </trkpt>
      <trkpt lat="48.72722" lon="1.80881">
        <ele>180.19999694824</ele>
        <time>2014-10-29T13:36:52.000Z</time>
      </trkpt>
      <trkpt lat="48.72723" lon="1.80879">
        <ele>180.19999694824</ele>
        <time>2014-10-29T13:36:53.000Z</time>
      </trkpt>
      <trkpt lat="48.7273" lon="1.80863">
        <ele>180</ele>
        <time>2014-10-29T13:37:00.000Z</time>
      </trkpt>
      <trkpt lat="48.72733" lon="1.80854">
        <ele>179.60000610352</ele>
        <time>2014-10-29T13:37:03.000Z</time>
      </trkpt>
      <trkpt lat="48.72737" lon="1.80845">
        <ele>179.39999389648</ele>
        <time>2014-10-29T13:37:08.000Z</time>
      </trkpt>
      <trkpt lat="48.72743" lon="1.80833">
        <ele>178.80000305176</ele>
        <time>2014-10-29T13:37:14.000Z</time>
      </trkpt>
      <trkpt lat="48.72746" lon="1.80828">
        <ele>178.60000610352</ele>
        <time>2014-10-29T13:37:17.000Z</time>
      </trkpt>
      <trkpt lat="48.72752" lon="1.8081">
        <ele>177.80000305176</ele>
        <time>2014-10-29T13:37:23.000Z</time>
      </trkpt>
      <trkpt lat="48.72753" lon="1.80808">
        <ele>177.80000305176</ele>
        <time>2014-10-29T13:37:24.000Z</time>
      </trkpt>
      <trkpt lat="48.72755" lon="1.80791">
        <ele>177.19999694824</ele>
        <time>2014-10-29T13:37:30.000Z</time>
      </trkpt>
      <trkpt lat="48.72759" lon="1.8078">
        <ele>177.39999389648</ele>
        <time>2014-10-29T13:37:35.000Z</time>
      </trkpt>
      <trkpt lat="48.7276" lon="1.80778">
        <ele>177.39999389648</ele>
        <time>2014-10-29T13:37:36.000Z</time>
      </trkpt>
      <trkpt lat="48.72766" lon="1.80762">
        <ele>177.19999694824</ele>
        <time>2014-10-29T13:37:43.000Z</time>
      </trkpt>
      <trkpt lat="48.72772" lon="1.80748">
        <ele>177.19999694824</ele>
        <time>2014-10-29T13:37:49.000Z</time>
      </trkpt>
      <trkpt lat="48.72773" lon="1.80746">
        <ele>177.19999694824</ele>
        <time>2014-10-29T13:37:50.000Z</time>
      </trkpt>
      <trkpt lat="48.72783" lon="1.80729">
        <ele>177.19999694824</ele>
        <time>2014-10-29T13:37:57.000Z</time>
      </trkpt>
      <trkpt lat="48.72792" lon="1.80717">
        <ele>177.19999694824</ele>
        <time>2014-10-29T13:38:04.000Z</time>
      </trkpt>
      <trkpt lat="48.72801" lon="1.80709">
        <ele>177.39999389648</ele>
        <time>2014-10-29T13:38:11.000Z</time>
      </trkpt>
      <trkpt lat="48.72806" lon="1.807">
        <ele>177.39999389648</ele>
        <time>2014-10-29T13:38:16.000Z</time>
      </trkpt>
      <trkpt lat="48.72807" lon="1.80698">
        <ele>177.39999389648</ele>
        <time>2014-10-29T13:38:17.000Z</time>
      </trkpt>
      <trkpt lat="48.72815" lon="1.80682">
        <ele>177.19999694824</ele>
        <time>2014-10-29T13:38:23.000Z</time>
      </trkpt>
      <trkpt lat="48.72816" lon="1.80679">
        <ele>177</ele>
        <time>2014-10-29T13:38:24.000Z</time>
      </trkpt>
      <trkpt lat="48.72825" lon="1.80661">
        <ele>176.80000305176</ele>
        <time>2014-10-29T13:38:32.000Z</time>
      </trkpt>
      <trkpt lat="48.72829" lon="1.80653">
        <ele>176.80000305176</ele>
        <time>2014-10-29T13:38:36.000Z</time>
      </trkpt>
      <trkpt lat="48.72836" lon="1.80639">
        <ele>176.80000305176</ele>
        <time>2014-10-29T13:38:42.000Z</time>
      </trkpt>
      <trkpt lat="48.72837" lon="1.80637">
        <ele>176.80000305176</ele>
        <time>2014-10-29T13:38:43.000Z</time>
      </trkpt>
      <trkpt lat="48.72844" lon="1.80623">
        <ele>177</ele>
        <time>2014-10-29T13:38:50.000Z</time>
      </trkpt>
      <trkpt lat="48.72851" lon="1.80609">
        <ele>177.19999694824</ele>
        <time>2014-10-29T13:38:56.000Z</time>
      </trkpt>
      <trkpt lat="48.72855" lon="1.80594">
        <ele>177.39999389648</ele>
        <time>2014-10-29T13:39:02.000Z</time>
      </trkpt>
      <trkpt lat="48.72855" lon="1.80584">
        <ele>177.19999694824</ele>
        <time>2014-10-29T13:39:06.000Z</time>
      </trkpt>
      <trkpt lat="48.72854" lon="1.8057">
        <ele>177</ele>
        <time>2014-10-29T13:39:11.000Z</time>
      </trkpt>
      <trkpt lat="48.72854" lon="1.80568">
        <ele>176.80000305176</ele>
        <time>2014-10-29T13:39:12.000Z</time>
      </trkpt>
      <trkpt lat="48.72848" lon="1.80564">
        <ele>176.60000610352</ele>
        <time>2014-10-29T13:39:17.000Z</time>
      </trkpt>
      <trkpt lat="48.72846" lon="1.80563">
        <ele>176.39999389648</ele>
        <time>2014-10-29T13:39:21.000Z</time>
      </trkpt>
      <trkpt lat="48.72848" lon="1.80566">
        <ele>176.60000610352</ele>
        <time>2014-10-29T13:39:42.000Z</time>
      </trkpt>
      <trkpt lat="48.72858" lon="1.80568">
        <ele>177</ele>
        <time>2014-10-29T13:39:47.000Z</time>
      </trkpt>
      <trkpt lat="48.72866" lon="1.80566">
        <ele>177.39999389648</ele>
        <time>2014-10-29T13:39:53.000Z</time>
      </trkpt>
      <trkpt lat="48.72874" lon="1.80557">
        <ele>177.39999389648</ele>
        <time>2014-10-29T13:39:59.000Z</time>
      </trkpt>
      <trkpt lat="48.7288" lon="1.80548">
        <ele>177.19999694824</ele>
        <time>2014-10-29T13:40:04.000Z</time>
      </trkpt>
      <trkpt lat="48.72884" lon="1.80531">
        <ele>176.39999389648</ele>
        <time>2014-10-29T13:40:11.000Z</time>
      </trkpt>
      <trkpt lat="48.72885" lon="1.80528">
        <ele>176.19999694824</ele>
        <time>2014-10-29T13:40:12.000Z</time>
      </trkpt>
      <trkpt lat="48.72886" lon="1.80512">
        <ele>175.39999389648</ele>
        <time>2014-10-29T13:40:18.000Z</time>
      </trkpt>
      <trkpt lat="48.72886" lon="1.80502">
        <ele>174.80000305176</ele>
        <time>2014-10-29T13:40:22.000Z</time>
      </trkpt>
      <trkpt lat="48.72889" lon="1.80488">
        <ele>174</ele>
        <time>2014-10-29T13:40:28.000Z</time>
      </trkpt>
      <trkpt lat="48.72891" lon="1.80478">
        <ele>174.19999694824</ele>
        <time>2014-10-29T13:40:32.000Z</time>
      </trkpt>
      <trkpt lat="48.72892" lon="1.80476">
        <ele>174.19999694824</ele>
        <time>2014-10-29T13:40:33.000Z</time>
      </trkpt>
      <trkpt lat="48.72898" lon="1.80461">
        <ele>174.60000610352</ele>
        <time>2014-10-29T13:40:40.000Z</time>
      </trkpt>
      <trkpt lat="48.72902" lon="1.80453">
        <ele>174.80000305176</ele>
        <time>2014-10-29T13:40:43.000Z</time>
      </trkpt>
      <trkpt lat="48.72903" lon="1.80439">
        <ele>174.60000610352</ele>
        <time>2014-10-29T13:40:48.000Z</time>
      </trkpt>
      <trkpt lat="48.72905" lon="1.80431">
        <ele>174.39999389648</ele>
        <time>2014-10-29T13:40:52.000Z</time>
      </trkpt>
      <trkpt lat="48.7291" lon="1.80421">
        <ele>174.39999389648</ele>
        <time>2014-10-29T13:40:58.000Z</time>
      </trkpt>
      <trkpt lat="48.7292" lon="1.80395">
        <ele>174.39999389648</ele>
        <time>2014-10-29T13:41:07.000Z</time>
      </trkpt>
      <trkpt lat="48.72926" lon="1.80383">
        <ele>174.80000305176</ele>
        <time>2014-10-29T13:41:13.000Z</time>
      </trkpt>
      <trkpt lat="48.72934" lon="1.80367">
        <ele>175.80000305176</ele>
        <time>2014-10-29T13:41:21.000Z</time>
      </trkpt>
      <trkpt lat="48.72939" lon="1.80358">
        <ele>176.19999694824</ele>
        <time>2014-10-29T13:41:26.000Z</time>
      </trkpt>
      <trkpt lat="48.72946" lon="1.80341">
        <ele>176.80000305176</ele>
        <time>2014-10-29T13:41:35.000Z</time>
      </trkpt>
      <trkpt lat="48.72951" lon="1.80324">
        <ele>177.19999694824</ele>
        <time>2014-10-29T13:41:42.000Z</time>
      </trkpt>
      <trkpt lat="48.72954" lon="1.80317">
        <ele>177.19999694824</ele>
        <time>2014-10-29T13:41:45.000Z</time>
      </trkpt>
      <trkpt lat="48.72957" lon="1.80308">
        <ele>177.39999389648</ele>
        <time>2014-10-29T13:41:49.000Z</time>
      </trkpt>
      <trkpt lat="48.72963" lon="1.80294">
        <ele>177.60000610352</ele>
        <time>2014-10-29T13:41:55.000Z</time>
      </trkpt>
      <trkpt lat="48.72967" lon="1.80283">
        <ele>177.80000305176</ele>
        <time>2014-10-29T13:41:59.000Z</time>
      </trkpt>
      <trkpt lat="48.7297" lon="1.80278">
        <ele>178</ele>
        <time>2014-10-29T13:42:01.000Z</time>
      </trkpt>
      <trkpt lat="48.72975" lon="1.80265">
        <ele>178</ele>
        <time>2014-10-29T13:42:07.000Z</time>
      </trkpt>
      <trkpt lat="48.72982" lon="1.8025">
        <ele>178</ele>
        <time>2014-10-29T13:42:14.000Z</time>
      </trkpt>
      <trkpt lat="48.72989" lon="1.80236">
        <ele>177.80000305176</ele>
        <time>2014-10-29T13:42:21.000Z</time>
      </trkpt>
      <trkpt lat="48.72993" lon="1.80225">
        <ele>177</ele>
        <time>2014-10-29T13:42:26.000Z</time>
      </trkpt>
      <trkpt lat="48.73" lon="1.8021">
        <ele>176.60000610352</ele>
        <time>2014-10-29T13:42:33.000Z</time>
      </trkpt>
      <trkpt lat="48.73005" lon="1.80199">
        <ele>177.19999694824</ele>
        <time>2014-10-29T13:42:38.000Z</time>
      </trkpt>
      <trkpt lat="48.73007" lon="1.80192">
        <ele>177.39999389648</ele>
        <time>2014-10-29T13:42:41.000Z</time>
      </trkpt>
      <trkpt lat="48.73014" lon="1.80173">
        <ele>178.19999694824</ele>
        <time>2014-10-29T13:42:49.000Z</time>
      </trkpt>
      <trkpt lat="48.73019" lon="1.80158">
        <ele>178.80000305176</ele>
        <time>2014-10-29T13:42:55.000Z</time>
      </trkpt>
      <trkpt lat="48.73023" lon="1.80148">
        <ele>178.80000305176</ele>
        <time>2014-10-29T13:42:59.000Z</time>
      </trkpt>
      <trkpt lat="48.73025" lon="1.80137">
        <ele>178.39999389648</ele>
        <time>2014-10-29T13:43:03.000Z</time>
      </trkpt>
      <trkpt lat="48.73026" lon="1.80133">
        <ele>178.19999694824</ele>
        <time>2014-10-29T13:43:05.000Z</time>
      </trkpt>
      <trkpt lat="48.73031" lon="1.80116">
        <ele>177.60000610352</ele>
        <time>2014-10-29T13:43:11.000Z</time>
      </trkpt>
      <trkpt lat="48.73033" lon="1.80108">
        <ele>177.19999694824</ele>
        <time>2014-10-29T13:43:15.000Z</time>
      </trkpt>
      <trkpt lat="48.73039" lon="1.8009">
        <ele>176.60000610352</ele>
        <time>2014-10-29T13:43:22.000Z</time>
      </trkpt>
      <trkpt lat="48.73047" lon="1.80065">
        <ele>176.60000610352</ele>
        <time>2014-10-29T13:43:32.000Z</time>
      </trkpt>
      <trkpt lat="48.73053" lon="1.80044">
        <ele>176.39999389648</ele>
        <time>2014-10-29T13:43:40.000Z</time>
      </trkpt>
      <trkpt lat="48.73056" lon="1.8003">
        <ele>176</ele>
        <time>2014-10-29T13:43:45.000Z</time>
      </trkpt>
      <trkpt lat="48.73063" lon="1.80009">
        <ele>176.39999389648</ele>
        <time>2014-10-29T13:43:54.000Z</time>
      </trkpt>
      <trkpt lat="48.73068" lon="1.79994">
        <ele>176.60000610352</ele>
        <time>2014-10-29T13:44:00.000Z</time>
      </trkpt>
      <trkpt lat="48.73075" lon="1.79977">
        <ele>177.19999694824</ele>
        <time>2014-10-29T13:44:08.000Z</time>
      </trkpt>
      <trkpt lat="48.73079" lon="1.79966">
        <ele>177.60000610352</ele>
        <time>2014-10-29T13:44:13.000Z</time>
      </trkpt>
      <trkpt lat="48.73083" lon="1.79952">
        <ele>177.80000305176</ele>
        <time>2014-10-29T13:44:19.000Z</time>
      </trkpt>
      <trkpt lat="48.7309" lon="1.79935">
        <ele>178.19999694824</ele>
        <time>2014-10-29T13:44:28.000Z</time>
      </trkpt>
      <trkpt lat="48.73097" lon="1.79915">
        <ele>178.60000610352</ele>
        <time>2014-10-29T13:44:36.000Z</time>
      </trkpt>
      <trkpt lat="48.73102" lon="1.79899">
        <ele>178.60000610352</ele>
        <time>2014-10-29T13:44:42.000Z</time>
      </trkpt>
      <trkpt lat="48.7311" lon="1.7988">
        <ele>178.60000610352</ele>
        <time>2014-10-29T13:44:50.000Z</time>
      </trkpt>
      <trkpt lat="48.73114" lon="1.79866">
        <ele>178.39999389648</ele>
        <time>2014-10-29T13:44:56.000Z</time>
      </trkpt>
      <trkpt lat="48.73122" lon="1.79846">
        <ele>178.39999389648</ele>
        <time>2014-10-29T13:45:05.000Z</time>
      </trkpt>
      <trkpt lat="48.73126" lon="1.79837">
        <ele>178.39999389648</ele>
        <time>2014-10-29T13:45:09.000Z</time>
      </trkpt>
      <trkpt lat="48.73132" lon="1.7982">
        <ele>178.19999694824</ele>
        <time>2014-10-29T13:45:17.000Z</time>
      </trkpt>
      <trkpt lat="48.73139" lon="1.79802">
        <ele>178</ele>
        <time>2014-10-29T13:45:25.000Z</time>
      </trkpt>
      <trkpt lat="48.73144" lon="1.79787">
        <ele>177.80000305176</ele>
        <time>2014-10-29T13:45:31.000Z</time>
      </trkpt>
      <trkpt lat="48.73152" lon="1.79767">
        <ele>177.60000610352</ele>
        <time>2014-10-29T13:45:39.000Z</time>
      </trkpt>
      <trkpt lat="48.73156" lon="1.79753">
        <ele>177.60000610352</ele>
        <time>2014-10-29T13:45:45.000Z</time>
      </trkpt>
      <trkpt lat="48.73162" lon="1.79732">
        <ele>177.60000610352</ele>
        <time>2014-10-29T13:45:54.000Z</time>
      </trkpt>
      <trkpt lat="48.73164" lon="1.79721">
        <ele>177.80000305176</ele>
        <time>2014-10-29T13:45:58.000Z</time>
      </trkpt>
      <trkpt lat="48.73167" lon="1.79706">
        <ele>177.39999389648</ele>
        <time>2014-10-29T13:46:04.000Z</time>
      </trkpt>
      <trkpt lat="48.7317" lon="1.79685">
        <ele>176.60000610352</ele>
        <time>2014-10-29T13:46:12.000Z</time>
      </trkpt>
      <trkpt lat="48.73173" lon="1.79672">
        <ele>176.19999694824</ele>
        <time>2014-10-29T13:46:17.000Z</time>
      </trkpt>
      <trkpt lat="48.73178" lon="1.79658">
        <ele>175.80000305176</ele>
        <time>2014-10-29T13:46:23.000Z</time>
      </trkpt>
      <trkpt lat="48.73181" lon="1.79649">
        <ele>175.60000610352</ele>
        <time>2014-10-29T13:46:27.000Z</time>
      </trkpt>
      <trkpt lat="48.7319" lon="1.79626">
        <ele>175.60000610352</ele>
        <time>2014-10-29T13:46:37.000Z</time>
      </trkpt>
      <trkpt lat="48.73196" lon="1.79613">
        <ele>175.80000305176</ele>
        <time>2014-10-29T13:46:43.000Z</time>
      </trkpt>
      <trkpt lat="48.73203" lon="1.79596">
        <ele>176.19999694824</ele>
        <time>2014-10-29T13:46:51.000Z</time>
      </trkpt>
      <trkpt lat="48.7321" lon="1.79569">
        <ele>176.19999694824</ele>
        <time>2014-10-29T13:47:03.000Z</time>
      </trkpt>
      <trkpt lat="48.73215" lon="1.79549">
        <ele>176</ele>
        <time>2014-10-29T13:47:11.000Z</time>
      </trkpt>
      <trkpt lat="48.73219" lon="1.79531">
        <ele>176</ele>
        <time>2014-10-29T13:47:17.000Z</time>
      </trkpt>
      <trkpt lat="48.73221" lon="1.79525">
        <ele>176.19999694824</ele>
        <time>2014-10-29T13:47:19.000Z</time>
      </trkpt>
      <trkpt lat="48.73227" lon="1.79526">
        <ele>176.80000305176</ele>
        <time>2014-10-29T13:47:24.000Z</time>
      </trkpt>
      <trkpt lat="48.73238" lon="1.7952">
        <ele>177.80000305176</ele>
        <time>2014-10-29T13:47:29.000Z</time>
      </trkpt>
      <trkpt lat="48.73243" lon="1.79512">
        <ele>178.19999694824</ele>
        <time>2014-10-29T13:47:33.000Z</time>
      </trkpt>
      <trkpt lat="48.73248" lon="1.79492">
        <ele>178.60000610352</ele>
        <time>2014-10-29T13:47:41.000Z</time>
      </trkpt>
      <trkpt lat="48.73251" lon="1.79485">
        <ele>179.19999694824</ele>
        <time>2014-10-29T13:47:44.000Z</time>
      </trkpt>
      <trkpt lat="48.73256" lon="1.79471">
        <ele>180.80000305176</ele>
        <time>2014-10-29T13:47:50.000Z</time>
      </trkpt>
      <trkpt lat="48.7326" lon="1.7946">
        <ele>180.39999389648</ele>
        <time>2014-10-29T13:47:55.000Z</time>
      </trkpt>
      <trkpt lat="48.73259" lon="1.79445">
        <ele>180</ele>
        <time>2014-10-29T13:48:01.000Z</time>
      </trkpt>
      <trkpt lat="48.73265" lon="1.79437">
        <ele>179.80000305176</ele>
        <time>2014-10-29T13:48:06.000Z</time>
      </trkpt>
      <trkpt lat="48.73271" lon="1.79436">
        <ele>179.80000305176</ele>
        <time>2014-10-29T13:48:10.000Z</time>
      </trkpt>
      <trkpt lat="48.7328" lon="1.79432">
        <ele>180.80000305176</ele>
        <time>2014-10-29T13:48:16.000Z</time>
      </trkpt>
      <trkpt lat="48.73283" lon="1.79431">
        <ele>181</ele>
        <time>2014-10-29T13:48:18.000Z</time>
      </trkpt>
      <trkpt lat="48.73294" lon="1.79429">
        <ele>182</ele>
        <time>2014-10-29T13:48:26.000Z</time>
      </trkpt>
      <trkpt lat="48.73303" lon="1.79428">
        <ele>183</ele>
        <time>2014-10-29T13:48:32.000Z</time>
      </trkpt>
      <trkpt lat="48.73314" lon="1.79425">
        <ele>184</ele>
        <time>2014-10-29T13:48:39.000Z</time>
      </trkpt>
      <trkpt lat="48.73318" lon="1.79424">
        <ele>184.39999389648</ele>
        <time>2014-10-29T13:48:42.000Z</time>
      </trkpt>
      <trkpt lat="48.73326" lon="1.79423">
        <ele>185</ele>
        <time>2014-10-29T13:48:47.000Z</time>
      </trkpt>
      <trkpt lat="48.73335" lon="1.79422">
        <ele>185.80000305176</ele>
        <time>2014-10-29T13:48:54.000Z</time>
      </trkpt>
      <trkpt lat="48.73347" lon="1.79419">
        <ele>186.80000305176</ele>
        <time>2014-10-29T13:49:02.000Z</time>
      </trkpt>
      <trkpt lat="48.73358" lon="1.79416">
        <ele>187.60000610352</ele>
        <time>2014-10-29T13:49:08.000Z</time>
      </trkpt>
      <trkpt lat="48.7336" lon="1.79416">
        <ele>187.60000610352</ele>
        <time>2014-10-29T13:49:09.000Z</time>
      </trkpt>
      <trkpt lat="48.73364" lon="1.79416">
        <ele>187.80000305176</ele>
        <time>2014-10-29T13:49:12.000Z</time>
      </trkpt>
      <trkpt lat="48.73377" lon="1.79414">
        <ele>188.39999389648</ele>
        <time>2014-10-29T13:49:20.000Z</time>
      </trkpt>
      <trkpt lat="48.73389" lon="1.79414">
        <ele>189.19999694824</ele>
        <time>2014-10-29T13:49:27.000Z</time>
      </trkpt>
      <trkpt lat="48.73398" lon="1.79416">
        <ele>189.80000305176</ele>
        <time>2014-10-29T13:49:34.000Z</time>
      </trkpt>
      <trkpt lat="48.73402" lon="1.79415">
        <ele>190</ele>
        <time>2014-10-29T13:49:37.000Z</time>
      </trkpt>
      <trkpt lat="48.73412" lon="1.79414">
        <ele>190.60000610352</ele>
        <time>2014-10-29T13:49:44.000Z</time>
      </trkpt>
      <trkpt lat="48.73422" lon="1.79414">
        <ele>191.19999694824</ele>
        <time>2014-10-29T13:49:50.000Z</time>
      </trkpt>
      <trkpt lat="48.73436" lon="1.79411">
        <ele>192</ele>
        <time>2014-10-29T13:49:57.000Z</time>
      </trkpt>
      <trkpt lat="48.73445" lon="1.79412">
        <ele>192</ele>
        <time>2014-10-29T13:50:03.000Z</time>
      </trkpt>
      <trkpt lat="48.73454" lon="1.79412">
        <ele>192.19999694824</ele>
        <time>2014-10-29T13:50:08.000Z</time>
      </trkpt>
      <trkpt lat="48.73458" lon="1.79411">
        <ele>192.19999694824</ele>
        <time>2014-10-29T13:50:11.000Z</time>
      </trkpt>
      <trkpt lat="48.73474" lon="1.7941">
        <ele>192.39999389648</ele>
        <time>2014-10-29T13:50:20.000Z</time>
      </trkpt>
      <trkpt lat="48.73475" lon="1.7941">
        <ele>192.39999389648</ele>
        <time>2014-10-29T13:50:21.000Z</time>
      </trkpt>
      <trkpt lat="48.73479" lon="1.7941">
        <ele>192.60000610352</ele>
        <time>2014-10-29T13:50:24.000Z</time>
      </trkpt>
      <trkpt lat="48.73485" lon="1.79408">
        <ele>192.60000610352</ele>
        <time>2014-10-29T13:50:28.000Z</time>
      </trkpt>
      <trkpt lat="48.73499" lon="1.79403">
        <ele>192.60000610352</ele>
        <time>2014-10-29T13:50:35.000Z</time>
      </trkpt>
      <trkpt lat="48.73503" lon="1.79392">
        <ele>192.39999389648</ele>
        <time>2014-10-29T13:50:39.000Z</time>
      </trkpt>
      <trkpt lat="48.73502" lon="1.79386">
        <ele>192</ele>
        <time>2014-10-29T13:50:46.000Z</time>
      </trkpt>
      <trkpt lat="48.73502" lon="1.79386">
        <ele>192</ele>
        <time>2014-10-29T13:50:47.000Z</time>
      </trkpt>
      <trkpt lat="48.73504" lon="1.79383">
        <ele>192</ele>
        <time>2014-10-29T13:50:52.000Z</time>
      </trkpt>
      <trkpt lat="48.73504" lon="1.79382">
        <ele>192</ele>
        <time>2014-10-29T13:50:53.000Z</time>
      </trkpt>
      <trkpt lat="48.735" lon="1.79377">
        <ele>191.60000610352</ele>
        <time>2014-10-29T13:50:59.000Z</time>
      </trkpt>
      <trkpt lat="48.73499" lon="1.79375">
        <ele>191.60000610352</ele>
        <time>2014-10-29T13:51:00.000Z</time>
      </trkpt>
      <trkpt lat="48.73488" lon="1.79363">
        <ele>191</ele>
        <time>2014-10-29T13:51:08.000Z</time>
      </trkpt>
      <trkpt lat="48.73476" lon="1.79355">
        <ele>190.60000610352</ele>
        <time>2014-10-29T13:51:17.000Z</time>
      </trkpt>
      <trkpt lat="48.7347" lon="1.7935">
        <ele>190.39999389648</ele>
        <time>2014-10-29T13:51:22.000Z</time>
      </trkpt>
      <trkpt lat="48.73455" lon="1.79341">
        <ele>190</ele>
        <time>2014-10-29T13:51:30.000Z</time>
      </trkpt>
      <trkpt lat="48.73438" lon="1.79327">
        <ele>189.19999694824</ele>
        <time>2014-10-29T13:51:36.000Z</time>
      </trkpt>
      <trkpt lat="48.73422" lon="1.79307">
        <ele>188.39999389648</ele>
        <time>2014-10-29T13:51:42.000Z</time>
      </trkpt>
      <trkpt lat="48.73407" lon="1.79283">
        <ele>187.60000610352</ele>
        <time>2014-10-29T13:51:48.000Z</time>
      </trkpt>
      <trkpt lat="48.73391" lon="1.79251">
        <ele>186.19999694824</ele>
        <time>2014-10-29T13:51:55.000Z</time>
      </trkpt>
      <trkpt lat="48.73382" lon="1.79226">
        <ele>185</ele>
        <time>2014-10-29T13:52:00.000Z</time>
      </trkpt>
      <trkpt lat="48.73371" lon="1.79201">
        <ele>183.60000610352</ele>
        <time>2014-10-29T13:52:05.000Z</time>
      </trkpt>
      <trkpt lat="48.73359" lon="1.79169">
        <ele>181.80000305176</ele>
        <time>2014-10-29T13:52:12.000Z</time>
      </trkpt>
      <trkpt lat="48.73346" lon="1.7913">
        <ele>179.19999694824</ele>
        <time>2014-10-29T13:52:20.000Z</time>
      </trkpt>
      <trkpt lat="48.73337" lon="1.79094">
        <ele>176.80000305176</ele>
        <time>2014-10-29T13:52:27.000Z</time>
      </trkpt>
      <trkpt lat="48.73325" lon="1.79063">
        <ele>175</ele>
        <time>2014-10-29T13:52:34.000Z</time>
      </trkpt>
      <trkpt lat="48.73312" lon="1.7903">
        <ele>175</ele>
        <time>2014-10-29T13:52:41.000Z</time>
      </trkpt>
      <trkpt lat="48.73299" lon="1.78996">
        <ele>174</ele>
        <time>2014-10-29T13:52:48.000Z</time>
      </trkpt>
      <trkpt lat="48.73286" lon="1.78964">
        <ele>175</ele>
        <time>2014-10-29T13:52:55.000Z</time>
      </trkpt>
      <trkpt lat="48.73272" lon="1.78935">
        <ele>176.60000610352</ele>
        <time>2014-10-29T13:53:01.000Z</time>
      </trkpt>
      <trkpt lat="48.73256" lon="1.78905">
        <ele>178.60000610352</ele>
        <time>2014-10-29T13:53:08.000Z</time>
      </trkpt>
      <trkpt lat="48.73242" lon="1.7888">
        <ele>179</ele>
        <time>2014-10-29T13:53:14.000Z</time>
      </trkpt>
      <trkpt lat="48.73225" lon="1.78854">
        <ele>179.60000610352</ele>
        <time>2014-10-29T13:53:21.000Z</time>
      </trkpt>
      <trkpt lat="48.7321" lon="1.7883">
        <ele>180</ele>
        <time>2014-10-29T13:53:28.000Z</time>
      </trkpt>
      <trkpt lat="48.73196" lon="1.78809">
        <ele>180.80000305176</ele>
        <time>2014-10-29T13:53:35.000Z</time>
      </trkpt>
      <trkpt lat="48.7319" lon="1.78798">
        <ele>181.19999694824</ele>
        <time>2014-10-29T13:53:40.000Z</time>
      </trkpt>
      <trkpt lat="48.73188" lon="1.78794">
        <ele>181.19999694824</ele>
        <time>2014-10-29T13:53:42.000Z</time>
      </trkpt>
      <trkpt lat="48.73184" lon="1.78787">
        <ele>181.60000610352</ele>
        <time>2014-10-29T13:53:46.000Z</time>
      </trkpt>
      <trkpt lat="48.73178" lon="1.78771">
        <ele>182</ele>
        <time>2014-10-29T13:53:54.000Z</time>
      </trkpt>
      <trkpt lat="48.73171" lon="1.78757">
        <ele>182.39999389648</ele>
        <time>2014-10-29T13:54:01.000Z</time>
      </trkpt>
      <trkpt lat="48.73168" lon="1.78744">
        <ele>182.60000610352</ele>
        <time>2014-10-29T13:54:06.000Z</time>
      </trkpt>
      <trkpt lat="48.73165" lon="1.78735">
        <ele>182.80000305176</ele>
        <time>2014-10-29T13:54:10.000Z</time>
      </trkpt>
      <trkpt lat="48.73163" lon="1.78731">
        <ele>183</ele>
        <time>2014-10-29T13:54:12.000Z</time>
      </trkpt>
      <trkpt lat="48.7316" lon="1.78723">
        <ele>183.19999694824</ele>
        <time>2014-10-29T13:54:16.000Z</time>
      </trkpt>
      <trkpt lat="48.73159" lon="1.78708">
        <ele>183.39999389648</ele>
        <time>2014-10-29T13:54:22.000Z</time>
      </trkpt>
      <trkpt lat="48.73157" lon="1.78699">
        <ele>183.60000610352</ele>
        <time>2014-10-29T13:54:26.000Z</time>
      </trkpt>
      <trkpt lat="48.73156" lon="1.78681">
        <ele>183.80000305176</ele>
        <time>2014-10-29T13:54:34.000Z</time>
      </trkpt>
      <trkpt lat="48.73156" lon="1.7868">
        <ele>183.80000305176</ele>
        <time>2014-10-29T13:54:35.000Z</time>
      </trkpt>
      <trkpt lat="48.73155" lon="1.78678">
        <ele>183.80000305176</ele>
        <time>2014-10-29T13:54:37.000Z</time>
      </trkpt>
      <trkpt lat="48.73155" lon="1.78677">
        <ele>183.80000305176</ele>
        <time>2014-10-29T13:54:40.000Z</time>
      </trkpt>
      <trkpt lat="48.73155" lon="1.78672">
        <ele>184</ele>
        <time>2014-10-29T13:54:51.000Z</time>
      </trkpt>
      <trkpt lat="48.73153" lon="1.78662">
        <ele>184.19999694824</ele>
        <time>2014-10-29T13:54:54.000Z</time>
      </trkpt>
      <trkpt lat="48.73152" lon="1.7866">
        <ele>184.19999694824</ele>
        <time>2014-10-29T13:54:55.000Z</time>
      </trkpt>
      <trkpt lat="48.73149" lon="1.78647">
        <ele>184</ele>
        <time>2014-10-29T13:55:01.000Z</time>
      </trkpt>
      <trkpt lat="48.73144" lon="1.78632">
        <ele>183.39999389648</ele>
        <time>2014-10-29T13:55:08.000Z</time>
      </trkpt>
      <trkpt lat="48.7314" lon="1.78616">
        <ele>182.80000305176</ele>
        <time>2014-10-29T13:55:15.000Z</time>
      </trkpt>
      <trkpt lat="48.73138" lon="1.78612">
        <ele>182.60000610352</ele>
        <time>2014-10-29T13:55:17.000Z</time>
      </trkpt>
      <trkpt lat="48.73135" lon="1.7859">
        <ele>182.39999389648</ele>
        <time>2014-10-29T13:55:27.000Z</time>
      </trkpt>
      <trkpt lat="48.7313" lon="1.78568">
        <ele>182.39999389648</ele>
        <time>2014-10-29T13:55:36.000Z</time>
      </trkpt>
      <trkpt lat="48.73129" lon="1.78566">
        <ele>182.39999389648</ele>
        <time>2014-10-29T13:55:37.000Z</time>
      </trkpt>
      <trkpt lat="48.73126" lon="1.78546">
        <ele>182.60000610352</ele>
        <time>2014-10-29T13:55:45.000Z</time>
      </trkpt>
      <trkpt lat="48.73122" lon="1.78527">
        <ele>182.80000305176</ele>
        <time>2014-10-29T13:55:52.000Z</time>
      </trkpt>
      <trkpt lat="48.73116" lon="1.7851">
        <ele>182.80000305176</ele>
        <time>2014-10-29T13:55:59.000Z</time>
      </trkpt>
      <trkpt lat="48.73112" lon="1.78498">
        <ele>183</ele>
        <time>2014-10-29T13:56:04.000Z</time>
      </trkpt>
      <trkpt lat="48.73105" lon="1.78482">
        <ele>183</ele>
        <time>2014-10-29T13:56:11.000Z</time>
      </trkpt>
      <trkpt lat="48.73102" lon="1.78466">
        <ele>183.19999694824</ele>
        <time>2014-10-29T13:56:18.000Z</time>
      </trkpt>
      <trkpt lat="48.73102" lon="1.78449">
        <ele>183.39999389648</ele>
        <time>2014-10-29T13:56:24.000Z</time>
      </trkpt>
      <trkpt lat="48.73102" lon="1.78436">
        <ele>183.60000610352</ele>
        <time>2014-10-29T13:56:29.000Z</time>
      </trkpt>
      <trkpt lat="48.73099" lon="1.78419">
        <ele>183.60000610352</ele>
        <time>2014-10-29T13:56:36.000Z</time>
      </trkpt>
      <trkpt lat="48.73096" lon="1.78404">
        <ele>183.80000305176</ele>
        <time>2014-10-29T13:56:42.000Z</time>
      </trkpt>
      <trkpt lat="48.73095" lon="1.78391">
        <ele>183.39999389648</ele>
        <time>2014-10-29T13:56:47.000Z</time>
      </trkpt>
      <trkpt lat="48.73093" lon="1.7837">
        <ele>183.19999694824</ele>
        <time>2014-10-29T13:56:55.000Z</time>
      </trkpt>
      <trkpt lat="48.7309" lon="1.78346">
        <ele>182.80000305176</ele>
        <time>2014-10-29T13:57:04.000Z</time>
      </trkpt>
      <trkpt lat="48.73086" lon="1.78325">
        <ele>182.39999389648</ele>
        <time>2014-10-29T13:57:12.000Z</time>
      </trkpt>
      <trkpt lat="48.73085" lon="1.78313">
        <ele>182.39999389648</ele>
        <time>2014-10-29T13:57:17.000Z</time>
      </trkpt>
      <trkpt lat="48.73083" lon="1.78301">
        <ele>182.19999694824</ele>
        <time>2014-10-29T13:57:22.000Z</time>
      </trkpt>
      <trkpt lat="48.73081" lon="1.78293">
        <ele>182.19999694824</ele>
        <time>2014-10-29T13:57:25.000Z</time>
      </trkpt>
      <trkpt lat="48.73077" lon="1.7827">
        <ele>182</ele>
        <time>2014-10-29T13:57:34.000Z</time>
      </trkpt>
      <trkpt lat="48.73077" lon="1.78262">
        <ele>182</ele>
        <time>2014-10-29T13:57:37.000Z</time>
      </trkpt>
      <trkpt lat="48.73074" lon="1.78255">
        <ele>182</ele>
        <time>2014-10-29T13:57:40.000Z</time>
      </trkpt>
      <trkpt lat="48.73073" lon="1.7824">
        <ele>181.80000305176</ele>
        <time>2014-10-29T13:57:46.000Z</time>
      </trkpt>
      <trkpt lat="48.73072" lon="1.78229">
        <ele>182</ele>
        <time>2014-10-29T13:57:51.000Z</time>
      </trkpt>
      <trkpt lat="48.73071" lon="1.78221">
        <ele>182</ele>
        <time>2014-10-29T13:57:54.000Z</time>
      </trkpt>
      <trkpt lat="48.73071" lon="1.78213">
        <ele>182.19999694824</ele>
        <time>2014-10-29T13:57:57.000Z</time>
      </trkpt>
      <trkpt lat="48.73069" lon="1.78192">
        <ele>182.19999694824</ele>
        <time>2014-10-29T13:58:04.000Z</time>
      </trkpt>
      <trkpt lat="48.73066" lon="1.78175">
        <ele>182</ele>
        <time>2014-10-29T13:58:10.000Z</time>
      </trkpt>
      <trkpt lat="48.73065" lon="1.78172">
        <ele>182</ele>
        <time>2014-10-29T13:58:11.000Z</time>
      </trkpt>
      <trkpt lat="48.73064" lon="1.78159">
        <ele>182</ele>
        <time>2014-10-29T13:58:16.000Z</time>
      </trkpt>
      <trkpt lat="48.73062" lon="1.78135">
        <ele>182</ele>
        <time>2014-10-29T13:58:25.000Z</time>
      </trkpt>
      <trkpt lat="48.73059" lon="1.78118">
        <ele>182</ele>
        <time>2014-10-29T13:58:31.000Z</time>
      </trkpt>
      <trkpt lat="48.73056" lon="1.78103">
        <ele>182</ele>
        <time>2014-10-29T13:58:37.000Z</time>
      </trkpt>
      <trkpt lat="48.73054" lon="1.78085">
        <ele>182</ele>
        <time>2014-10-29T13:58:44.000Z</time>
      </trkpt>
      <trkpt lat="48.7305" lon="1.78061">
        <ele>182.19999694824</ele>
        <time>2014-10-29T13:58:53.000Z</time>
      </trkpt>
      <trkpt lat="48.73047" lon="1.78041">
        <ele>182.39999389648</ele>
        <time>2014-10-29T13:59:01.000Z</time>
      </trkpt>
      <trkpt lat="48.73041" lon="1.78023">
        <ele>182.39999389648</ele>
        <time>2014-10-29T13:59:09.000Z</time>
      </trkpt>
      <trkpt lat="48.73034" lon="1.78003">
        <ele>182.19999694824</ele>
        <time>2014-10-29T13:59:17.000Z</time>
      </trkpt>
      <trkpt lat="48.7303" lon="1.77988">
        <ele>182.39999389648</ele>
        <time>2014-10-29T13:59:23.000Z</time>
      </trkpt>
      <trkpt lat="48.7303" lon="1.77974">
        <ele>182.60000610352</ele>
        <time>2014-10-29T13:59:29.000Z</time>
      </trkpt>
      <trkpt lat="48.73027" lon="1.77959">
        <ele>182.60000610352</ele>
        <time>2014-10-29T13:59:36.000Z</time>
      </trkpt>
      <trkpt lat="48.73025" lon="1.77941">
        <ele>182.80000305176</ele>
        <time>2014-10-29T13:59:43.000Z</time>
      </trkpt>
      <trkpt lat="48.73024" lon="1.77926">
        <ele>182.80000305176</ele>
        <time>2014-10-29T13:59:49.000Z</time>
      </trkpt>
      <trkpt lat="48.73022" lon="1.77904">
        <ele>183</ele>
        <time>2014-10-29T13:59:57.000Z</time>
      </trkpt>
      <trkpt lat="48.7302" lon="1.77892">
        <ele>183.39999389648</ele>
        <time>2014-10-29T14:00:02.000Z</time>
      </trkpt>
      <trkpt lat="48.73021" lon="1.77889">
        <ele>183.39999389648</ele>
        <time>2014-10-29T14:00:03.000Z</time>
      </trkpt>
      <trkpt lat="48.7302" lon="1.77884">
        <ele>183.60000610352</ele>
        <time>2014-10-29T14:00:05.000Z</time>
      </trkpt>
      <trkpt lat="48.73021" lon="1.77879">
        <ele>183.60000610352</ele>
        <time>2014-10-29T14:00:08.000Z</time>
      </trkpt>
      <trkpt lat="48.73016" lon="1.77864">
        <ele>183.80000305176</ele>
        <time>2014-10-29T14:00:14.000Z</time>
      </trkpt>
      <trkpt lat="48.73013" lon="1.77845">
        <ele>184.19999694824</ele>
        <time>2014-10-29T14:00:22.000Z</time>
      </trkpt>
      <trkpt lat="48.73013" lon="1.77834">
        <ele>184.39999389648</ele>
        <time>2014-10-29T14:00:27.000Z</time>
      </trkpt>
      <trkpt lat="48.73012" lon="1.77817">
        <ele>184.60000610352</ele>
        <time>2014-10-29T14:00:34.000Z</time>
      </trkpt>
      <trkpt lat="48.73012" lon="1.77799">
        <ele>184.80000305176</ele>
        <time>2014-10-29T14:00:40.000Z</time>
      </trkpt>
      <trkpt lat="48.7301" lon="1.77784">
        <ele>184.80000305176</ele>
        <time>2014-10-29T14:00:46.000Z</time>
      </trkpt>
      <trkpt lat="48.73007" lon="1.77768">
        <ele>184.80000305176</ele>
        <time>2014-10-29T14:00:52.000Z</time>
      </trkpt>
      <trkpt lat="48.73008" lon="1.7776">
        <ele>185</ele>
        <time>2014-10-29T14:00:54.000Z</time>
      </trkpt>
      <trkpt lat="48.73005" lon="1.77731">
        <ele>185</ele>
        <time>2014-10-29T14:01:01.000Z</time>
      </trkpt>
      <trkpt lat="48.73002" lon="1.77709">
        <ele>185</ele>
        <time>2014-10-29T14:01:06.000Z</time>
      </trkpt>
      <trkpt lat="48.72998" lon="1.77679">
        <ele>184.60000610352</ele>
        <time>2014-10-29T14:01:12.000Z</time>
      </trkpt>
      <trkpt lat="48.72994" lon="1.77652">
        <ele>184.39999389648</ele>
        <time>2014-10-29T14:01:18.000Z</time>
      </trkpt>
      <trkpt lat="48.72988" lon="1.77631">
        <ele>184.60000610352</ele>
        <time>2014-10-29T14:01:23.000Z</time>
      </trkpt>
      <trkpt lat="48.72982" lon="1.77608">
        <ele>184.60000610352</ele>
        <time>2014-10-29T14:01:29.000Z</time>
      </trkpt>
      <trkpt lat="48.72978" lon="1.77586">
        <ele>184.19999694824</ele>
        <time>2014-10-29T14:01:34.000Z</time>
      </trkpt>
      <trkpt lat="48.72974" lon="1.77564">
        <ele>183.80000305176</ele>
        <time>2014-10-29T14:01:39.000Z</time>
      </trkpt>
      <trkpt lat="48.72967" lon="1.77537">
        <ele>183.80000305176</ele>
        <time>2014-10-29T14:01:45.000Z</time>
      </trkpt>
      <trkpt lat="48.72962" lon="1.77511">
        <ele>183.60000610352</ele>
        <time>2014-10-29T14:01:50.000Z</time>
      </trkpt>
      <trkpt lat="48.72954" lon="1.77481">
        <ele>183.80000305176</ele>
        <time>2014-10-29T14:01:56.000Z</time>
      </trkpt>
      <trkpt lat="48.72949" lon="1.77458">
        <ele>184.19999694824</ele>
        <time>2014-10-29T14:02:01.000Z</time>
      </trkpt>
      <trkpt lat="48.72944" lon="1.77436">
        <ele>184.39999389648</ele>
        <time>2014-10-29T14:02:06.000Z</time>
      </trkpt>
      <trkpt lat="48.72942" lon="1.77423">
        <ele>184.80000305176</ele>
        <time>2014-10-29T14:02:11.000Z</time>
      </trkpt>
      <trkpt lat="48.7294" lon="1.77412">
        <ele>185</ele>
        <time>2014-10-29T14:02:15.000Z</time>
      </trkpt>
      <trkpt lat="48.72936" lon="1.77388">
        <ele>185.39999389648</ele>
        <time>2014-10-29T14:02:24.000Z</time>
      </trkpt>
      <trkpt lat="48.72934" lon="1.77375">
        <ele>185.60000610352</ele>
        <time>2014-10-29T14:02:29.000Z</time>
      </trkpt>
      <trkpt lat="48.72932" lon="1.7737">
        <ele>185.80000305176</ele>
        <time>2014-10-29T14:02:31.000Z</time>
      </trkpt>
      <trkpt lat="48.72928" lon="1.77352">
        <ele>186.19999694824</ele>
        <time>2014-10-29T14:02:37.000Z</time>
      </trkpt>
      <trkpt lat="48.72923" lon="1.77336">
        <ele>186.39999389648</ele>
        <time>2014-10-29T14:02:43.000Z</time>
      </trkpt>
      <trkpt lat="48.72917" lon="1.77317">
        <ele>186.80000305176</ele>
        <time>2014-10-29T14:02:50.000Z</time>
      </trkpt>
      <trkpt lat="48.7291" lon="1.77301">
        <ele>186.39999389648</ele>
        <time>2014-10-29T14:02:57.000Z</time>
      </trkpt>
      <trkpt lat="48.72903" lon="1.77283">
        <ele>186</ele>
        <time>2014-10-29T14:03:05.000Z</time>
      </trkpt>
      <trkpt lat="48.72894" lon="1.77263">
        <ele>185.39999389648</ele>
        <time>2014-10-29T14:03:15.000Z</time>
      </trkpt>
      <trkpt lat="48.72889" lon="1.77256">
        <ele>185.19999694824</ele>
        <time>2014-10-29T14:03:19.000Z</time>
      </trkpt>
      <trkpt lat="48.72884" lon="1.77251">
        <ele>185.19999694824</ele>
        <time>2014-10-29T14:03:24.000Z</time>
      </trkpt>
      <trkpt lat="48.72883" lon="1.77245">
        <ele>185</ele>
        <time>2014-10-29T14:03:30.000Z</time>
      </trkpt>
      <trkpt lat="48.72884" lon="1.77244">
        <ele>184.80000305176</ele>
        <time>2014-10-29T14:03:33.000Z</time>
      </trkpt>
      <trkpt lat="48.72881" lon="1.7725">
        <ele>185.19999694824</ele>
        <time>2014-10-29T14:03:55.000Z</time>
      </trkpt>
      <trkpt lat="48.7288" lon="1.7726">
        <ele>185.39999389648</ele>
        <time>2014-10-29T14:03:59.000Z</time>
      </trkpt>
      <trkpt lat="48.72876" lon="1.77276">
        <ele>185.80000305176</ele>
        <time>2014-10-29T14:04:06.000Z</time>
      </trkpt>
      <trkpt lat="48.72872" lon="1.77292">
        <ele>185.80000305176</ele>
        <time>2014-10-29T14:04:11.000Z</time>
      </trkpt>
      <trkpt lat="48.72871" lon="1.77305">
        <ele>186</ele>
        <time>2014-10-29T14:04:17.000Z</time>
      </trkpt>
      <trkpt lat="48.72866" lon="1.77313">
        <ele>186</ele>
        <time>2014-10-29T14:04:22.000Z</time>
      </trkpt>
      <trkpt lat="48.72861" lon="1.77332">
        <ele>185.80000305176</ele>
        <time>2014-10-29T14:04:30.000Z</time>
      </trkpt>
      <trkpt lat="48.72858" lon="1.7735">
        <ele>185.60000610352</ele>
        <time>2014-10-29T14:04:37.000Z</time>
      </trkpt>
      <trkpt lat="48.72854" lon="1.77361">
        <ele>185.60000610352</ele>
        <time>2014-10-29T14:04:42.000Z</time>
      </trkpt>
      <trkpt lat="48.72849" lon="1.77377">
        <ele>185.19999694824</ele>
        <time>2014-10-29T14:04:49.000Z</time>
      </trkpt>
      <trkpt lat="48.72845" lon="1.77389">
        <ele>184.80000305176</ele>
        <time>2014-10-29T14:04:54.000Z</time>
      </trkpt>
      <trkpt lat="48.7284" lon="1.77396">
        <ele>184.60000610352</ele>
        <time>2014-10-29T14:04:58.000Z</time>
      </trkpt>
      <trkpt lat="48.72838" lon="1.77401">
        <ele>184.39999389648</ele>
        <time>2014-10-29T14:05:01.000Z</time>
      </trkpt>
      <trkpt lat="48.72835" lon="1.77418">
        <ele>184</ele>
        <time>2014-10-29T14:05:08.000Z</time>
      </trkpt>
      <trkpt lat="48.72834" lon="1.7742">
        <ele>183.80000305176</ele>
        <time>2014-10-29T14:05:11.000Z</time>
      </trkpt>
      <trkpt lat="48.72834" lon="1.77424">
        <ele>183.80000305176</ele>
        <time>2014-10-29T14:05:17.000Z</time>
      </trkpt>
      <trkpt lat="48.72832" lon="1.77431">
        <ele>183.60000610352</ele>
        <time>2014-10-29T14:05:19.000Z</time>
      </trkpt>
      <trkpt lat="48.72826" lon="1.77445">
        <ele>183.19999694824</ele>
        <time>2014-10-29T14:05:25.000Z</time>
      </trkpt>
      <trkpt lat="48.7282" lon="1.77462">
        <ele>182.80000305176</ele>
        <time>2014-10-29T14:05:32.000Z</time>
      </trkpt>
      <trkpt lat="48.72816" lon="1.77477">
        <ele>182.60000610352</ele>
        <time>2014-10-29T14:05:38.000Z</time>
      </trkpt>
      <trkpt lat="48.72811" lon="1.77491">
        <ele>182.39999389648</ele>
        <time>2014-10-29T14:05:44.000Z</time>
      </trkpt>
      <trkpt lat="48.72806" lon="1.77507">
        <ele>182.19999694824</ele>
        <time>2014-10-29T14:05:51.000Z</time>
      </trkpt>
      <trkpt lat="48.72802" lon="1.77523">
        <ele>182</ele>
        <time>2014-10-29T14:05:57.000Z</time>
      </trkpt>
      <trkpt lat="48.72796" lon="1.77548">
        <ele>181.39999389648</ele>
        <time>2014-10-29T14:06:04.000Z</time>
      </trkpt>
      <trkpt lat="48.7279" lon="1.77564">
        <ele>181</ele>
        <time>2014-10-29T14:06:09.000Z</time>
      </trkpt>
      <trkpt lat="48.72785" lon="1.77582">
        <ele>180.39999389648</ele>
        <time>2014-10-29T14:06:14.000Z</time>
      </trkpt>
      <trkpt lat="48.72775" lon="1.77614">
        <ele>181</ele>
        <time>2014-10-29T14:06:21.000Z</time>
      </trkpt>
      <trkpt lat="48.72766" lon="1.77648">
        <ele>181.39999389648</ele>
        <time>2014-10-29T14:06:26.000Z</time>
      </trkpt>
      <trkpt lat="48.72764" lon="1.77655">
        <ele>181.80000305176</ele>
        <time>2014-10-29T14:06:27.000Z</time>
      </trkpt>
      <trkpt lat="48.7276" lon="1.77665">
        <ele>181.80000305176</ele>
        <time>2014-10-29T14:06:29.000Z</time>
      </trkpt>
      <trkpt lat="48.72755" lon="1.77679">
        <ele>181.80000305176</ele>
        <time>2014-10-29T14:06:32.000Z</time>
      </trkpt>
      <trkpt lat="48.72746" lon="1.77705">
        <ele>182</ele>
        <time>2014-10-29T14:06:37.000Z</time>
      </trkpt>
      <trkpt lat="48.7274" lon="1.77725">
        <ele>183</ele>
        <time>2014-10-29T14:06:41.000Z</time>
      </trkpt>
      <trkpt lat="48.72739" lon="1.77732">
        <ele>183.60000610352</ele>
        <time>2014-10-29T14:06:42.000Z</time>
      </trkpt>
      <trkpt lat="48.72731" lon="1.77757">
        <ele>184.39999389648</ele>
        <time>2014-10-29T14:06:46.000Z</time>
      </trkpt>
      <trkpt lat="48.72724" lon="1.77776">
        <ele>185</ele>
        <time>2014-10-29T14:06:50.000Z</time>
      </trkpt>
      <trkpt lat="48.72716" lon="1.77808">
        <ele>185.60000610352</ele>
        <time>2014-10-29T14:06:56.000Z</time>
      </trkpt>
      <trkpt lat="48.72707" lon="1.77837">
        <ele>185.39999389648</ele>
        <time>2014-10-29T14:07:01.000Z</time>
      </trkpt>
      <trkpt lat="48.72705" lon="1.77843">
        <ele>185.39999389648</ele>
        <time>2014-10-29T14:07:02.000Z</time>
      </trkpt>
      <trkpt lat="48.72698" lon="1.77865">
        <ele>185.19999694824</ele>
        <time>2014-10-29T14:07:06.000Z</time>
      </trkpt>
      <trkpt lat="48.72688" lon="1.77899">
        <ele>185</ele>
        <time>2014-10-29T14:07:12.000Z</time>
      </trkpt>
      <trkpt lat="48.7268" lon="1.77927">
        <ele>183.60000610352</ele>
        <time>2014-10-29T14:07:18.000Z</time>
      </trkpt>
      <trkpt lat="48.72675" lon="1.77942">
        <ele>182.60000610352</ele>
        <time>2014-10-29T14:07:24.000Z</time>
      </trkpt>
      <trkpt lat="48.72671" lon="1.77955">
        <ele>181.80000305176</ele>
        <time>2014-10-29T14:07:30.000Z</time>
      </trkpt>
      <trkpt lat="48.72669" lon="1.77962">
        <ele>181.39999389648</ele>
        <time>2014-10-29T14:07:36.000Z</time>
      </trkpt>
      <trkpt lat="48.72668" lon="1.77966">
        <ele>181.19999694824</ele>
        <time>2014-10-29T14:07:41.000Z</time>
      </trkpt>
      <trkpt lat="48.72667" lon="1.77968">
        <ele>181</ele>
        <time>2014-10-29T14:07:45.000Z</time>
      </trkpt>
      <trkpt lat="48.72666" lon="1.77969">
        <ele>180.80000305176</ele>
        <time>2014-10-29T14:07:48.000Z</time>
      </trkpt>
      <trkpt lat="48.72666" lon="1.77969">
        <ele>180.80000305176</ele>
        <time>2014-10-29T14:07:49.000Z</time>
      </trkpt>
      <trkpt lat="48.72663" lon="1.77976">
        <ele>180.19999694824</ele>
        <time>2014-10-29T14:07:52.000Z</time>
      </trkpt>
      <trkpt lat="48.72659" lon="1.77984">
        <ele>179.60000610352</ele>
        <time>2014-10-29T14:07:59.000Z</time>
      </trkpt>
      <trkpt lat="48.72657" lon="1.77992">
        <ele>179.19999694824</ele>
        <time>2014-10-29T14:08:04.000Z</time>
      </trkpt>
      <trkpt lat="48.72655" lon="1.77995">
        <ele>179</ele>
        <time>2014-10-29T14:08:07.000Z</time>
      </trkpt>
      <trkpt lat="48.72652" lon="1.78009">
        <ele>178.60000610352</ele>
        <time>2014-10-29T14:08:14.000Z</time>
      </trkpt>
      <trkpt lat="48.72647" lon="1.78024">
        <ele>178.19999694824</ele>
        <time>2014-10-29T14:08:19.000Z</time>
      </trkpt>
      <trkpt lat="48.72644" lon="1.78034">
        <ele>177.80000305176</ele>
        <time>2014-10-29T14:08:24.000Z</time>
      </trkpt>
      <trkpt lat="48.72636" lon="1.78064">
        <ele>176.39999389648</ele>
        <time>2014-10-29T14:08:30.000Z</time>
      </trkpt>
      <trkpt lat="48.72628" lon="1.7809">
        <ele>176</ele>
        <time>2014-10-29T14:08:35.000Z</time>
      </trkpt>
      <trkpt lat="48.72619" lon="1.78117">
        <ele>177.19999694824</ele>
        <time>2014-10-29T14:08:41.000Z</time>
      </trkpt>
      <trkpt lat="48.72614" lon="1.78135">
        <ele>178</ele>
        <time>2014-10-29T14:08:45.000Z</time>
      </trkpt>
      <trkpt lat="48.72607" lon="1.78159">
        <ele>179</ele>
        <time>2014-10-29T14:08:51.000Z</time>
      </trkpt>
      <trkpt lat="48.72601" lon="1.78182">
        <ele>180.80000305176</ele>
        <time>2014-10-29T14:08:56.000Z</time>
      </trkpt>
      <trkpt lat="48.72593" lon="1.78212">
        <ele>182.60000610352</ele>
        <time>2014-10-29T14:09:02.000Z</time>
      </trkpt>
      <trkpt lat="48.72585" lon="1.78238">
        <ele>184</ele>
        <time>2014-10-29T14:09:07.000Z</time>
      </trkpt>
      <trkpt lat="48.72578" lon="1.7826">
        <ele>184</ele>
        <time>2014-10-29T14:09:11.000Z</time>
      </trkpt>
      <trkpt lat="48.72567" lon="1.78298">
        <ele>184.19999694824</ele>
        <time>2014-10-29T14:09:18.000Z</time>
      </trkpt>
      <trkpt lat="48.72558" lon="1.78323">
        <ele>184.39999389648</ele>
        <time>2014-10-29T14:09:23.000Z</time>
      </trkpt>
      <trkpt lat="48.72548" lon="1.78356">
        <ele>183.39999389648</ele>
        <time>2014-10-29T14:09:29.000Z</time>
      </trkpt>
      <trkpt lat="48.72538" lon="1.78388">
        <ele>182.39999389648</ele>
        <time>2014-10-29T14:09:35.000Z</time>
      </trkpt>
      <trkpt lat="48.7253" lon="1.78411">
        <ele>181.80000305176</ele>
        <time>2014-10-29T14:09:40.000Z</time>
      </trkpt>
      <trkpt lat="48.72523" lon="1.78434">
        <ele>182.19999694824</ele>
        <time>2014-10-29T14:09:46.000Z</time>
      </trkpt>
      <trkpt lat="48.72518" lon="1.78443">
        <ele>182.19999694824</ele>
        <time>2014-10-29T14:09:51.000Z</time>
      </trkpt>
      <trkpt lat="48.72514" lon="1.78453">
        <ele>182.19999694824</ele>
        <time>2014-10-29T14:09:57.000Z</time>
      </trkpt>
      <trkpt lat="48.72512" lon="1.78463">
        <ele>182</ele>
        <time>2014-10-29T14:10:01.000Z</time>
      </trkpt>
      <trkpt lat="48.72508" lon="1.78479">
        <ele>182</ele>
        <time>2014-10-29T14:10:08.000Z</time>
      </trkpt>
      <trkpt lat="48.72503" lon="1.78495">
        <ele>181.39999389648</ele>
        <time>2014-10-29T14:10:13.000Z</time>
      </trkpt>
      <trkpt lat="48.72494" lon="1.78527">
        <ele>180.60000610352</ele>
        <time>2014-10-29T14:10:20.000Z</time>
      </trkpt>
      <trkpt lat="48.72488" lon="1.78547">
        <ele>180.19999694824</ele>
        <time>2014-10-29T14:10:25.000Z</time>
      </trkpt>
      <trkpt lat="48.72479" lon="1.78571">
        <ele>180.39999389648</ele>
        <time>2014-10-29T14:10:31.000Z</time>
      </trkpt>
      <trkpt lat="48.72465" lon="1.78612">
        <ele>177.60000610352</ele>
        <time>2014-10-29T14:10:39.000Z</time>
      </trkpt>
      <trkpt lat="48.72457" lon="1.78638">
        <ele>176.80000305176</ele>
        <time>2014-10-29T14:10:44.000Z</time>
      </trkpt>
      <trkpt lat="48.72449" lon="1.78664">
        <ele>176.19999694824</ele>
        <time>2014-10-29T14:10:49.000Z</time>
      </trkpt>
      <trkpt lat="48.7244" lon="1.78688">
        <ele>176</ele>
        <time>2014-10-29T14:10:54.000Z</time>
      </trkpt>
      <trkpt lat="48.72434" lon="1.78707">
        <ele>176</ele>
        <time>2014-10-29T14:10:58.000Z</time>
      </trkpt>
      <trkpt lat="48.72424" lon="1.78739">
        <ele>176.19999694824</ele>
        <time>2014-10-29T14:11:04.000Z</time>
      </trkpt>
      <trkpt lat="48.72411" lon="1.78774">
        <ele>176.39999389648</ele>
        <time>2014-10-29T14:11:11.000Z</time>
      </trkpt>
      <trkpt lat="48.724" lon="1.78805">
        <ele>176.19999694824</ele>
        <time>2014-10-29T14:11:17.000Z</time>
      </trkpt>
      <trkpt lat="48.72388" lon="1.78836">
        <ele>176.19999694824</ele>
        <time>2014-10-29T14:11:23.000Z</time>
      </trkpt>
      <trkpt lat="48.72382" lon="1.7886">
        <ele>176.39999389648</ele>
        <time>2014-10-29T14:11:27.000Z</time>
      </trkpt>
      <trkpt lat="48.72373" lon="1.78888">
        <ele>176.19999694824</ele>
        <time>2014-10-29T14:11:33.000Z</time>
      </trkpt>
      <trkpt lat="48.72367" lon="1.78904">
        <ele>176.19999694824</ele>
        <time>2014-10-29T14:11:40.000Z</time>
      </trkpt>
      <trkpt lat="48.72362" lon="1.78923">
        <ele>176.19999694824</ele>
        <time>2014-10-29T14:11:48.000Z</time>
      </trkpt>
      <trkpt lat="48.72355" lon="1.78942">
        <ele>176</ele>
        <time>2014-10-29T14:11:57.000Z</time>
      </trkpt>
      <trkpt lat="48.72352" lon="1.78953">
        <ele>175.80000305176</ele>
        <time>2014-10-29T14:12:02.000Z</time>
      </trkpt>
      <trkpt lat="48.72352" lon="1.78955">
        <ele>176</ele>
        <time>2014-10-29T14:12:05.000Z</time>
      </trkpt>
      <trkpt lat="48.72355" lon="1.78948">
        <ele>176</ele>
        <time>2014-10-29T14:12:09.000Z</time>
      </trkpt>
      <trkpt lat="48.72362" lon="1.78925">
        <ele>176.19999694824</ele>
        <time>2014-10-29T14:12:20.000Z</time>
      </trkpt>
      <trkpt lat="48.72366" lon="1.78915">
        <ele>176.19999694824</ele>
        <time>2014-10-29T14:12:26.000Z</time>
      </trkpt>
      <trkpt lat="48.72373" lon="1.78892">
        <ele>176.19999694824</ele>
        <time>2014-10-29T14:12:38.000Z</time>
      </trkpt>
      <trkpt lat="48.7238" lon="1.78875">
        <ele>176.39999389648</ele>
        <time>2014-10-29T14:12:47.000Z</time>
      </trkpt>
      <trkpt lat="48.72384" lon="1.78857">
        <ele>176.39999389648</ele>
        <time>2014-10-29T14:12:55.000Z</time>
      </trkpt>
      <trkpt lat="48.72387" lon="1.78849">
        <ele>176.39999389648</ele>
        <time>2014-10-29T14:12:59.000Z</time>
      </trkpt>
      <trkpt lat="48.72387" lon="1.78847">
        <ele>176.39999389648</ele>
        <time>2014-10-29T14:13:03.000Z</time>
      </trkpt>
      <trkpt lat="48.72389" lon="1.78837">
        <ele>176.19999694824</ele>
        <time>2014-10-29T14:13:23.000Z</time>
      </trkpt>
      <trkpt lat="48.72395" lon="1.78822">
        <ele>176</ele>
        <time>2014-10-29T14:13:28.000Z</time>
      </trkpt>
      <trkpt lat="48.72402" lon="1.78806">
        <ele>176.19999694824</ele>
        <time>2014-10-29T14:13:36.000Z</time>
      </trkpt>
      <trkpt lat="48.72407" lon="1.78791">
        <ele>176.39999389648</ele>
        <time>2014-10-29T14:13:43.000Z</time>
      </trkpt>
      <trkpt lat="48.72411" lon="1.78779">
        <ele>176.39999389648</ele>
        <time>2014-10-29T14:13:49.000Z</time>
      </trkpt>
      <trkpt lat="48.72416" lon="1.78766">
        <ele>176.19999694824</ele>
        <time>2014-10-29T14:13:55.000Z</time>
      </trkpt>
      <trkpt lat="48.72423" lon="1.78743">
        <ele>176.19999694824</ele>
        <time>2014-10-29T14:14:04.000Z</time>
      </trkpt>
      <trkpt lat="48.72429" lon="1.78727">
        <ele>175.80000305176</ele>
        <time>2014-10-29T14:14:11.000Z</time>
      </trkpt>
      <trkpt lat="48.72436" lon="1.7871">
        <ele>176</ele>
        <time>2014-10-29T14:14:19.000Z</time>
      </trkpt>
      <trkpt lat="48.72439" lon="1.78701">
        <ele>176</ele>
        <time>2014-10-29T14:14:23.000Z</time>
      </trkpt>
      <trkpt lat="48.72444" lon="1.7868">
        <ele>176</ele>
        <time>2014-10-29T14:14:32.000Z</time>
      </trkpt>
      <trkpt lat="48.72452" lon="1.78656">
        <ele>176.39999389648</ele>
        <time>2014-10-29T14:14:42.000Z</time>
      </trkpt>
      <trkpt lat="48.72461" lon="1.78631">
        <ele>177.19999694824</ele>
        <time>2014-10-29T14:14:53.000Z</time>
      </trkpt>
      <trkpt lat="48.72468" lon="1.78607">
        <ele>177.80000305176</ele>
        <time>2014-10-29T14:15:03.000Z</time>
      </trkpt>
      <trkpt lat="48.72475" lon="1.78586">
        <ele>179.39999389648</ele>
        <time>2014-10-29T14:15:12.000Z</time>
      </trkpt>
      <trkpt lat="48.72477" lon="1.78565">
        <ele>180.19999694824</ele>
        <time>2014-10-29T14:15:20.000Z</time>
      </trkpt>
      <trkpt lat="48.72473" lon="1.78555">
        <ele>179.60000610352</ele>
        <time>2014-10-29T14:15:25.000Z</time>
      </trkpt>
      <trkpt lat="48.72462" lon="1.78548">
        <ele>178.60000610352</ele>
        <time>2014-10-29T14:15:32.000Z</time>
      </trkpt>
      <trkpt lat="48.72452" lon="1.78543">
        <ele>177.80000305176</ele>
        <time>2014-10-29T14:15:39.000Z</time>
      </trkpt>
      <trkpt lat="48.72441" lon="1.78537">
        <ele>177</ele>
        <time>2014-10-29T14:15:45.000Z</time>
      </trkpt>
      <trkpt lat="48.7243" lon="1.78529">
        <ele>175.80000305176</ele>
        <time>2014-10-29T14:15:52.000Z</time>
      </trkpt>
      <trkpt lat="48.7242" lon="1.78521">
        <ele>174.60000610352</ele>
        <time>2014-10-29T14:15:59.000Z</time>
      </trkpt>
      <trkpt lat="48.72415" lon="1.78518">
        <ele>174</ele>
        <time>2014-10-29T14:16:02.000Z</time>
      </trkpt>
      <trkpt lat="48.72404" lon="1.78512">
        <ele>172.80000305176</ele>
        <time>2014-10-29T14:16:09.000Z</time>
      </trkpt>
      <trkpt lat="48.72399" lon="1.78509">
        <ele>172.19999694824</ele>
        <time>2014-10-29T14:16:13.000Z</time>
      </trkpt>
      <trkpt lat="48.7239" lon="1.78497">
        <ele>170.80000305176</ele>
        <time>2014-10-29T14:16:21.000Z</time>
      </trkpt>
      <trkpt lat="48.72389" lon="1.78496">
        <ele>170.60000610352</ele>
        <time>2014-10-29T14:16:22.000Z</time>
      </trkpt>
      <trkpt lat="48.72385" lon="1.78493">
        <ele>170.19999694824</ele>
        <time>2014-10-29T14:16:26.000Z</time>
      </trkpt>
      <trkpt lat="48.72382" lon="1.78493">
        <ele>169.80000305176</ele>
        <time>2014-10-29T14:16:30.000Z</time>
      </trkpt>
      <trkpt lat="48.72375" lon="1.78489">
        <ele>169</ele>
        <time>2014-10-29T14:16:38.000Z</time>
      </trkpt>
      <trkpt lat="48.72371" lon="1.78487">
        <ele>168.60000610352</ele>
        <time>2014-10-29T14:16:43.000Z</time>
      </trkpt>
      <trkpt lat="48.72367" lon="1.78486">
        <ele>168.39999389648</ele>
        <time>2014-10-29T14:16:45.000Z</time>
      </trkpt>
      <trkpt lat="48.72354" lon="1.78479">
        <ele>167.19999694824</ele>
        <time>2014-10-29T14:16:52.000Z</time>
      </trkpt>
      <trkpt lat="48.7235" lon="1.78478">
        <ele>167.19999694824</ele>
        <time>2014-10-29T14:16:54.000Z</time>
      </trkpt>
      <trkpt lat="48.72344" lon="1.78472">
        <ele>167.19999694824</ele>
        <time>2014-10-29T14:16:59.000Z</time>
      </trkpt>
      <trkpt lat="48.7234" lon="1.78467">
        <ele>167.39999389648</ele>
        <time>2014-10-29T14:17:02.000Z</time>
      </trkpt>
      <trkpt lat="48.7233" lon="1.78452">
        <ele>167.60000610352</ele>
        <time>2014-10-29T14:17:08.000Z</time>
      </trkpt>
      <trkpt lat="48.72323" lon="1.78441">
        <ele>167.80000305176</ele>
        <time>2014-10-29T14:17:13.000Z</time>
      </trkpt>
      <trkpt lat="48.72316" lon="1.7844">
        <ele>167.80000305176</ele>
        <time>2014-10-29T14:17:18.000Z</time>
      </trkpt>
      <trkpt lat="48.72308" lon="1.7844">
        <ele>167.60000610352</ele>
        <time>2014-10-29T14:17:23.000Z</time>
      </trkpt>
      <trkpt lat="48.72306" lon="1.7844">
        <ele>167.60000610352</ele>
        <time>2014-10-29T14:17:24.000Z</time>
      </trkpt>
      <trkpt lat="48.72296" lon="1.78439">
        <ele>167.19999694824</ele>
        <time>2014-10-29T14:17:30.000Z</time>
      </trkpt>
      <trkpt lat="48.72286" lon="1.78436">
        <ele>166.80000305176</ele>
        <time>2014-10-29T14:17:36.000Z</time>
      </trkpt>
      <trkpt lat="48.72278" lon="1.78438">
        <ele>166.39999389648</ele>
        <time>2014-10-29T14:17:41.000Z</time>
      </trkpt>
      <trkpt lat="48.7227" lon="1.78433">
        <ele>166.19999694824</ele>
        <time>2014-10-29T14:17:46.000Z</time>
      </trkpt>
      <trkpt lat="48.72264" lon="1.78428">
        <ele>166.39999389648</ele>
        <time>2014-10-29T14:17:52.000Z</time>
      </trkpt>
      <trkpt lat="48.72255" lon="1.78416">
        <ele>167</ele>
        <time>2014-10-29T14:17:58.000Z</time>
      </trkpt>
      <trkpt lat="48.72254" lon="1.78414">
        <ele>167</ele>
        <time>2014-10-29T14:17:59.000Z</time>
      </trkpt>
      <trkpt lat="48.72244" lon="1.78411">
        <ele>167</ele>
        <time>2014-10-29T14:18:06.000Z</time>
      </trkpt>
      <trkpt lat="48.72239" lon="1.78409">
        <ele>167</ele>
        <time>2014-10-29T14:18:09.000Z</time>
      </trkpt>
      <trkpt lat="48.72228" lon="1.78402">
        <ele>167.39999389648</ele>
        <time>2014-10-29T14:18:15.000Z</time>
      </trkpt>
      <trkpt lat="48.72219" lon="1.78397">
        <ele>168</ele>
        <time>2014-10-29T14:18:20.000Z</time>
      </trkpt>
      <trkpt lat="48.72211" lon="1.7839">
        <ele>168.80000305176</ele>
        <time>2014-10-29T14:18:24.000Z</time>
      </trkpt>
      <trkpt lat="48.72204" lon="1.78386">
        <ele>169.19999694824</ele>
        <time>2014-10-29T14:18:28.000Z</time>
      </trkpt>
      <trkpt lat="48.72195" lon="1.78377">
        <ele>170.19999694824</ele>
        <time>2014-10-29T14:18:33.000Z</time>
      </trkpt>
      <trkpt lat="48.72189" lon="1.78372">
        <ele>170.80000305176</ele>
        <time>2014-10-29T14:18:37.000Z</time>
      </trkpt>
      <trkpt lat="48.72182" lon="1.78366">
        <ele>171.80000305176</ele>
        <time>2014-10-29T14:18:42.000Z</time>
      </trkpt>
      <trkpt lat="48.72171" lon="1.78356">
        <ele>173.39999389648</ele>
        <time>2014-10-29T14:18:50.000Z</time>
      </trkpt>
      <trkpt lat="48.72162" lon="1.7835">
        <ele>174.39999389648</ele>
        <time>2014-10-29T14:18:56.000Z</time>
      </trkpt>
      <trkpt lat="48.72149" lon="1.78345">
        <ele>175.39999389648</ele>
        <time>2014-10-29T14:19:04.000Z</time>
      </trkpt>
      <trkpt lat="48.72148" lon="1.78345">
        <ele>175.60000610352</ele>
        <time>2014-10-29T14:19:05.000Z</time>
      </trkpt>
      <trkpt lat="48.72137" lon="1.78337">
        <ele>177</ele>
        <time>2014-10-29T14:19:12.000Z</time>
      </trkpt>
      <trkpt lat="48.72125" lon="1.78329">
        <ele>178.39999389648</ele>
        <time>2014-10-29T14:19:20.000Z</time>
      </trkpt>
      <trkpt lat="48.72114" lon="1.7832">
        <ele>179.80000305176</ele>
        <time>2014-10-29T14:19:27.000Z</time>
      </trkpt>
      <trkpt lat="48.72102" lon="1.78309">
        <ele>180.19999694824</ele>
        <time>2014-10-29T14:19:35.000Z</time>
      </trkpt>
      <trkpt lat="48.72095" lon="1.78306">
        <ele>180.19999694824</ele>
        <time>2014-10-29T14:19:40.000Z</time>
      </trkpt>
      <trkpt lat="48.72084" lon="1.78299">
        <ele>180.39999389648</ele>
        <time>2014-10-29T14:19:46.000Z</time>
      </trkpt>
      <trkpt lat="48.72072" lon="1.78293">
        <ele>180.80000305176</ele>
        <time>2014-10-29T14:19:53.000Z</time>
      </trkpt>
      <trkpt lat="48.72063" lon="1.78289">
        <ele>181</ele>
        <time>2014-10-29T14:19:58.000Z</time>
      </trkpt>
      <trkpt lat="48.72054" lon="1.78282">
        <ele>181.19999694824</ele>
        <time>2014-10-29T14:20:04.000Z</time>
      </trkpt>
      <trkpt lat="48.72046" lon="1.78278">
        <ele>181.39999389648</ele>
        <time>2014-10-29T14:20:08.000Z</time>
      </trkpt>
      <trkpt lat="48.72034" lon="1.78271">
        <ele>181.60000610352</ele>
        <time>2014-10-29T14:20:14.000Z</time>
      </trkpt>
      <trkpt lat="48.72024" lon="1.78263">
        <ele>182</ele>
        <time>2014-10-29T14:20:20.000Z</time>
      </trkpt>
      <trkpt lat="48.72019" lon="1.7826">
        <ele>182</ele>
        <time>2014-10-29T14:20:22.000Z</time>
      </trkpt>
      <trkpt lat="48.72007" lon="1.78251">
        <ele>182.19999694824</ele>
        <time>2014-10-29T14:20:29.000Z</time>
      </trkpt>
      <trkpt lat="48.71999" lon="1.78247">
        <ele>182.19999694824</ele>
        <time>2014-10-29T14:20:33.000Z</time>
      </trkpt>
      <trkpt lat="48.71994" lon="1.78242">
        <ele>182.39999389648</ele>
        <time>2014-10-29T14:20:37.000Z</time>
      </trkpt>
      <trkpt lat="48.71982" lon="1.78234">
        <ele>182.60000610352</ele>
        <time>2014-10-29T14:20:44.000Z</time>
      </trkpt>
      <trkpt lat="48.71972" lon="1.78231">
        <ele>182.60000610352</ele>
        <time>2014-10-29T14:20:50.000Z</time>
      </trkpt>
      <trkpt lat="48.71969" lon="1.78228">
        <ele>182.80000305176</ele>
        <time>2014-10-29T14:20:53.000Z</time>
      </trkpt>
      <trkpt lat="48.71959" lon="1.78223">
        <ele>183</ele>
        <time>2014-10-29T14:20:59.000Z</time>
      </trkpt>
      <trkpt lat="48.71949" lon="1.78216">
        <ele>183.19999694824</ele>
        <time>2014-10-29T14:21:04.000Z</time>
      </trkpt>
      <trkpt lat="48.71942" lon="1.78211">
        <ele>183.19999694824</ele>
        <time>2014-10-29T14:21:08.000Z</time>
      </trkpt>
      <trkpt lat="48.71932" lon="1.78204">
        <ele>183</ele>
        <time>2014-10-29T14:21:16.000Z</time>
      </trkpt>
      <trkpt lat="48.71921" lon="1.78196">
        <ele>182.60000610352</ele>
        <time>2014-10-29T14:21:22.000Z</time>
      </trkpt>
      <trkpt lat="48.71911" lon="1.78189">
        <ele>182</ele>
        <time>2014-10-29T14:21:28.000Z</time>
      </trkpt>
      <trkpt lat="48.71908" lon="1.78187">
        <ele>181.80000305176</ele>
        <time>2014-10-29T14:21:30.000Z</time>
      </trkpt>
      <trkpt lat="48.71903" lon="1.78186">
        <ele>181.60000610352</ele>
        <time>2014-10-29T14:21:33.000Z</time>
      </trkpt>
      <trkpt lat="48.7189" lon="1.78179">
        <ele>181</ele>
        <time>2014-10-29T14:21:42.000Z</time>
      </trkpt>
      <trkpt lat="48.71886" lon="1.78176">
        <ele>180.60000610352</ele>
        <time>2014-10-29T14:21:45.000Z</time>
      </trkpt>
      <trkpt lat="48.71883" lon="1.7818">
        <ele>180.39999389648</ele>
        <time>2014-10-29T14:21:49.000Z</time>
      </trkpt>
      <trkpt lat="48.71879" lon="1.78187">
        <ele>180.19999694824</ele>
        <time>2014-10-29T14:21:54.000Z</time>
      </trkpt>
      <trkpt lat="48.71878" lon="1.78187">
        <ele>180</ele>
        <time>2014-10-29T14:21:55.000Z</time>
      </trkpt>
      <trkpt lat="48.7187" lon="1.78198">
        <ele>179.39999389648</ele>
        <time>2014-10-29T14:22:02.000Z</time>
      </trkpt>
      <trkpt lat="48.71867" lon="1.78208">
        <ele>179.19999694824</ele>
        <time>2014-10-29T14:22:06.000Z</time>
      </trkpt>
      <trkpt lat="48.71866" lon="1.78211">
        <ele>179</ele>
        <time>2014-10-29T14:22:07.000Z</time>
      </trkpt>
      <trkpt lat="48.71864" lon="1.78228">
        <ele>178.80000305176</ele>
        <time>2014-10-29T14:22:13.000Z</time>
      </trkpt>
      <trkpt lat="48.7186" lon="1.78239">
        <ele>178.39999389648</ele>
        <time>2014-10-29T14:22:18.000Z</time>
      </trkpt>
      <trkpt lat="48.71853" lon="1.78253">
        <ele>178.19999694824</ele>
        <time>2014-10-29T14:22:25.000Z</time>
      </trkpt>
      <trkpt lat="48.71847" lon="1.78263">
        <ele>178</ele>
        <time>2014-10-29T14:22:29.000Z</time>
      </trkpt>
      <trkpt lat="48.71842" lon="1.78278">
        <ele>178</ele>
        <time>2014-10-29T14:22:35.000Z</time>
      </trkpt>
      <trkpt lat="48.71839" lon="1.78292">
        <ele>178.19999694824</ele>
        <time>2014-10-29T14:22:40.000Z</time>
      </trkpt>
      <trkpt lat="48.71837" lon="1.78308">
        <ele>178.19999694824</ele>
        <time>2014-10-29T14:22:47.000Z</time>
      </trkpt>
      <trkpt lat="48.71837" lon="1.78311">
        <ele>178.19999694824</ele>
        <time>2014-10-29T14:22:48.000Z</time>
      </trkpt>
      <trkpt lat="48.71831" lon="1.78335">
        <ele>178.60000610352</ele>
        <time>2014-10-29T14:22:56.000Z</time>
      </trkpt>
      <trkpt lat="48.71826" lon="1.78352">
        <ele>178.80000305176</ele>
        <time>2014-10-29T14:23:03.000Z</time>
      </trkpt>
      <trkpt lat="48.71819" lon="1.78371">
        <ele>179</ele>
        <time>2014-10-29T14:23:11.000Z</time>
      </trkpt>
      <trkpt lat="48.71816" lon="1.78388">
        <ele>179</ele>
        <time>2014-10-29T14:23:17.000Z</time>
      </trkpt>
      <trkpt lat="48.71811" lon="1.78412">
        <ele>178.80000305176</ele>
        <time>2014-10-29T14:23:26.000Z</time>
      </trkpt>
      <trkpt lat="48.71804" lon="1.78435">
        <ele>178.19999694824</ele>
        <time>2014-10-29T14:23:35.000Z</time>
      </trkpt>
      <trkpt lat="48.71798" lon="1.78447">
        <ele>178.39999389648</ele>
        <time>2014-10-29T14:23:41.000Z</time>
      </trkpt>
      <trkpt lat="48.71794" lon="1.7846">
        <ele>178.60000610352</ele>
        <time>2014-10-29T14:23:47.000Z</time>
      </trkpt>
      <trkpt lat="48.71788" lon="1.78479">
        <ele>179</ele>
        <time>2014-10-29T14:23:55.000Z</time>
      </trkpt>
      <trkpt lat="48.71781" lon="1.78504">
        <ele>178.60000610352</ele>
        <time>2014-10-29T14:24:05.000Z</time>
      </trkpt>
      <trkpt lat="48.71774" lon="1.78521">
        <ele>178.80000305176</ele>
        <time>2014-10-29T14:24:13.000Z</time>
      </trkpt>
      <trkpt lat="48.71768" lon="1.78538">
        <ele>179.19999694824</ele>
        <time>2014-10-29T14:24:20.000Z</time>
      </trkpt>
      <trkpt lat="48.7176" lon="1.78558">
        <ele>179.39999389648</ele>
        <time>2014-10-29T14:24:29.000Z</time>
      </trkpt>
      <trkpt lat="48.71751" lon="1.78562">
        <ele>180</ele>
        <time>2014-10-29T14:24:35.000Z</time>
      </trkpt>
      <trkpt lat="48.7174" lon="1.78565">
        <ele>180.80000305176</ele>
        <time>2014-10-29T14:24:41.000Z</time>
      </trkpt>
      <trkpt lat="48.71732" lon="1.7856">
        <ele>181.19999694824</ele>
        <time>2014-10-29T14:24:46.000Z</time>
      </trkpt>
      <trkpt lat="48.71723" lon="1.78547">
        <ele>181.60000610352</ele>
        <time>2014-10-29T14:24:53.000Z</time>
      </trkpt>
      <trkpt lat="48.71716" lon="1.78537">
        <ele>181.80000305176</ele>
        <time>2014-10-29T14:24:57.000Z</time>
      </trkpt>
      <trkpt lat="48.717" lon="1.78524">
        <ele>182.60000610352</ele>
        <time>2014-10-29T14:25:03.000Z</time>
      </trkpt>
      <trkpt lat="48.71686" lon="1.78516">
        <ele>183.39999389648</ele>
        <time>2014-10-29T14:25:07.000Z</time>
      </trkpt>
      <trkpt lat="48.71674" lon="1.78505">
        <ele>183.60000610352</ele>
        <time>2014-10-29T14:25:11.000Z</time>
      </trkpt>
      <trkpt lat="48.71661" lon="1.78481">
        <ele>183.39999389648</ele>
        <time>2014-10-29T14:25:17.000Z</time>
      </trkpt>
      <trkpt lat="48.71656" lon="1.78448">
        <ele>182</ele>
        <time>2014-10-29T14:25:23.000Z</time>
      </trkpt>
      <trkpt lat="48.71653" lon="1.7842">
        <ele>180.60000610352</ele>
        <time>2014-10-29T14:25:28.000Z</time>
      </trkpt>
      <trkpt lat="48.71647" lon="1.78387">
        <ele>179.39999389648</ele>
        <time>2014-10-29T14:25:34.000Z</time>
      </trkpt>
      <trkpt lat="48.71639" lon="1.78364">
        <ele>178.80000305176</ele>
        <time>2014-10-29T14:25:39.000Z</time>
      </trkpt>
      <trkpt lat="48.71621" lon="1.7835">
        <ele>179.19999694824</ele>
        <time>2014-10-29T14:25:44.000Z</time>
      </trkpt>
      <trkpt lat="48.71611" lon="1.78347">
        <ele>179.60000610352</ele>
        <time>2014-10-29T14:25:46.000Z</time>
      </trkpt>
      <trkpt lat="48.71596" lon="1.78343">
        <ele>179.80000305176</ele>
        <time>2014-10-29T14:25:49.000Z</time>
      </trkpt>
      <trkpt lat="48.71585" lon="1.78335">
        <ele>179.80000305176</ele>
        <time>2014-10-29T14:25:52.000Z</time>
      </trkpt>
      <trkpt lat="48.71575" lon="1.7833">
        <ele>179.60000610352</ele>
        <time>2014-10-29T14:25:54.000Z</time>
      </trkpt>
      <trkpt lat="48.71551" lon="1.78316">
        <ele>179.39999389648</ele>
        <time>2014-10-29T14:25:59.000Z</time>
      </trkpt>
      <trkpt lat="48.71525" lon="1.78301">
        <ele>179</ele>
        <time>2014-10-29T14:26:04.000Z</time>
      </trkpt>
      <trkpt lat="48.71515" lon="1.78297">
        <ele>179</ele>
        <time>2014-10-29T14:26:06.000Z</time>
      </trkpt>
      <trkpt lat="48.71491" lon="1.78294">
        <ele>179</ele>
        <time>2014-10-29T14:26:11.000Z</time>
      </trkpt>
      <trkpt lat="48.71488" lon="1.78293">
        <ele>179</ele>
        <time>2014-10-29T14:26:12.000Z</time>
      </trkpt>
      <trkpt lat="48.71477" lon="1.78289">
        <ele>178.80000305176</ele>
        <time>2014-10-29T14:26:15.000Z</time>
      </trkpt>
      <trkpt lat="48.71469" lon="1.78286">
        <ele>178.80000305176</ele>
        <time>2014-10-29T14:26:17.000Z</time>
      </trkpt>
      <trkpt lat="48.71453" lon="1.78279">
        <ele>178.39999389648</ele>
        <time>2014-10-29T14:26:22.000Z</time>
      </trkpt>
      <trkpt lat="48.71448" lon="1.78278">
        <ele>178.39999389648</ele>
        <time>2014-10-29T14:26:24.000Z</time>
      </trkpt>
      <trkpt lat="48.71429" lon="1.78271">
        <ele>178.39999389648</ele>
        <time>2014-10-29T14:26:32.000Z</time>
      </trkpt>
      <trkpt lat="48.71418" lon="1.78263">
        <ele>178.60000610352</ele>
        <time>2014-10-29T14:26:38.000Z</time>
      </trkpt>
      <trkpt lat="48.71404" lon="1.78256">
        <ele>178.80000305176</ele>
        <time>2014-10-29T14:26:45.000Z</time>
      </trkpt>
      <trkpt lat="48.71388" lon="1.78249">
        <ele>179.19999694824</ele>
        <time>2014-10-29T14:26:51.000Z</time>
      </trkpt>
      <trkpt lat="48.7137" lon="1.78243">
        <ele>179.60000610352</ele>
        <time>2014-10-29T14:26:57.000Z</time>
      </trkpt>
      <trkpt lat="48.71355" lon="1.78238">
        <ele>180</ele>
        <time>2014-10-29T14:27:02.000Z</time>
      </trkpt>
      <trkpt lat="48.7134" lon="1.78232">
        <ele>179.39999389648</ele>
        <time>2014-10-29T14:27:07.000Z</time>
      </trkpt>
      <trkpt lat="48.7133" lon="1.78224">
        <ele>178.80000305176</ele>
        <time>2014-10-29T14:27:11.000Z</time>
      </trkpt>
      <trkpt lat="48.71313" lon="1.78218">
        <ele>178</ele>
        <time>2014-10-29T14:27:16.000Z</time>
      </trkpt>
      <trkpt lat="48.71296" lon="1.78212">
        <ele>177.39999389648</ele>
        <time>2014-10-29T14:27:21.000Z</time>
      </trkpt>
      <trkpt lat="48.71279" lon="1.78207">
        <ele>176.60000610352</ele>
        <time>2014-10-29T14:27:26.000Z</time>
      </trkpt>
      <trkpt lat="48.71265" lon="1.78193">
        <ele>176</ele>
        <time>2014-10-29T14:27:31.000Z</time>
      </trkpt>
      <trkpt lat="48.71249" lon="1.78172">
        <ele>175.60000610352</ele>
        <time>2014-10-29T14:27:37.000Z</time>
      </trkpt>
      <trkpt lat="48.71236" lon="1.78152">
        <ele>175.39999389648</ele>
        <time>2014-10-29T14:27:43.000Z</time>
      </trkpt>
      <trkpt lat="48.71219" lon="1.78131">
        <ele>175</ele>
        <time>2014-10-29T14:27:49.000Z</time>
      </trkpt>
      <trkpt lat="48.71203" lon="1.78109">
        <ele>174.80000305176</ele>
        <time>2014-10-29T14:27:56.000Z</time>
      </trkpt>
      <trkpt lat="48.71199" lon="1.78107">
        <ele>174.80000305176</ele>
        <time>2014-10-29T14:27:58.000Z</time>
      </trkpt>
      <trkpt lat="48.71192" lon="1.78098">
        <ele>174.60000610352</ele>
        <time>2014-10-29T14:28:03.000Z</time>
      </trkpt>
      <trkpt lat="48.7119" lon="1.78094">
        <ele>174.60000610352</ele>
        <time>2014-10-29T14:28:05.000Z</time>
      </trkpt>
      <trkpt lat="48.71186" lon="1.78093">
        <ele>174.60000610352</ele>
        <time>2014-10-29T14:28:08.000Z</time>
      </trkpt>
      <trkpt lat="48.71176" lon="1.78081">
        <ele>174.19999694824</ele>
        <time>2014-10-29T14:28:14.000Z</time>
      </trkpt>
      <trkpt lat="48.71161" lon="1.78072">
        <ele>174</ele>
        <time>2014-10-29T14:28:22.000Z</time>
      </trkpt>
      <trkpt lat="48.7116" lon="1.78068">
        <ele>174</ele>
        <time>2014-10-29T14:28:24.000Z</time>
      </trkpt>
      <trkpt lat="48.71154" lon="1.78054">
        <ele>173.60000610352</ele>
        <time>2014-10-29T14:28:30.000Z</time>
      </trkpt>
      <trkpt lat="48.7115" lon="1.78039">
        <ele>173.19999694824</ele>
        <time>2014-10-29T14:28:36.000Z</time>
      </trkpt>
      <trkpt lat="48.71147" lon="1.78029">
        <ele>173</ele>
        <time>2014-10-29T14:28:40.000Z</time>
      </trkpt>
      <trkpt lat="48.71141" lon="1.78015">
        <ele>172.60000610352</ele>
        <time>2014-10-29T14:28:46.000Z</time>
      </trkpt>
      <trkpt lat="48.71136" lon="1.78003">
        <ele>172.19999694824</ele>
        <time>2014-10-29T14:28:51.000Z</time>
      </trkpt>
      <trkpt lat="48.71138" lon="1.77987">
        <ele>171.60000610352</ele>
        <time>2014-10-29T14:28:57.000Z</time>
      </trkpt>
      <trkpt lat="48.71141" lon="1.77973">
        <ele>171</ele>
        <time>2014-10-29T14:29:03.000Z</time>
      </trkpt>
      <trkpt lat="48.71141" lon="1.77964">
        <ele>170.60000610352</ele>
        <time>2014-10-29T14:29:06.000Z</time>
      </trkpt>
      <trkpt lat="48.71141" lon="1.77958">
        <ele>170.39999389648</ele>
        <time>2014-10-29T14:29:08.000Z</time>
      </trkpt>
      <trkpt lat="48.71138" lon="1.77941">
        <ele>170</ele>
        <time>2014-10-29T14:29:15.000Z</time>
      </trkpt>
      <trkpt lat="48.71137" lon="1.77939">
        <ele>169.80000305176</ele>
        <time>2014-10-29T14:29:16.000Z</time>
      </trkpt>
      <trkpt lat="48.71132" lon="1.77922">
        <ele>169.80000305176</ele>
        <time>2014-10-29T14:29:23.000Z</time>
      </trkpt>
      <trkpt lat="48.71132" lon="1.7792">
        <ele>169.80000305176</ele>
        <time>2014-10-29T14:29:24.000Z</time>
      </trkpt>
      <trkpt lat="48.71128" lon="1.77901">
        <ele>170</ele>
        <time>2014-10-29T14:29:32.000Z</time>
      </trkpt>
      <trkpt lat="48.71123" lon="1.77886">
        <ele>170</ele>
        <time>2014-10-29T14:29:38.000Z</time>
      </trkpt>
      <trkpt lat="48.7112" lon="1.77878">
        <ele>170</ele>
        <time>2014-10-29T14:29:41.000Z</time>
      </trkpt>
      <trkpt lat="48.71117" lon="1.7786">
        <ele>170</ele>
        <time>2014-10-29T14:29:48.000Z</time>
      </trkpt>
      <trkpt lat="48.71113" lon="1.77841">
        <ele>170</ele>
        <time>2014-10-29T14:29:56.000Z</time>
      </trkpt>
      <trkpt lat="48.7111" lon="1.77833">
        <ele>170</ele>
        <time>2014-10-29T14:29:59.000Z</time>
      </trkpt>
      <trkpt lat="48.71108" lon="1.77817">
        <ele>170</ele>
        <time>2014-10-29T14:30:04.000Z</time>
      </trkpt>
      <trkpt lat="48.71106" lon="1.77804">
        <ele>169.80000305176</ele>
        <time>2014-10-29T14:30:10.000Z</time>
      </trkpt>
      <trkpt lat="48.71102" lon="1.77794">
        <ele>169.80000305176</ele>
        <time>2014-10-29T14:30:14.000Z</time>
      </trkpt>
      <trkpt lat="48.71097" lon="1.77777">
        <ele>169.60000610352</ele>
        <time>2014-10-29T14:30:21.000Z</time>
      </trkpt>
      <trkpt lat="48.71095" lon="1.77765">
        <ele>169.60000610352</ele>
        <time>2014-10-29T14:30:25.000Z</time>
      </trkpt>
      <trkpt lat="48.71088" lon="1.77749">
        <ele>169.60000610352</ele>
        <time>2014-10-29T14:30:31.000Z</time>
      </trkpt>
      <trkpt lat="48.71084" lon="1.77736">
        <ele>169.39999389648</ele>
        <time>2014-10-29T14:30:36.000Z</time>
      </trkpt>
      <trkpt lat="48.71081" lon="1.77723">
        <ele>169.80000305176</ele>
        <time>2014-10-29T14:30:41.000Z</time>
      </trkpt>
      <trkpt lat="48.71076" lon="1.7771">
        <ele>170</ele>
        <time>2014-10-29T14:30:47.000Z</time>
      </trkpt>
      <trkpt lat="48.71066" lon="1.77697">
        <ele>170.39999389648</ele>
        <time>2014-10-29T14:30:53.000Z</time>
      </trkpt>
      <trkpt lat="48.71062" lon="1.77682">
        <ele>170.60000610352</ele>
        <time>2014-10-29T14:30:59.000Z</time>
      </trkpt>
      <trkpt lat="48.71057" lon="1.77667">
        <ele>171</ele>
        <time>2014-10-29T14:31:06.000Z</time>
      </trkpt>
      <trkpt lat="48.71053" lon="1.77658">
        <ele>171.19999694824</ele>
        <time>2014-10-29T14:31:10.000Z</time>
      </trkpt>
      <trkpt lat="48.71049" lon="1.77648">
        <ele>171.39999389648</ele>
        <time>2014-10-29T14:31:14.000Z</time>
      </trkpt>
      <trkpt lat="48.71041" lon="1.77629">
        <ele>171.60000610352</ele>
        <time>2014-10-29T14:31:22.000Z</time>
      </trkpt>
      <trkpt lat="48.71035" lon="1.77611">
        <ele>171.60000610352</ele>
        <time>2014-10-29T14:31:30.000Z</time>
      </trkpt>
      <trkpt lat="48.71029" lon="1.77594">
        <ele>171.80000305176</ele>
        <time>2014-10-29T14:31:37.000Z</time>
      </trkpt>
      <trkpt lat="48.7102" lon="1.77573">
        <ele>172</ele>
        <time>2014-10-29T14:31:46.000Z</time>
      </trkpt>
      <trkpt lat="48.71012" lon="1.77554">
        <ele>172.39999389648</ele>
        <time>2014-10-29T14:31:54.000Z</time>
      </trkpt>
      <trkpt lat="48.71008" lon="1.77542">
        <ele>172.80000305176</ele>
        <time>2014-10-29T14:32:00.000Z</time>
      </trkpt>
      <trkpt lat="48.71" lon="1.77526">
        <ele>173</ele>
        <time>2014-10-29T14:32:07.000Z</time>
      </trkpt>
      <trkpt lat="48.70994" lon="1.77514">
        <ele>173.39999389648</ele>
        <time>2014-10-29T14:32:13.000Z</time>
      </trkpt>
      <trkpt lat="48.70986" lon="1.77493">
        <ele>173.80000305176</ele>
        <time>2014-10-29T14:32:22.000Z</time>
      </trkpt>
      <trkpt lat="48.7098" lon="1.77482">
        <ele>174</ele>
        <time>2014-10-29T14:32:27.000Z</time>
      </trkpt>
      <trkpt lat="48.7097" lon="1.77462">
        <ele>174.39999389648</ele>
        <time>2014-10-29T14:32:35.000Z</time>
      </trkpt>
      <trkpt lat="48.70964" lon="1.77448">
        <ele>174.39999389648</ele>
        <time>2014-10-29T14:32:40.000Z</time>
      </trkpt>
      <trkpt lat="48.70953" lon="1.77427">
        <ele>174.80000305176</ele>
        <time>2014-10-29T14:32:47.000Z</time>
      </trkpt>
      <trkpt lat="48.70948" lon="1.77417">
        <ele>174.80000305176</ele>
        <time>2014-10-29T14:32:52.000Z</time>
      </trkpt>
      <trkpt lat="48.70936" lon="1.77392">
        <ele>175.39999389648</ele>
        <time>2014-10-29T14:33:04.000Z</time>
      </trkpt>
      <trkpt lat="48.70926" lon="1.77373">
        <ele>176</ele>
        <time>2014-10-29T14:33:14.000Z</time>
      </trkpt>
      <trkpt lat="48.70917" lon="1.77355">
        <ele>176.60000610352</ele>
        <time>2014-10-29T14:33:23.000Z</time>
      </trkpt>
      <trkpt lat="48.70909" lon="1.7734">
        <ele>177</ele>
        <time>2014-10-29T14:33:30.000Z</time>
      </trkpt>
      <trkpt lat="48.70899" lon="1.77314">
        <ele>177.39999389648</ele>
        <time>2014-10-29T14:33:40.000Z</time>
      </trkpt>
      <trkpt lat="48.70892" lon="1.77293">
        <ele>177.19999694824</ele>
        <time>2014-10-29T14:33:48.000Z</time>
      </trkpt>
      <trkpt lat="48.70888" lon="1.7728">
        <ele>177</ele>
        <time>2014-10-29T14:33:54.000Z</time>
      </trkpt>
      <trkpt lat="48.70882" lon="1.77266">
        <ele>176.60000610352</ele>
        <time>2014-10-29T14:34:00.000Z</time>
      </trkpt>
      <trkpt lat="48.70876" lon="1.77255">
        <ele>176.39999389648</ele>
        <time>2014-10-29T14:34:06.000Z</time>
      </trkpt>
      <trkpt lat="48.70868" lon="1.77254">
        <ele>176.39999389648</ele>
        <time>2014-10-29T14:34:10.000Z</time>
      </trkpt>
      <trkpt lat="48.70857" lon="1.77253">
        <ele>176.19999694824</ele>
        <time>2014-10-29T14:34:17.000Z</time>
      </trkpt>
      <trkpt lat="48.70847" lon="1.77255">
        <ele>176.19999694824</ele>
        <time>2014-10-29T14:34:22.000Z</time>
      </trkpt>
      <trkpt lat="48.70834" lon="1.77252">
        <ele>176.19999694824</ele>
        <time>2014-10-29T14:34:29.000Z</time>
      </trkpt>
      <trkpt lat="48.70824" lon="1.77252">
        <ele>176.19999694824</ele>
        <time>2014-10-29T14:34:36.000Z</time>
      </trkpt>
      <trkpt lat="48.70815" lon="1.77252">
        <ele>176.19999694824</ele>
        <time>2014-10-29T14:34:41.000Z</time>
      </trkpt>
      <trkpt lat="48.70807" lon="1.77256">
        <ele>176.19999694824</ele>
        <time>2014-10-29T14:34:46.000Z</time>
      </trkpt>
      <trkpt lat="48.70796" lon="1.77257">
        <ele>176.19999694824</ele>
        <time>2014-10-29T14:34:53.000Z</time>
      </trkpt>
      <trkpt lat="48.70787" lon="1.77255">
        <ele>176.19999694824</ele>
        <time>2014-10-29T14:34:59.000Z</time>
      </trkpt>
      <trkpt lat="48.70776" lon="1.7726">
        <ele>176</ele>
        <time>2014-10-29T14:35:05.000Z</time>
      </trkpt>
      <trkpt lat="48.70763" lon="1.7726">
        <ele>176</ele>
        <time>2014-10-29T14:35:12.000Z</time>
      </trkpt>
      <trkpt lat="48.70753" lon="1.7726">
        <ele>176.19999694824</ele>
        <time>2014-10-29T14:35:17.000Z</time>
      </trkpt>
      <trkpt lat="48.70742" lon="1.77262">
        <ele>176.39999389648</ele>
        <time>2014-10-29T14:35:24.000Z</time>
      </trkpt>
      <trkpt lat="48.70734" lon="1.77262">
        <ele>176.39999389648</ele>
        <time>2014-10-29T14:35:29.000Z</time>
      </trkpt>
      <trkpt lat="48.70722" lon="1.77263">
        <ele>176.60000610352</ele>
        <time>2014-10-29T14:35:36.000Z</time>
      </trkpt>
      <trkpt lat="48.70715" lon="1.77263">
        <ele>176.60000610352</ele>
        <time>2014-10-29T14:35:40.000Z</time>
      </trkpt>
      <trkpt lat="48.7071" lon="1.77264">
        <ele>176.80000305176</ele>
        <time>2014-10-29T14:35:44.000Z</time>
      </trkpt>
      <trkpt lat="48.70703" lon="1.77263">
        <ele>177</ele>
        <time>2014-10-29T14:35:50.000Z</time>
      </trkpt>
      <trkpt lat="48.70695" lon="1.7726">
        <ele>177.19999694824</ele>
        <time>2014-10-29T14:35:56.000Z</time>
      </trkpt>
      <trkpt lat="48.70693" lon="1.7726">
        <ele>177.39999389648</ele>
        <time>2014-10-29T14:35:57.000Z</time>
      </trkpt>
      <trkpt lat="48.70682" lon="1.77258">
        <ele>177.80000305176</ele>
        <time>2014-10-29T14:36:04.000Z</time>
      </trkpt>
      <trkpt lat="48.7067" lon="1.77256">
        <ele>178.19999694824</ele>
        <time>2014-10-29T14:36:11.000Z</time>
      </trkpt>
      <trkpt lat="48.70661" lon="1.77256">
        <ele>178.60000610352</ele>
        <time>2014-10-29T14:36:16.000Z</time>
      </trkpt>
      <trkpt lat="48.70653" lon="1.77253">
        <ele>179</ele>
        <time>2014-10-29T14:36:21.000Z</time>
      </trkpt>
      <trkpt lat="48.7064" lon="1.77251">
        <ele>179.60000610352</ele>
        <time>2014-10-29T14:36:28.000Z</time>
      </trkpt>
      <trkpt lat="48.70637" lon="1.77251">
        <ele>179.80000305176</ele>
        <time>2014-10-29T14:36:30.000Z</time>
      </trkpt>
      <trkpt lat="48.70629" lon="1.77252">
        <ele>180.19999694824</ele>
        <time>2014-10-29T14:36:34.000Z</time>
      </trkpt>
      <trkpt lat="48.70614" lon="1.7725">
        <ele>180.80000305176</ele>
        <time>2014-10-29T14:36:42.000Z</time>
      </trkpt>
      <trkpt lat="48.7061" lon="1.77248">
        <ele>180.80000305176</ele>
        <time>2014-10-29T14:36:44.000Z</time>
      </trkpt>
      <trkpt lat="48.70596" lon="1.77248">
        <ele>181</ele>
        <time>2014-10-29T14:36:50.000Z</time>
      </trkpt>
      <trkpt lat="48.7058" lon="1.77245">
        <ele>181.19999694824</ele>
        <time>2014-10-29T14:36:57.000Z</time>
      </trkpt>
      <trkpt lat="48.70568" lon="1.77244">
        <ele>181.39999389648</ele>
        <time>2014-10-29T14:37:04.000Z</time>
      </trkpt>
      <trkpt lat="48.70554" lon="1.77239">
        <ele>181.60000610352</ele>
        <time>2014-10-29T14:37:12.000Z</time>
      </trkpt>
      <trkpt lat="48.70544" lon="1.77239">
        <ele>181.80000305176</ele>
        <time>2014-10-29T14:37:17.000Z</time>
      </trkpt>
      <trkpt lat="48.70533" lon="1.77239">
        <ele>181.80000305176</ele>
        <time>2014-10-29T14:37:24.000Z</time>
      </trkpt>
      <trkpt lat="48.70521" lon="1.77239">
        <ele>182</ele>
        <time>2014-10-29T14:37:30.000Z</time>
      </trkpt>
      <trkpt lat="48.70509" lon="1.77238">
        <ele>181.80000305176</ele>
        <time>2014-10-29T14:37:37.000Z</time>
      </trkpt>
      <trkpt lat="48.70499" lon="1.77238">
        <ele>181.80000305176</ele>
        <time>2014-10-29T14:37:42.000Z</time>
      </trkpt>
      <trkpt lat="48.70492" lon="1.77237">
        <ele>181.60000610352</ele>
        <time>2014-10-29T14:37:47.000Z</time>
      </trkpt>
      <trkpt lat="48.7048" lon="1.77237">
        <ele>181.39999389648</ele>
        <time>2014-10-29T14:37:54.000Z</time>
      </trkpt>
      <trkpt lat="48.70475" lon="1.77236">
        <ele>181.39999389648</ele>
        <time>2014-10-29T14:37:57.000Z</time>
      </trkpt>
      <trkpt lat="48.70465" lon="1.77236">
        <ele>181.19999694824</ele>
        <time>2014-10-29T14:38:03.000Z</time>
      </trkpt>
      <trkpt lat="48.70451" lon="1.77241">
        <ele>181.19999694824</ele>
        <time>2014-10-29T14:38:11.000Z</time>
      </trkpt>
      <trkpt lat="48.7044" lon="1.77246">
        <ele>181.19999694824</ele>
        <time>2014-10-29T14:38:17.000Z</time>
      </trkpt>
      <trkpt lat="48.70427" lon="1.77252">
        <ele>181.19999694824</ele>
        <time>2014-10-29T14:38:24.000Z</time>
      </trkpt>
      <trkpt lat="48.70414" lon="1.77261">
        <ele>181.19999694824</ele>
        <time>2014-10-29T14:38:32.000Z</time>
      </trkpt>
      <trkpt lat="48.70404" lon="1.7727">
        <ele>181.39999389648</ele>
        <time>2014-10-29T14:38:39.000Z</time>
      </trkpt>
      <trkpt lat="48.70394" lon="1.77275">
        <ele>181.39999389648</ele>
        <time>2014-10-29T14:38:45.000Z</time>
      </trkpt>
      <trkpt lat="48.70387" lon="1.77283">
        <ele>181.39999389648</ele>
        <time>2014-10-29T14:38:51.000Z</time>
      </trkpt>
      <trkpt lat="48.7038" lon="1.77289">
        <ele>181.19999694824</ele>
        <time>2014-10-29T14:38:56.000Z</time>
      </trkpt>
      <trkpt lat="48.70373" lon="1.77281">
        <ele>181</ele>
        <time>2014-10-29T14:39:02.000Z</time>
      </trkpt>
      <trkpt lat="48.70371" lon="1.77264">
        <ele>180.80000305176</ele>
        <time>2014-10-29T14:39:08.000Z</time>
      </trkpt>
      <trkpt lat="48.70369" lon="1.77248">
        <ele>180.39999389648</ele>
        <time>2014-10-29T14:39:13.000Z</time>
      </trkpt>
      <trkpt lat="48.70367" lon="1.7722">
        <ele>180.60000610352</ele>
        <time>2014-10-29T14:39:21.000Z</time>
      </trkpt>
      <trkpt lat="48.70364" lon="1.77195">
        <ele>181.19999694824</ele>
        <time>2014-10-29T14:39:28.000Z</time>
      </trkpt>
      <trkpt lat="48.70361" lon="1.77169">
        <ele>181.80000305176</ele>
        <time>2014-10-29T14:39:35.000Z</time>
      </trkpt>
      <trkpt lat="48.70357" lon="1.7714">
        <ele>181.80000305176</ele>
        <time>2014-10-29T14:39:43.000Z</time>
      </trkpt>
      <trkpt lat="48.70354" lon="1.77109">
        <ele>182</ele>
        <time>2014-10-29T14:39:52.000Z</time>
      </trkpt>
      <trkpt lat="48.70351" lon="1.77081">
        <ele>182</ele>
        <time>2014-10-29T14:40:00.000Z</time>
      </trkpt>
      <trkpt lat="48.70348" lon="1.77064">
        <ele>182</ele>
        <time>2014-10-29T14:40:06.000Z</time>
      </trkpt>
      <trkpt lat="48.70346" lon="1.77046">
        <ele>182</ele>
        <time>2014-10-29T14:40:14.000Z</time>
      </trkpt>
      <trkpt lat="48.70346" lon="1.77031">
        <ele>182</ele>
        <time>2014-10-29T14:40:20.000Z</time>
      </trkpt>
      <trkpt lat="48.70344" lon="1.77009">
        <ele>182.19999694824</ele>
        <time>2014-10-29T14:40:28.000Z</time>
      </trkpt>
      <trkpt lat="48.70342" lon="1.76982">
        <ele>182</ele>
        <time>2014-10-29T14:40:38.000Z</time>
      </trkpt>
      <trkpt lat="48.70342" lon="1.76973">
        <ele>181.80000305176</ele>
        <time>2014-10-29T14:40:42.000Z</time>
      </trkpt>
      <trkpt lat="48.70341" lon="1.76972">
        <ele>181.80000305176</ele>
        <time>2014-10-29T14:40:46.000Z</time>
      </trkpt>
      <trkpt lat="48.70341" lon="1.76963">
        <ele>181.60000610352</ele>
        <time>2014-10-29T14:40:58.000Z</time>
      </trkpt>
      <trkpt lat="48.7034" lon="1.76949">
        <ele>181.19999694824</ele>
        <time>2014-10-29T14:41:03.000Z</time>
      </trkpt>
      <trkpt lat="48.70338" lon="1.76927">
        <ele>180.80000305176</ele>
        <time>2014-10-29T14:41:11.000Z</time>
      </trkpt>
      <trkpt lat="48.70339" lon="1.7691">
        <ele>180.19999694824</ele>
        <time>2014-10-29T14:41:18.000Z</time>
      </trkpt>
      <trkpt lat="48.70339" lon="1.76905">
        <ele>180.19999694824</ele>
        <time>2014-10-29T14:41:20.000Z</time>
      </trkpt>
      <trkpt lat="48.70338" lon="1.76893">
        <ele>180</ele>
        <time>2014-10-29T14:41:25.000Z</time>
      </trkpt>
      <trkpt lat="48.70337" lon="1.7689">
        <ele>179.80000305176</ele>
        <time>2014-10-29T14:41:26.000Z</time>
      </trkpt>
      <trkpt lat="48.70336" lon="1.76866">
        <ele>179.60000610352</ele>
        <time>2014-10-29T14:41:35.000Z</time>
      </trkpt>
      <trkpt lat="48.70335" lon="1.76844">
        <ele>179.19999694824</ele>
        <time>2014-10-29T14:41:43.000Z</time>
      </trkpt>
      <trkpt lat="48.70335" lon="1.76822">
        <ele>179</ele>
        <time>2014-10-29T14:41:51.000Z</time>
      </trkpt>
      <trkpt lat="48.70333" lon="1.76801">
        <ele>179.19999694824</ele>
        <time>2014-10-29T14:41:58.000Z</time>
      </trkpt>
      <trkpt lat="48.70332" lon="1.76779">
        <ele>179</ele>
        <time>2014-10-29T14:42:05.000Z</time>
      </trkpt>
      <trkpt lat="48.70332" lon="1.76754">
        <ele>178.80000305176</ele>
        <time>2014-10-29T14:42:14.000Z</time>
      </trkpt>
      <trkpt lat="48.70331" lon="1.76741">
        <ele>178.60000610352</ele>
        <time>2014-10-29T14:42:19.000Z</time>
      </trkpt>
      <trkpt lat="48.70331" lon="1.76721">
        <ele>178.60000610352</ele>
        <time>2014-10-29T14:42:26.000Z</time>
      </trkpt>
      <trkpt lat="48.7033" lon="1.76697">
        <ele>178.60000610352</ele>
        <time>2014-10-29T14:42:35.000Z</time>
      </trkpt>
      <trkpt lat="48.70331" lon="1.76671">
        <ele>178.60000610352</ele>
        <time>2014-10-29T14:42:45.000Z</time>
      </trkpt>
      <trkpt lat="48.70333" lon="1.76655">
        <ele>178.39999389648</ele>
        <time>2014-10-29T14:42:52.000Z</time>
      </trkpt>
      <trkpt lat="48.70336" lon="1.76647">
        <ele>178.39999389648</ele>
        <time>2014-10-29T14:42:56.000Z</time>
      </trkpt>
      <trkpt lat="48.7034" lon="1.76637">
        <ele>178.39999389648</ele>
        <time>2014-10-29T14:43:02.000Z</time>
      </trkpt>
      <trkpt lat="48.7034" lon="1.76636">
        <ele>178.39999389648</ele>
        <time>2014-10-29T14:43:06.000Z</time>
      </trkpt>
      <trkpt lat="48.70346" lon="1.7662">
        <ele>178.19999694824</ele>
        <time>2014-10-29T14:43:45.000Z</time>
      </trkpt>
      <trkpt lat="48.70355" lon="1.76614">
        <ele>178</ele>
        <time>2014-10-29T14:43:51.000Z</time>
      </trkpt>
      <trkpt lat="48.70362" lon="1.76611">
        <ele>178.19999694824</ele>
        <time>2014-10-29T14:43:56.000Z</time>
      </trkpt>
      <trkpt lat="48.70366" lon="1.76609">
        <ele>178.39999389648</ele>
        <time>2014-10-29T14:44:00.000Z</time>
      </trkpt>
      <trkpt lat="48.70378" lon="1.76602">
        <ele>178.60000610352</ele>
        <time>2014-10-29T14:44:09.000Z</time>
      </trkpt>
      <trkpt lat="48.70385" lon="1.766">
        <ele>178.80000305176</ele>
        <time>2014-10-29T14:44:15.000Z</time>
      </trkpt>
      <trkpt lat="48.70389" lon="1.76598">
        <ele>179</ele>
        <time>2014-10-29T14:44:18.000Z</time>
      </trkpt>
      <trkpt lat="48.70398" lon="1.76594">
        <ele>179.39999389648</ele>
        <time>2014-10-29T14:44:26.000Z</time>
      </trkpt>
      <trkpt lat="48.70411" lon="1.76591">
        <ele>179.80000305176</ele>
        <time>2014-10-29T14:44:33.000Z</time>
      </trkpt>
      <trkpt lat="48.70419" lon="1.76589">
        <ele>180.19999694824</ele>
        <time>2014-10-29T14:44:39.000Z</time>
      </trkpt>
      <trkpt lat="48.70426" lon="1.76585">
        <ele>180.39999389648</ele>
        <time>2014-10-29T14:44:44.000Z</time>
      </trkpt>
      <trkpt lat="48.70435" lon="1.76574">
        <ele>180.80000305176</ele>
        <time>2014-10-29T14:44:51.000Z</time>
      </trkpt>
      <trkpt lat="48.70436" lon="1.76572">
        <ele>181</ele>
        <time>2014-10-29T14:44:52.000Z</time>
      </trkpt>
      <trkpt lat="48.70442" lon="1.76554">
        <ele>181</ele>
        <time>2014-10-29T14:45:00.000Z</time>
      </trkpt>
      <trkpt lat="48.70447" lon="1.76536">
        <ele>181</ele>
        <time>2014-10-29T14:45:08.000Z</time>
      </trkpt>
      <trkpt lat="48.70448" lon="1.76534">
        <ele>181</ele>
        <time>2014-10-29T14:45:14.000Z</time>
      </trkpt>
      <trkpt lat="48.70448" lon="1.76525">
        <ele>181</ele>
        <time>2014-10-29T14:45:28.000Z</time>
      </trkpt>
      <trkpt lat="48.70448" lon="1.76521">
        <ele>181</ele>
        <time>2014-10-29T14:45:29.000Z</time>
      </trkpt>
      <trkpt lat="48.70451" lon="1.76505">
        <ele>181.19999694824</ele>
        <time>2014-10-29T14:45:36.000Z</time>
      </trkpt>
      <trkpt lat="48.70453" lon="1.76485">
        <ele>180.60000610352</ele>
        <time>2014-10-29T14:45:44.000Z</time>
      </trkpt>
      <trkpt lat="48.70457" lon="1.76472">
        <ele>179.80000305176</ele>
        <time>2014-10-29T14:45:50.000Z</time>
      </trkpt>
      <trkpt lat="48.70459" lon="1.76467">
        <ele>179.39999389648</ele>
        <time>2014-10-29T14:45:52.000Z</time>
      </trkpt>
      <trkpt lat="48.70462" lon="1.76453">
        <ele>178.60000610352</ele>
        <time>2014-10-29T14:45:58.000Z</time>
      </trkpt>
      <trkpt lat="48.70465" lon="1.76435">
        <ele>177.39999389648</ele>
        <time>2014-10-29T14:46:06.000Z</time>
      </trkpt>
      <trkpt lat="48.70468" lon="1.7642">
        <ele>177</ele>
        <time>2014-10-29T14:46:13.000Z</time>
      </trkpt>
      <trkpt lat="48.70468" lon="1.76406">
        <ele>176.80000305176</ele>
        <time>2014-10-29T14:46:20.000Z</time>
      </trkpt>
      <trkpt lat="48.70468" lon="1.764">
        <ele>176.60000610352</ele>
        <time>2014-10-29T14:46:23.000Z</time>
      </trkpt>
      <trkpt lat="48.70466" lon="1.76386">
        <ele>176</ele>
        <time>2014-10-29T14:46:30.000Z</time>
      </trkpt>
      <trkpt lat="48.70467" lon="1.76384">
        <ele>176</ele>
        <time>2014-10-29T14:46:31.000Z</time>
      </trkpt>
      <trkpt lat="48.70462" lon="1.76368">
        <ele>175.39999389648</ele>
        <time>2014-10-29T14:46:38.000Z</time>
      </trkpt>
      <trkpt lat="48.70459" lon="1.76355">
        <ele>174.80000305176</ele>
        <time>2014-10-29T14:46:44.000Z</time>
      </trkpt>
      <trkpt lat="48.70458" lon="1.76343">
        <ele>174.39999389648</ele>
        <time>2014-10-29T14:46:49.000Z</time>
      </trkpt>
      <trkpt lat="48.70458" lon="1.7634">
        <ele>174.19999694824</ele>
        <time>2014-10-29T14:46:51.000Z</time>
      </trkpt>
      <trkpt lat="48.70455" lon="1.76329">
        <ele>173.80000305176</ele>
        <time>2014-10-29T14:46:55.000Z</time>
      </trkpt>
      <trkpt lat="48.70453" lon="1.76326">
        <ele>173.60000610352</ele>
        <time>2014-10-29T14:46:57.000Z</time>
      </trkpt>
      <trkpt lat="48.70451" lon="1.76318">
        <ele>173.39999389648</ele>
        <time>2014-10-29T14:47:01.000Z</time>
      </trkpt>
      <trkpt lat="48.70453" lon="1.7631">
        <ele>173.39999389648</ele>
        <time>2014-10-29T14:47:04.000Z</time>
      </trkpt>
      <trkpt lat="48.70454" lon="1.76302">
        <ele>173.39999389648</ele>
        <time>2014-10-29T14:47:09.000Z</time>
      </trkpt>
      <trkpt lat="48.70455" lon="1.76302">
        <ele>173.39999389648</ele>
        <time>2014-10-29T14:47:13.000Z</time>
      </trkpt>
      <trkpt lat="48.70453" lon="1.7629">
        <ele>173.39999389648</ele>
        <time>2014-10-29T14:47:23.000Z</time>
      </trkpt>
      <trkpt lat="48.70454" lon="1.76285">
        <ele>173.39999389648</ele>
        <time>2014-10-29T14:47:24.000Z</time>
      </trkpt>
      <trkpt lat="48.70455" lon="1.76272">
        <ele>173.39999389648</ele>
        <time>2014-10-29T14:47:30.000Z</time>
      </trkpt>
      <trkpt lat="48.70456" lon="1.76258">
        <ele>173.39999389648</ele>
        <time>2014-10-29T14:47:36.000Z</time>
      </trkpt>
      <trkpt lat="48.70456" lon="1.76255">
        <ele>173.19999694824</ele>
        <time>2014-10-29T14:47:37.000Z</time>
      </trkpt>
      <trkpt lat="48.70459" lon="1.76243">
        <ele>172.80000305176</ele>
        <time>2014-10-29T14:47:42.000Z</time>
      </trkpt>
      <trkpt lat="48.70463" lon="1.76237">
        <ele>172.39999389648</ele>
        <time>2014-10-29T14:47:45.000Z</time>
      </trkpt>
      <trkpt lat="48.70461" lon="1.76223">
        <ele>173</ele>
        <time>2014-10-29T14:47:51.000Z</time>
      </trkpt>
      <trkpt lat="48.70461" lon="1.7621">
        <ele>173.19999694824</ele>
        <time>2014-10-29T14:47:56.000Z</time>
      </trkpt>
      <trkpt lat="48.70461" lon="1.76206">
        <ele>173.39999389648</ele>
        <time>2014-10-29T14:48:00.000Z</time>
      </trkpt>
      <trkpt lat="48.70458" lon="1.76204">
        <ele>173.60000610352</ele>
        <time>2014-10-29T14:48:02.000Z</time>
      </trkpt>
      <trkpt lat="48.70456" lon="1.76187">
        <ele>174</ele>
        <time>2014-10-29T14:48:09.000Z</time>
      </trkpt>
      <trkpt lat="48.70454" lon="1.76166">
        <ele>174.80000305176</ele>
        <time>2014-10-29T14:48:19.000Z</time>
      </trkpt>
      <trkpt lat="48.70455" lon="1.76153">
        <ele>175.19999694824</ele>
        <time>2014-10-29T14:48:25.000Z</time>
      </trkpt>
      <trkpt lat="48.70456" lon="1.76138">
        <ele>175.19999694824</ele>
        <time>2014-10-29T14:48:31.000Z</time>
      </trkpt>
      <trkpt lat="48.70459" lon="1.76124">
        <ele>175.19999694824</ele>
        <time>2014-10-29T14:48:37.000Z</time>
      </trkpt>
      <trkpt lat="48.70464" lon="1.76111">
        <ele>175.19999694824</ele>
        <time>2014-10-29T14:48:43.000Z</time>
      </trkpt>
      <trkpt lat="48.70467" lon="1.76096">
        <ele>175.19999694824</ele>
        <time>2014-10-29T14:48:50.000Z</time>
      </trkpt>
      <trkpt lat="48.70469" lon="1.7609">
        <ele>175.19999694824</ele>
        <time>2014-10-29T14:48:53.000Z</time>
      </trkpt>
      <trkpt lat="48.70476" lon="1.7607">
        <ele>175.19999694824</ele>
        <time>2014-10-29T14:49:02.000Z</time>
      </trkpt>
      <trkpt lat="48.70482" lon="1.76055">
        <ele>175.60000610352</ele>
        <time>2014-10-29T14:49:09.000Z</time>
      </trkpt>
      <trkpt lat="48.70483" lon="1.76046">
        <ele>176</ele>
        <time>2014-10-29T14:49:14.000Z</time>
      </trkpt>
      <trkpt lat="48.70482" lon="1.76038">
        <ele>176.39999389648</ele>
        <time>2014-10-29T14:49:18.000Z</time>
      </trkpt>
      <trkpt lat="48.7048" lon="1.76021">
        <ele>177.39999389648</ele>
        <time>2014-10-29T14:49:26.000Z</time>
      </trkpt>
      <trkpt lat="48.7048" lon="1.76014">
        <ele>177.80000305176</ele>
        <time>2014-10-29T14:49:29.000Z</time>
      </trkpt>
      <trkpt lat="48.70482" lon="1.76002">
        <ele>178.60000610352</ele>
        <time>2014-10-29T14:49:35.000Z</time>
      </trkpt>
      <trkpt lat="48.70482" lon="1.75999">
        <ele>178.60000610352</ele>
        <time>2014-10-29T14:49:36.000Z</time>
      </trkpt>
      <trkpt lat="48.70486" lon="1.75979">
        <ele>179.39999389648</ele>
        <time>2014-10-29T14:49:46.000Z</time>
      </trkpt>
      <trkpt lat="48.70493" lon="1.75969">
        <ele>179.19999694824</ele>
        <time>2014-10-29T14:49:53.000Z</time>
      </trkpt>
      <trkpt lat="48.705" lon="1.75959">
        <ele>179.39999389648</ele>
        <time>2014-10-29T14:50:00.000Z</time>
      </trkpt>
      <trkpt lat="48.70507" lon="1.7595">
        <ele>179.80000305176</ele>
        <time>2014-10-29T14:50:07.000Z</time>
      </trkpt>
      <trkpt lat="48.70514" lon="1.75945">
        <ele>180</ele>
        <time>2014-10-29T14:50:13.000Z</time>
      </trkpt>
      <trkpt lat="48.70516" lon="1.75941">
        <ele>180.19999694824</ele>
        <time>2014-10-29T14:50:15.000Z</time>
      </trkpt>
      <trkpt lat="48.70521" lon="1.75934">
        <ele>180.60000610352</ele>
        <time>2014-10-29T14:50:19.000Z</time>
      </trkpt>
      <trkpt lat="48.70526" lon="1.75925">
        <ele>180.60000610352</ele>
        <time>2014-10-29T14:50:24.000Z</time>
      </trkpt>
      <trkpt lat="48.70533" lon="1.75915">
        <ele>180.60000610352</ele>
        <time>2014-10-29T14:50:30.000Z</time>
      </trkpt>
      <trkpt lat="48.70536" lon="1.75902">
        <ele>181</ele>
        <time>2014-10-29T14:50:36.000Z</time>
      </trkpt>
      <trkpt lat="48.70542" lon="1.75891">
        <ele>180.80000305176</ele>
        <time>2014-10-29T14:50:41.000Z</time>
      </trkpt>
      <trkpt lat="48.7055" lon="1.75877">
        <ele>180.39999389648</ele>
        <time>2014-10-29T14:50:49.000Z</time>
      </trkpt>
      <trkpt lat="48.70553" lon="1.75871">
        <ele>180.39999389648</ele>
        <time>2014-10-29T14:50:52.000Z</time>
      </trkpt>
      <trkpt lat="48.70556" lon="1.75862">
        <ele>180.39999389648</ele>
        <time>2014-10-29T14:50:57.000Z</time>
      </trkpt>
      <trkpt lat="48.7056" lon="1.75855">
        <ele>180.19999694824</ele>
        <time>2014-10-29T14:51:01.000Z</time>
      </trkpt>
      <trkpt lat="48.70565" lon="1.75842">
        <ele>179.39999389648</ele>
        <time>2014-10-29T14:51:08.000Z</time>
      </trkpt>
      <trkpt lat="48.70566" lon="1.7584">
        <ele>179.39999389648</ele>
        <time>2014-10-29T14:51:09.000Z</time>
      </trkpt>
      <trkpt lat="48.70571" lon="1.7583">
        <ele>178.60000610352</ele>
        <time>2014-10-29T14:51:15.000Z</time>
      </trkpt>
      <trkpt lat="48.70573" lon="1.75825">
        <ele>178.39999389648</ele>
        <time>2014-10-29T14:51:18.000Z</time>
      </trkpt>
      <trkpt lat="48.70576" lon="1.75806">
        <ele>178.19999694824</ele>
        <time>2014-10-29T14:51:27.000Z</time>
      </trkpt>
      <trkpt lat="48.70582" lon="1.75798">
        <ele>177.60000610352</ele>
        <time>2014-10-29T14:51:32.000Z</time>
      </trkpt>
      <trkpt lat="48.70587" lon="1.7579">
        <ele>177.60000610352</ele>
        <time>2014-10-29T14:51:37.000Z</time>
      </trkpt>
      <trkpt lat="48.70591" lon="1.75783">
        <ele>177.80000305176</ele>
        <time>2014-10-29T14:51:41.000Z</time>
      </trkpt>
      <trkpt lat="48.70601" lon="1.75763">
        <ele>178</ele>
        <time>2014-10-29T14:51:51.000Z</time>
      </trkpt>
      <trkpt lat="48.70603" lon="1.75757">
        <ele>178</ele>
        <time>2014-10-29T14:51:54.000Z</time>
      </trkpt>
      <trkpt lat="48.70608" lon="1.75748">
        <ele>178.39999389648</ele>
        <time>2014-10-29T14:52:00.000Z</time>
      </trkpt>
      <trkpt lat="48.70609" lon="1.75746">
        <ele>178.39999389648</ele>
        <time>2014-10-29T14:52:01.000Z</time>
      </trkpt>
      <trkpt lat="48.70612" lon="1.75741">
        <ele>178.39999389648</ele>
        <time>2014-10-29T14:52:04.000Z</time>
      </trkpt>
      <trkpt lat="48.70615" lon="1.75737">
        <ele>178.39999389648</ele>
        <time>2014-10-29T14:52:07.000Z</time>
      </trkpt>
      <trkpt lat="48.70618" lon="1.75729">
        <ele>178.80000305176</ele>
        <time>2014-10-29T14:52:11.000Z</time>
      </trkpt>
      <trkpt lat="48.70626" lon="1.7572">
        <ele>179</ele>
        <time>2014-10-29T14:52:17.000Z</time>
      </trkpt>
      <trkpt lat="48.70631" lon="1.75712">
        <ele>179.19999694824</ele>
        <time>2014-10-29T14:52:22.000Z</time>
      </trkpt>
      <trkpt lat="48.70638" lon="1.757">
        <ele>179.60000610352</ele>
        <time>2014-10-29T14:52:29.000Z</time>
      </trkpt>
      <trkpt lat="48.70642" lon="1.75684">
        <ele>180</ele>
        <time>2014-10-29T14:52:37.000Z</time>
      </trkpt>
      <trkpt lat="48.70642" lon="1.75678">
        <ele>180</ele>
        <time>2014-10-29T14:52:40.000Z</time>
      </trkpt>
      <trkpt lat="48.70643" lon="1.75666">
        <ele>180.19999694824</ele>
        <time>2014-10-29T14:52:47.000Z</time>
      </trkpt>
      <trkpt lat="48.70642" lon="1.75654">
        <ele>180.39999389648</ele>
        <time>2014-10-29T14:52:53.000Z</time>
      </trkpt>
      <trkpt lat="48.70644" lon="1.75637">
        <ele>179.80000305176</ele>
        <time>2014-10-29T14:53:00.000Z</time>
      </trkpt>
      <trkpt lat="48.70645" lon="1.75631">
        <ele>179.39999389648</ele>
        <time>2014-10-29T14:53:03.000Z</time>
      </trkpt>
      <trkpt lat="48.70648" lon="1.75616">
        <ele>178.60000610352</ele>
        <time>2014-10-29T14:53:10.000Z</time>
      </trkpt>
      <trkpt lat="48.70653" lon="1.75601">
        <ele>178.19999694824</ele>
        <time>2014-10-29T14:53:18.000Z</time>
      </trkpt>
      <trkpt lat="48.70654" lon="1.75599">
        <ele>178.19999694824</ele>
        <time>2014-10-29T14:53:22.000Z</time>
      </trkpt>
      <trkpt lat="48.70659" lon="1.7559">
        <ele>177.60000610352</ele>
        <time>2014-10-29T14:53:32.000Z</time>
      </trkpt>
      <trkpt lat="48.70667" lon="1.75577">
        <ele>177</ele>
        <time>2014-10-29T14:53:39.000Z</time>
      </trkpt>
      <trkpt lat="48.70673" lon="1.75565">
        <ele>175.80000305176</ele>
        <time>2014-10-29T14:53:46.000Z</time>
      </trkpt>
      <trkpt lat="48.70677" lon="1.75551">
        <ele>174.60000610352</ele>
        <time>2014-10-29T14:53:53.000Z</time>
      </trkpt>
      <trkpt lat="48.70682" lon="1.75538">
        <ele>174.19999694824</ele>
        <time>2014-10-29T14:54:00.000Z</time>
      </trkpt>
      <trkpt lat="48.7069" lon="1.75524">
        <ele>173.80000305176</ele>
        <time>2014-10-29T14:54:09.000Z</time>
      </trkpt>
      <trkpt lat="48.70694" lon="1.75515">
        <ele>173.39999389648</ele>
        <time>2014-10-29T14:54:14.000Z</time>
      </trkpt>
      <trkpt lat="48.70694" lon="1.75512">
        <ele>173.19999694824</ele>
        <time>2014-10-29T14:54:18.000Z</time>
      </trkpt>
      <trkpt lat="48.70694" lon="1.75512">
        <ele>173.19999694824</ele>
        <time>2014-10-29T14:54:18.000Z</time>
      </trkpt>
      <trkpt lat="48.70694" lon="1.75512">
        <ele>173.19999694824</ele>
        <time>2014-10-29T14:54:19.000Z</time>
      </trkpt>
      <trkpt lat="48.70698" lon="1.755">
        <ele>172.80000305176</ele>
        <time>2014-10-29T14:54:30.000Z</time>
      </trkpt>
      <trkpt lat="48.70702" lon="1.7549">
        <ele>172.60000610352</ele>
        <time>2014-10-29T14:54:35.000Z</time>
      </trkpt>
      <trkpt lat="48.70704" lon="1.75481">
        <ele>172.39999389648</ele>
        <time>2014-10-29T14:54:41.000Z</time>
      </trkpt>
      <trkpt lat="48.70703" lon="1.75477">
        <ele>172.39999389648</ele>
        <time>2014-10-29T14:54:46.000Z</time>
      </trkpt>
      <trkpt lat="48.70703" lon="1.75478">
        <ele>172.39999389648</ele>
        <time>2014-10-29T14:54:47.000Z</time>
      </trkpt>
    </trkseg>
  </trk>
</gpx>